ftp/pub/palmer/observations_modified/2019/November/AR191104_BASE.txt

Download

Sample DateTime	Unit Id	WS Avg 2min	WD Avg 2min	WGS 10min	WGD 10min	Air Temp	Rel Humidity	Dew Point	Pyranometer	Quantum	Air Pressure	Snow Level	Rainfall	PW Current	Visibility	CBase 1	CBase 2	CBase 3	Vert Vis
2019/11/04  00:00:00  BASE  1.69344  154  3.0576   144  -1.0  100   -1.0  9     0     964.8    NA       0.0000   9999     660   0     0    
2019/11/04  00:01:00  BASE  1.8522   159  3.0576   144  -1.0  100   -1.0  8     0     964.8    NA       0.0000   9999     660   0     0    
2019/11/04  00:02:00  BASE  1.96392  152  3.0576   144  -1.0  100   -1.0  8     0     964.8    NA       0.0000   9999     690   0     0    
2019/11/04  00:03:00  BASE  1.85808  147  3.0576   144  -1.0  100   -1.0  8     0     964.8    NA       0.0000   9999     690   0     0    
2019/11/04  00:04:00  BASE  1.60524  144  2.51076  150  -1.0  100   -1.0  7     0     964.8    NA       0.0000   9999     660   0     0    
2019/11/04  00:05:00  BASE  1.78164  143  2.69304  143  -1.0  100   -1.0  7     0     964.8    NA       0.0000   9999     620   0     0    
2019/11/04  00:06:00  BASE  1.94628  147  2.69304  143  -1.1  100   -1.1  7     0     964.8    NA       0.0000   9999     620   0     0    
2019/11/04  00:07:00  BASE  2.05212  149  2.96352  149  -1.1  100   -1.1  6     0     964.8    NA       0.0000   9999     620   0     0    
2019/11/04  00:08:00  BASE  2.33436  147  2.96352  149  -1.1  100   -1.1  6     0     964.8    NA       0.0000   9999     660   0     0    
2019/11/04  00:09:00  BASE  2.22264  146  2.96352  149  -1.0  100   -1.0  6     0     964.8    NA       0.0000   9999     660   0     0    
2019/11/04  00:10:00  BASE  2.06388  146  2.96352  149  -1.1  100   -1.1  6     0     964.8    NA       0.0000   9999     620   0     0    
2019/11/04  00:11:00  BASE  1.86396  145  2.96352  149  -1.0  100   -1.0  6     0     964.8    NA       0.0000   9999     590   0     0    
2019/11/04  00:12:00  BASE  1.79928  142  2.96352  149  -1.1  100   -1.1  5     0     964.8    NA       0.0000   9999     560   0     0    
2019/11/04  00:13:00  BASE  1.96392  145  2.96352  149  -1.1  100   -1.1  5     0     964.8    NA       0.0000   9999     590   0     0    
2019/11/04  00:14:00  BASE  2.01096  151  2.96352  149  -1.1  100   -1.1  5     0     964.8    NA       0.0000   9999     620   0     0    
2019/11/04  00:15:00  BASE  1.83456  154  2.96352  149  -1.1  100   -1.1  5     0     964.8    NA       0.0000   9999     660   0     0    
2019/11/04  00:16:00  BASE  1.57584  150  2.96352  149  -1.0  100   -1.0  4     0     964.8    NA       0.0000   9999     620   0     0    
2019/11/04  00:17:00  BASE  1.79928  144  2.56956  152  -1.0  100   -1.0  4     0     964.8    NA       0.0000   9999     590   0     0    
2019/11/04  00:18:00  BASE  2.46372  147  3.087    147  -1.0  100   -1.0  4     0     964.8    NA       0.0000   9999     590   0     0    
2019/11/04  00:19:00  BASE  2.81652  150  3.26928  151  -1.0  100   -1.0  5     0     964.8    NA       0.0000   9999     620   0     0    
2019/11/04  00:20:00  BASE  3.03408  149  3.48096  150  -1.0  100   -1.0  5     0     964.8    NA       0.0000   9999     590   0     0    
2019/11/04  00:21:00  BASE  3.06348  150  3.48096  150  -1.1  100   -1.1  5     0     964.8    NA       0.0000   9999     590   0     0    
2019/11/04  00:22:00  BASE  2.84004  152  3.48096  150  -1.1  100   -1.1  6     0     964.8    NA       0.0000   9999     520   0     0    
2019/11/04  00:23:00  BASE  2.76948  148  3.48096  150  -1.0  100   -1.0  6     0     964.8    NA       0.0000   9999     520   0     0    
2019/11/04  00:24:00  BASE  2.69304  144  3.48096  150  -1.1  100   -1.1  7     0     964.8    NA       0.0000   9999     520   0     0    
2019/11/04  00:25:00  BASE  2.56956  148  3.48096  150  -1.1  100   -1.1  7     0     964.8    NA       0.0000   9999     520   0     0    
2019/11/04  00:26:00  BASE  2.24616  149  3.48096  150  -1.1  100   -1.1  7     0     964.8    NA       0.0000   9999     560   0     0    
2019/11/04  00:27:00  BASE  2.14032  144  3.48096  150  -1.1  100   -1.1  7     0     964.8    NA       0.0000   9999     560   0     0    
2019/11/04  00:28:00  BASE  2.68716  144  3.48096  152  -1.1  100   -1.1  7     0     964.8    NA       0.0000   9999     560   0     0    
2019/11/04  00:29:00  BASE  2.78124  145  3.48096  152  -1.1  100   -1.1  7     0     964.8    NA       0.0000   9999     520   0     0    
2019/11/04  00:30:00  BASE  2.62248  146  3.48096  152  -1.1  100   -1.1  7     0     964.8    NA       0.0000   9999     560   0     0    
2019/11/04  00:31:00  BASE  2.6754   148  3.48096  152  -1.1  100   -1.1  6     0     964.9    NA       0.0000   9999     520   0     0    
2019/11/04  00:32:00  BASE  2.74596  150  3.48096  152  -1.1  100   -1.1  6     0     964.8    NA       0.0000   9999     560   0     0    
2019/11/04  00:33:00  BASE  2.81652  152  3.48096  152  -1.1  100   -1.1  5     0     964.9    NA       0.0000   9999     520   0     0    
2019/11/04  00:34:00  BASE  2.57544  150  3.48096  152  -1.1  100   -1.1  5     0     964.9    NA       0.0000   9999     590   0     0    
2019/11/04  00:35:00  BASE  2.499    146  3.48096  152  -1.1  100   -1.1  5     0     964.9    NA       0.0000   9999     560   0     0    
2019/11/04  00:36:00  BASE  2.6166   148  3.48096  152  -1.1  100   -1.1  5     0     964.9    NA       0.0000   9999     560   0     0    
2019/11/04  00:37:00  BASE  2.68128  154  3.48096  152  -1.1  100   -1.1  4     0     964.9    NA       0.0000   9999     560   0     0    
2019/11/04  00:38:00  BASE  2.34024  157  3.1164   156  -1.1  100   -1.1  4     0     964.9    NA       0.0000   9999     590   0     0    
2019/11/04  00:39:00  BASE  2.12856  150  3.1164   156  -1.1  100   -1.1  4     0     964.9    NA       0.0000   9999     560   0     0    
2019/11/04  00:40:00  BASE  2.37552  150  3.1164   156  -1.1  100   -1.1  3     0     964.9    NA       0.0000   9999     590   0     0    
2019/11/04  00:41:00  BASE  2.37552  152  3.1164   156  -1.1  100   -1.1  3     0     964.9    NA       0.0000   9999     560   0     0    
2019/11/04  00:42:00  BASE  2.38728  156  3.1164   156  -1.1  100   -1.1  2     0     964.9    NA       0.0000   9999     560   0     0    
2019/11/04  00:43:00  BASE  2.205    160  3.0576   158  -1.1  100   -1.1  2     0     964.9    NA       0.0000   9999     590   0     0    
2019/11/04  00:44:00  BASE  1.92276  152  3.0576   158  -1.1  100   -1.1  2     0     965.0    NA       0.0000   9999     560   0     0    
2019/11/04  00:45:00  BASE  1.9992   147  3.0576   158  -1.1  100   -1.1  1     0     965.0    NA       0.0000   9999     560   0     0    
2019/11/04  00:46:00  BASE  2.26968  148  3.0576   158  -1.1  100   -1.1  1     0     965.0    NA       0.0000   9999     560   0     0    
2019/11/04  00:47:00  BASE  2.35788  151  2.87532  160  -1.1  100   -1.1  1     0     965.0    NA       0.0000   9999     590   0     0    
2019/11/04  00:48:00  BASE  2.1756   149  2.87532  160  -1.1  100   -1.1  1     0     965.0    NA       0.0000   9999     590   0     0    
2019/11/04  00:49:00  BASE  2.33436  144  2.93412  146  -1.1  100   -1.1  1     0     965.0    NA       0.0000   9999     620   0     0    
2019/11/04  00:50:01  BASE  2.69892  146  2.96352  145  -1.1  100   -1.1  1     0     965.0    NA       0.0000   9999     620   0     0    
2019/11/04  00:51:00  BASE  2.7636   152  3.1752   147  -1.1  100   -1.1  1     0     965.1    NA       0.0000   9999     590   0     0    
2019/11/04  00:52:00  BASE  2.57544  157  3.1752   147  -1.1  100   -1.1  1     0     965.1    NA       0.0000   9999     590   0     0    
2019/11/04  00:53:00  BASE  2.68128  154  3.41628  156  -1.2  100   -1.2  1     0     965.0    NA       0.0000   9999     590   0     0    
2019/11/04  00:54:00  BASE  3.06936  152  3.51036  158  -1.2  100   -1.2  1     0     965.0    NA       0.0000   9999     590   0     0    
2019/11/04  00:55:00  BASE  3.08112  152  3.51036  158  -1.2  100   -1.2  1     0     965.0    NA       0.0000   9999     590   0     0    
2019/11/04  00:56:00  BASE  2.87532  155  3.51036  158  -1.2  100   -1.2  1     0     965.1    NA       0.0000   9999     590   0     0    
2019/11/04  00:57:00  BASE  2.81652  162  3.51036  158  -1.2  100   -1.2  0     0     965.0    NA       0.0000   9999     620   0     0    
2019/11/04  00:58:00  BASE  2.646    161  3.51036  158  -1.2  100   -1.2  0     0     965.1    NA       0.0000   9999     590   0     0    
2019/11/04  00:59:00  BASE  2.54016  157  3.51036  158  -1.1  100   -1.1  0     0     965.1    NA       0.0000   9999     620   0     0    
2019/11/04  01:00:00  BASE  2.79888  159  3.51036  158  -1.1  100   -1.1  0     0     965.1    NA       0.0000   9999     590   0     0    
2019/11/04  01:01:00  BASE  2.8224   165  3.51036  158  -1.1  100   -1.1  0     0     965.1    NA       0.0000   9999     560   0     0    
2019/11/04  01:02:00  BASE  2.82828  168  3.51036  158  -1.1  100   -1.1  0     0     965.1    NA       0.0000   9999     590   0     0    
2019/11/04  01:03:00  BASE  2.7636   165  3.51036  158  -1.1  100   -1.1  0     0     965.1    NA       0.0000   9999     590   0     0    
2019/11/04  01:04:00  BASE  2.5578   158  3.48096  179  -1.1  100   -1.1  0     0     965.1    NA       0.0000   9999     690   0     0    
2019/11/04  01:05:00  BASE  2.63424  154  3.48096  179  -1.1  100   -1.1  0     0     965.1    NA       0.0000   9999     620   0     0    
2019/11/04  01:06:00  BASE  2.88708  154  3.48096  179  -1.1  100   -1.1  0     0     965.1    NA       0.0000   9999     620   0     0    
2019/11/04  01:07:00  BASE  2.94588  156  3.48096  179  -1.2  100   -1.2  0     0     965.1    NA       0.0000   9999     620   0     0    
2019/11/04  01:08:00  BASE  2.75772  152  3.48096  179  -1.2  100   -1.2  0     0     965.1    NA       0.0000   9999     620   0     0    
2019/11/04  01:09:00  BASE  2.8812   152  3.53976  151  -1.2  100   -1.2  0     0     965.1    NA       0.0000   9999     660   0     0    
2019/11/04  01:10:00  BASE  2.91648  159  3.53976  151  -1.2  100   -1.2  0     0     965.1    NA       0.0000   9999     690   0     0    
2019/11/04  01:11:00  BASE  2.94     164  3.53976  164  -1.2  100   -1.2  0     0     965.1    NA       0.0000   9999     620   0     0    
2019/11/04  01:12:00  BASE  3.10464  160  3.53976  164  -1.1  100   -1.1  0     0     965.1    NA       0.0000   9999     620   0     0    
2019/11/04  01:13:00  BASE  2.94588  155  3.53976  164  -1.1  100   -1.1  0     0     965.1    NA       0.0000   9999     790   0     0    
2019/11/04  01:14:00  BASE  2.8812   154  3.53976  164  -1.2  100   -1.2  0     0     965.1    NA       0.0000   9999     660   0     0    
2019/11/04  01:15:00  BASE  3.087    153  3.59856  145  -1.2  100   -1.2  0     0     965.1    NA       0.0000   9999     850   0     0    
2019/11/04  01:16:00  BASE  3.16932  156  3.59856  145  -1.2  100   -1.2  0     0     965.1    NA       0.0000   9999     850   0     0    
2019/11/04  01:17:00  BASE  3.06936  156  3.59856  145  -1.2  100   -1.2  0     0     965.1    NA       0.0000   9999     820   0     0    
2019/11/04  01:18:00  BASE  2.89884  147  3.59856  145  -1.2  100   -1.2  0     0     965.1    NA       0.0000   9999     750   0     0    
2019/11/04  01:19:00  BASE  2.74596  148  3.59856  145  -1.2  100   -1.2  0     0     965.1    NA       0.0000   9999     690   0     0    
2019/11/04  01:20:00  BASE  2.72832  148  3.59856  145  -1.2  100   -1.2  0     0     965.1    NA       0.0000   9999     620   0     0    
2019/11/04  01:21:00  BASE  2.71068  142  3.59856  145  -1.2  100   -1.2  0     0     965.1    NA       0.0000   9999     920   0     0    
2019/11/04  01:22:00  BASE  2.90472  144  3.59856  145  -1.2  100   -1.2  0     0     965.1    NA       0.0000   9999     620   0     0    
2019/11/04  01:23:00  BASE  3.02232  147  3.59856  145  -1.2  100   -1.2  0     0     965.1    NA       0.0000   9999     750   0     0    
2019/11/04  01:24:00  BASE  2.78712  141  3.59856  145  -1.2  100   -1.2  0     0     965.1    NA       0.0000   9999     690   0     0    
2019/11/04  01:25:00  BASE  2.78124  137  3.41628  160  -1.2  100   -1.2  0     0     965.0    NA       0.0000   9999     660   0     0    
2019/11/04  01:26:00  BASE  3.06348  138  3.59856  135  -1.2  100   -1.2  0     0     964.9    NA       0.0000   9999     660   0     0    
2019/11/04  01:27:00  BASE  3.234    136  3.83964  134  -1.2  100   -1.2  0     0     964.9    NA       0.0000   9999     720   0     0    
2019/11/04  01:28:00  BASE  3.19284  140  3.83964  134  -1.2  100   -1.2  0     0     965.0    NA       0.0000   9999     720   0     0    
2019/11/04  01:29:00  BASE  2.91648  150  3.83964  134  -1.2  100   -1.2  0     0     964.9    NA       0.0000   9999     790   0     0    
2019/11/04  01:30:00  BASE  2.52252  141  3.83964  134  -1.2  100   -1.2  0     0     964.9    NA       0.0000   9999     790   0     0    
2019/11/04  01:31:00  BASE  2.46372  134  3.83964  134  -1.2  100   -1.2  0     0     964.9    NA       0.0000   9999     890   0     0    
2019/11/04  01:32:00  BASE  2.56368  133  3.83964  134  -1.2  100   -1.2  0     0     964.9    NA       0.0000   9999     790   0     0    
2019/11/04  01:33:00  BASE  2.49312  133  3.83964  134  -1.2  100   -1.2  0     0     964.9    NA       0.0000   9999     950   0     0    
2019/11/04  01:34:00  BASE  2.45784  139  3.83964  134  -1.2  100   -1.2  0     0     965.0    NA       0.0000   9999     790   0     0    
2019/11/04  01:35:00  BASE  2.57544  141  3.83964  134  -1.2  100   -1.2  0     0     964.9    NA       0.0000   9999     750   0     0    
2019/11/04  01:36:00  BASE  2.62248  139  3.83964  134  -1.2  100   -1.2  0     0     964.9    NA       0.0000   9999     790   0     0    
2019/11/04  01:37:00  BASE  2.8518   140  3.44568  144  -1.2  100   -1.2  0     0     964.9    NA       0.0000   9999     720   0     0    
2019/11/04  01:38:00  BASE  2.89884  141  3.38688  151  -1.2  100   -1.2  0     0     964.9    NA       0.0000   9999     820   0     0    
2019/11/04  01:39:00  BASE  2.68716  137  3.38688  151  -1.2  100   -1.2  0     0     964.9    NA       0.0000   9999     690   0     0    
2019/11/04  01:40:00  BASE  2.62248  136  3.38688  151  -1.2  100   -1.2  0     0     964.9    NA       0.0000   9999     890   0     0    
2019/11/04  01:41:00  BASE  2.64012  137  3.38688  151  -1.2  100   -1.2  0     0     964.9    NA       0.0000   9999     820   0     0    
2019/11/04  01:42:00  BASE  2.71068  134  3.62796  131  -1.2  100   -1.2  0     0     964.9    NA       0.0000   9999     850   0     0    
2019/11/04  01:43:00  BASE  2.72832  133  3.62796  131  -1.2  100   -1.2  0     0     964.9    NA       0.0000   9999     980   0     0    
2019/11/04  01:44:00  BASE  2.51076  134  3.62796  131  -1.2  100   -1.2  0     0     964.9    NA       0.0000   9999     720   0     0    
2019/11/04  01:45:00  BASE  2.4696   131  3.62796  131  -1.3  100   -1.3  0     0     964.9    NA       0.0000   9999     720   0     0    
2019/11/04  01:46:00  BASE  2.68716  134  3.62796  131  -1.3  100   -1.3  0     0     964.9    NA       0.0000   9999     850   0     0    
2019/11/04  01:47:00  BASE  2.7342   137  3.62796  131  -1.3  100   -1.3  0     0     964.9    NA       0.0000   9999     790   0     0    
2019/11/04  01:48:00  BASE  2.7342   134  3.62796  131  -1.3  100   -1.3  0     0     964.8    NA       0.0000   9999     790   0     0    
2019/11/04  01:49:00  BASE  2.98704  133  3.62796  131  -1.3  100   -1.3  0     0     964.8    NA       0.0000   9999     850   0     0    
2019/11/04  01:50:00  BASE  3.25752  138  3.81024  138  -1.3  100   -1.3  0     0     964.8    NA       0.0000   9999     720   0     0    
2019/11/04  01:51:00  BASE  3.0282   138  3.81024  138  -1.3  100   -1.3  0     0     964.8    NA       0.0000   9999     850   0     0    
2019/11/04  01:52:00  BASE  2.8518   134  3.81024  138  -1.3  100   -1.3  0     0     964.8    NA       0.0000   9999     690   0     0    
2019/11/04  01:53:00  BASE  2.86356  137  3.81024  138  -1.3  100   -1.3  0     0     964.8    NA       0.0000   9999     920   0     0    
2019/11/04  01:54:00  BASE  3.02232  139  3.81024  138  -1.3  100   -1.3  0     0     964.8    NA       0.0000   9999     750   0     0    
2019/11/04  01:55:00  BASE  2.97528  139  3.81024  138  -1.3  100   -1.3  0     0     964.8    NA       0.0000   9999     820   0     0    
2019/11/04  01:56:00  BASE  2.9106   137  3.81024  138  -1.3  100   -1.3  0     0     964.8    NA       0.0000   9999     790   0     0    
2019/11/04  01:57:00  BASE  3.02232  138  3.81024  138  -1.3  100   -1.3  0     0     964.8    NA       0.0000   9999     790   0     0    
2019/11/04  01:58:00  BASE  2.92824  138  3.81024  138  -1.3  100   -1.3  0     0     964.8    NA       0.0000   9999     750   0     0    
2019/11/04  01:59:00  BASE  2.92824  135  3.81024  138  -1.3  100   -1.3  0     0     964.8    NA       0.0000   9999     750   0     0    
2019/11/04  02:00:00  BASE  2.97528  133  3.48096  135  -1.3  100   -1.3  0     0     964.8    NA       0.0000   9999     790   0     0    
2019/11/04  02:01:00  BASE  2.9694   136  3.48096  135  -1.3  100   -1.3  0     0     964.8    NA       0.0000   9999     790   0     0    
2019/11/04  02:02:00  BASE  2.6166   140  3.48096  135  -1.3  100   -1.3  0     0     964.8    NA       0.0000   9999     750   0     0    
2019/11/04  02:03:00  BASE  2.43432  140  3.48096  135  -1.3  100   -1.3  0     0     964.8    NA       0.0000   9999     720   0     0    
2019/11/04  02:04:00  BASE  2.63424  140  3.48096  135  -1.3  100   -1.3  0     0     964.8    NA       0.0000   9999     720   0     0    
2019/11/04  02:05:00  BASE  2.69892  138  3.48096  135  -1.3  100   -1.3  0     0     964.8    NA       0.0000   9999     720   0     0    
2019/11/04  02:06:00  BASE  2.59896  137  3.48096  135  -1.2  100   -1.2  0     0     964.8    NA       0.0000   9999     750   0     0    
2019/11/04  02:07:00  BASE  2.54604  137  3.35748  138  -1.2  100   -1.2  0     0     964.8    NA       0.0000   9999     750   0     0    
2019/11/04  02:08:00  BASE  2.54604  138  3.35748  138  -1.2  100   -1.2  0     0     964.8    NA       0.0000   9999     950   0     0    
2019/11/04  02:09:00  BASE  2.31672  138  3.35748  138  -1.2  100   -1.2  0     0     964.8    NA       0.0000   9999     950   0     0    
2019/11/04  02:10:00  BASE  2.22852  129  3.35748  138  -1.3  100   -1.3  0     0     964.8    NA       0.0000   9999     750   0     0    
2019/11/04  02:11:00  BASE  2.32848  125  3.2046   134  -1.3  100   -1.3  0     0     964.8    NA       0.0000   9999     750   0     0    
2019/11/04  02:12:00  BASE  2.34024  128  3.2046   134  -1.3  100   -1.3  0     0     964.8    NA       0.0000   9999     790   0     0    
2019/11/04  02:13:00  BASE  2.45196  132  3.2046   134  -1.3  100   -1.3  0     0     964.8    NA       0.0000   9999     720   0     0    
2019/11/04  02:14:00  BASE  2.39904  133  3.2046   134  -1.3  100   -1.3  0     0     964.9    NA       0.0000   9999     720   0     0    
2019/11/04  02:15:00  BASE  2.12856  133  2.99292  128  -1.3  100   -1.3  0     0     964.9    NA       0.0000   9999     720   0     0    
2019/11/04  02:16:00  BASE  2.32848  131  3.087    128  -1.3  100   -1.3  0     0     964.9    NA       0.0000   9999     720   0     0    
2019/11/04  02:17:00  BASE  2.45196  130  3.087    128  -1.3  100   -1.3  0     0     964.9    NA       0.0000   9999     790   0     0    
2019/11/04  02:18:00  BASE  2.2932   134  3.087    128  -1.3  100   -1.3  0     0     964.9    NA       0.0000   9999     720   0     0    
2019/11/04  02:19:00  BASE  2.49312  131  3.087    128  -1.2  100   -1.2  0     0     964.9    NA       0.0000   9999     720   0     0    
2019/11/04  02:20:00  BASE  2.5872   134  3.087    128  -1.2  100   -1.2  0     0     964.9    NA       0.0000   9999     750   0     0    
2019/11/04  02:21:00  BASE  2.31672  131  3.087    128  -1.2  100   -1.2  0     0     964.8    NA       0.0000   9999     720   0     0    
2019/11/04  02:22:00  BASE  2.21088  125  3.087    128  -1.2  100   -1.2  0     0     964.8    NA       0.0000   9999     820   0     0    
2019/11/04  02:23:00  BASE  2.2932   127  3.087    128  -1.2  100   -1.2  0     0     964.8    NA       0.0000   9999     950   0     0    
2019/11/04  02:24:00  BASE  2.16972  132  3.087    128  -1.3  100   -1.3  0     0     964.8    NA       0.0000   9999     850   0     0    
2019/11/04  02:25:00  BASE  2.28732  135  3.087    128  -1.3  100   -1.3  0     0     964.8    NA       0.0000   9999     790   0     0    
2019/11/04  02:26:00  BASE  2.56368  133  2.96352  135  -1.3  100   -1.3  0     0     964.8    NA       0.0000   9999     890   0     0    
2019/11/04  02:27:00  BASE  2.69892  134  3.1458   136  -1.3  100   -1.3  0     0     964.8    NA       0.0000   9999     820   0     0    
2019/11/04  02:28:00  BASE  2.81652  134  3.1752   129  -1.3  100   -1.3  0     0     964.8    NA       0.0000   9999     790   0     0    
2019/11/04  02:29:00  BASE  2.793    134  3.26928  133  -1.3  100   -1.3  0     0     964.8    NA       0.0000   9999     720   0     0    
2019/11/04  02:30:00  BASE  2.75772  139  3.26928  133  -1.3  100   -1.3  0     0     964.8    NA       0.0000   9999     720   0     0    
2019/11/04  02:31:00  BASE  2.66952  145  3.26928  133  -1.3  100   -1.3  0     0     964.8    NA       0.0000   9999     720   0     0    
2019/11/04  02:32:00  BASE  2.66364  144  3.26928  133  -1.3  100   -1.3  0     0     964.8    NA       0.0000   9999     720   0     0    
2019/11/04  02:33:00  BASE  2.72832  143  3.26928  133  -1.3  100   -1.3  0     0     964.8    NA       0.0000   9999     750   0     0    
2019/11/04  02:34:00  BASE  2.89296  141  3.93372  143  -1.3  100   -1.3  0     0     964.8    NA       0.0000   9999     1120  0     0    
2019/11/04  02:35:00  BASE  3.2046   140  3.93372  143  -1.3  100   -1.3  0     0     964.8    NA       0.0000   9999     1050  0     0    
2019/11/04  02:36:00  BASE  3.21048  140  3.93372  143  -1.3  100   -1.3  0     0     964.8    NA       0.0000   9999     850   0     0    
2019/11/04  02:37:00  BASE  3.22812  138  3.93372  143  -1.3  100   -1.3  0     0     964.8    NA       0.0000   9999     850   0     0    
2019/11/04  02:38:00  BASE  3.2046   143  3.93372  143  -1.3  100   -1.3  0     0     964.8    NA       0.0000   9999     1020  0     0    
2019/11/04  02:39:00  BASE  3.07524  146  3.93372  143  -1.3  100   -1.3  0     0     964.8    NA       0.0000   9999     820   0     0    
2019/11/04  02:40:00  BASE  3.00468  140  3.93372  143  -1.3  100   -1.3  0     0     964.8    NA       0.0000   9999     790   0     0    
2019/11/04  02:41:00  BASE  3.06936  134  3.93372  143  -1.3  100   -1.3  0     0     964.8    NA       0.0000   9999     1050  0     0    
2019/11/04  02:42:00  BASE  3.25164  133  3.93372  143  -1.4  100   -1.4  0     0     964.8    NA       0.0000   9999     980   0     0    
2019/11/04  02:43:00  BASE  3.33396  135  3.93372  143  -1.4  100   -1.4  0     0     964.8    NA       0.0000   9999     1120  0     0    
2019/11/04  02:44:00  BASE  3.13404  136  3.81024  154  -1.4  100   -1.4  0     0     964.7    NA       0.0000   9999     1120  0     0    
2019/11/04  02:45:00  BASE  3.25164  133  4.08072  126  -1.4  100   -1.4  0     0     964.7    NA       0.0000   9999     1080  0     0    
2019/11/04  02:46:00  BASE  3.33396  128  4.08072  126  -1.4  100   -1.4  0     0     964.7    NA       0.0000   9999     1050  0     0    
2019/11/04  02:47:00  BASE  3.01056  126  4.08072  126  -1.4  100   -1.4  0     0     964.7    NA       0.0000   9999     1080  0     0    
2019/11/04  02:48:00  BASE  3.09288  128  4.08072  126  -1.4  100   -1.4  0     0     964.7    NA       0.0000   9999     1120  0     0    
2019/11/04  02:49:00  BASE  3.34572  132  4.08072  126  -1.4  100   -1.4  0     0     964.7    NA       0.0000   9999     1050  0     0    
2019/11/04  02:50:00  BASE  3.30456  133  4.08072  126  -1.4  100   -1.4  0     0     964.7    NA       0.0000   9999     1120  0     0    
2019/11/04  02:51:00  BASE  2.98116  132  4.08072  126  -1.4  100   -1.4  0     0     964.7    NA       0.0000   9999     1080  0     0    
2019/11/04  02:52:00  BASE  2.86356  134  4.08072  126  -1.4  100   -1.4  0     0     964.7    NA       0.0000   9999     1080  0     0    
2019/11/04  02:53:00  BASE  2.89296  134  4.08072  126  -1.5  100   -1.5  0     0     964.7    NA       0.0000   9999     1080  0     0    
2019/11/04  02:54:00  BASE  3.02232  134  4.08072  126  -1.5  100   -1.5  0     0     964.7    NA       0.0000   9999     1150  0     0    
2019/11/04  02:55:00  BASE  3.25164  133  3.81024  131  -1.5  100   -1.5  0     0     964.7    NA       0.0000   9999     1150  0     0    
2019/11/04  02:56:00  BASE  3.234    130  3.81024  131  -1.5  100   -1.5  0     0     964.7    NA       0.0000   9999     0     0     0    
2019/11/04  02:57:00  BASE  3.19872  128  3.81024  131  -1.5  100   -1.5  0     0     964.7    NA       0.0000   9999     0     0     0    
2019/11/04  02:58:00  BASE  3.26928  127  3.81024  131  -1.5  100   -1.5  0     0     964.7    NA       0.0000   9999     0     0     0    
2019/11/04  02:59:00  BASE  3.25752  123  3.69264  122  -1.5  100   -1.6  0     0     964.6    NA       0.0000   9999     0     0     0    
2019/11/04  03:00:00  BASE  3.15756  120  3.69264  122  -1.6  100   -1.6  0     0     964.6    NA       0.0000   9999     0     0     0    
2019/11/04  03:01:00  BASE  3.0282   122  3.69264  122  -1.6  100   -1.6  0     0     964.6    NA       0.0000   9999     0     0     0    
2019/11/04  03:02:00  BASE  3.05172  124  3.69264  122  -1.6  100   -1.6  0     0     964.6    NA       0.0000   9999     0     0     0    
2019/11/04  03:03:00  BASE  3.13992  123  3.69264  128  -1.6  100   -1.6  0     0     964.6    NA       0.0000   9999     0     0     0    
2019/11/04  03:04:00  BASE  3.1752   121  3.69264  128  -1.6  100   -1.6  0     0     964.6    NA       0.0000   9999     1210  0     0    
2019/11/04  03:05:00  BASE  3.19872  117  3.69264  117  -1.6  100   -1.6  0     0     964.6    NA       0.0000   9999     0     0     0    
2019/11/04  03:06:00  BASE  3.30456  122  3.69264  126  -1.6  100   -1.6  0     0     964.7    NA       0.0000   9999     1120  0     0    
2019/11/04  03:07:00  BASE  3.4692   125  3.93372  126  -1.6  100   -1.6  0     0     964.7    NA       0.0000   9999     1120  0     0    
2019/11/04  03:08:00  BASE  3.675    124  4.38648  129  -1.6  100   -1.6  0     0     964.7    NA       0.0000   9999     1020  0     0    
2019/11/04  03:09:00  BASE  3.58092  121  4.38648  129  -1.6  100   -1.6  0     0     964.7    NA       0.0000   9999     980   0     0    
2019/11/04  03:10:00  BASE  3.3222   122  4.38648  129  -1.5  100   -1.5  0     0     964.7    NA       0.0000   9999     1020  0     0    
2019/11/04  03:11:00  BASE  3.18108  127  4.38648  129  -1.5  100   -1.5  0     0     964.7    NA       0.0000   9999     1020  0     0    
2019/11/04  03:12:00  BASE  2.9106   127  4.38648  129  -1.5  100   -1.5  0     0     964.7    NA       0.0000   9999     950   0     0    
2019/11/04  03:13:00  BASE  2.78124  125  4.38648  129  -1.5  100   -1.5  0     0     964.7    NA       0.0000   9999     950   0     0    
2019/11/04  03:14:00  BASE  3.1164   131  4.38648  129  -1.5  100   -1.5  0     0     964.7    NA       0.0000   9999     1020  0     0    
2019/11/04  03:15:00  BASE  3.25752  131  4.38648  129  -1.5  100   -1.5  0     0     964.7    NA       0.0000   9999     980   0     0    
2019/11/04  03:16:00  BASE  3.00468  124  4.38648  129  -1.5  100   -1.5  0     0     964.7    NA       0.0000   9999     950   0     0    
2019/11/04  03:17:00  BASE  3.1752   127  4.38648  129  -1.5  100   -1.5  0     0     964.7    NA       0.0000   9999     950   0     0    
2019/11/04  03:18:00  BASE  3.0576   131  4.116    134  -1.5  100   -1.5  0     0     964.7    NA       0.0000   9999     920   0     0    
2019/11/04  03:19:00  BASE  2.7342   128  4.116    134  -1.5  100   -1.5  0     0     964.7    NA       0.0000   9999     1050  0     0    
2019/11/04  03:20:00  BASE  2.68716  128  4.116    134  -1.5  100   -1.5  0     0     964.7    NA       0.0000   9999     1050  0     0    
2019/11/04  03:21:00  BASE  2.55192  130  4.116    134  -1.5  100   -1.5  0     0     964.7    NA       0.0000   9999     950   0     0    
2019/11/04  03:22:00  BASE  2.39904  128  4.116    134  -1.5  100   -1.5  0     0     964.7    NA       0.0000   9999     890   0     0    
2019/11/04  03:23:00  BASE  2.21676  125  4.116    134  -1.5  100   -1.5  0     0     964.7    NA       0.0000   9999     1050  0     0    
2019/11/04  03:24:00  BASE  2.26968  126  4.116    134  -1.5  100   -1.5  0     0     964.7    NA       0.0000   9999     950   0     0    
2019/11/04  03:25:00  BASE  2.39904  126  4.116    134  -1.5  100   -1.5  0     0     964.7    NA       0.0000   9999     980   0     0    
2019/11/04  03:26:00  BASE  2.5284   128  4.08072  135  -1.5  100   -1.5  0     0     964.7    NA       0.0000   9999     1050  0     0    
2019/11/04  03:27:00  BASE  2.64012  128  3.62796  124  -1.5  100   -1.5  0     0     964.7    NA       0.0000   9999     1020  0     0    
2019/11/04  03:28:00  BASE  2.62248  129  3.1458   133  -1.5  100   -1.5  0     0     964.7    NA       0.0000   9999     1020  0     0    
2019/11/04  03:29:00  BASE  2.55192  128  2.96352  136  -1.5  100   -1.5  0     0     964.7    NA       0.0000   9999     980   0     0    
2019/11/04  03:30:00  BASE  2.75184  130  3.26928  132  -1.6  100   -1.6  0     0     964.7    NA       0.0000   9999     920   0     0    
2019/11/04  03:31:00  BASE  2.99292  133  3.26928  132  -1.6  100   -1.6  0     0     964.7    NA       0.0000   9999     890   0     0    
2019/11/04  03:32:00  BASE  3.00468  134  3.29868  138  -1.6  100   -1.6  0     0     964.6    NA       0.0000   9999     950   0     0    
2019/11/04  03:33:00  BASE  2.80476  137  3.29868  138  -1.6  100   -1.6  0     0     964.6    NA       0.0000   9999     920   0     0    
2019/11/04  03:34:00  BASE  2.46372  133  3.29868  138  -1.6  100   -1.6  0     0     964.6    NA       0.0000   9999     890   0     0    
2019/11/04  03:35:00  BASE  2.69304  129  3.81024  130  -1.6  100   -1.6  0     0     964.6    NA       0.0000   9999     890   0     0    
2019/11/04  03:36:00  BASE  2.97528  131  3.81024  130  -1.6  100   -1.6  0     0     964.6    NA       0.0000   9999     980   0     0    
2019/11/04  03:37:00  BASE  2.93412  131  3.81024  130  -1.6  100   -1.6  0     0     964.6    NA       0.0000   9999     920   0     0    
2019/11/04  03:38:00  BASE  2.79888  127  3.81024  130  -1.6  100   -1.6  0     0     964.6    NA       0.0000   9999     1050  0     0    
2019/11/04  03:39:00  BASE  2.66364  125  3.81024  130  -1.6  100   -1.6  0     0     964.6    NA       0.0000   9999     1080  0     0    
2019/11/04  03:40:00  BASE  2.7048   129  3.81024  130  -1.6  100   -1.6  0     0     964.6    NA       0.0000   9999     1080  0     0    
2019/11/04  03:41:00  BASE  2.45784  130  3.81024  130  -1.5  100   -1.5  0     0     964.6    NA       0.0000   9999     1020  0     0    
2019/11/04  03:42:00  BASE  2.28732  132  3.81024  130  -1.5  100   -1.5  0     0     964.6    NA       0.0000   9999     1050  0     0    
2019/11/04  03:43:00  BASE  2.22264  139  3.81024  130  -1.5  100   -1.5  0     0     964.6    NA       0.0000   9999     1050  0     0    
2019/11/04  03:44:00  BASE  2.11092  137  3.81024  130  -1.5  100   -1.5  0     0     964.6    NA       0.0000   9999     1020  0     0    
2019/11/04  03:45:00  BASE  2.29908  132  3.53976  139  -1.6  100   -1.6  0     0     964.6    NA       0.0000   9999     1020  0     0    
2019/11/04  03:46:00  BASE  2.59896  134  3.53976  139  -1.6  100   -1.6  0     0     964.6    NA       0.0000   9999     1020  0     0    
2019/11/04  03:47:00  BASE  2.62836  137  3.26928  135  -1.6  100   -1.6  0     0     964.6    NA       0.0000   9999     1080  0     0    
2019/11/04  03:48:00  BASE  2.32848  136  3.26928  135  -1.6  100   -1.6  0     0     964.6    NA       0.0000   9999     1080  0     0    
2019/11/04  03:49:00  BASE  2.26968  133  3.35748  122  -1.6  100   -1.6  0     0     964.6    NA       0.0000   9999     1080  0     0    
2019/11/04  03:50:00  BASE  2.54604  134  3.35748  122  -1.6  100   -1.6  0     0     964.6    NA       0.0000   9999     1050  0     0    
2019/11/04  03:51:00  BASE  2.60484  138  3.35748  122  -1.6  100   -1.6  0     0     964.6    NA       0.0000   9999     1050  0     0    
2019/11/04  03:52:00  BASE  2.352    141  3.35748  122  -1.6  100   -1.6  0     0     964.6    NA       0.0000   9999     1020  0     0    
2019/11/04  03:53:00  BASE  2.34612  138  3.35748  122  -1.6  100   -1.6  0     0     964.6    NA       0.0000   9999     1050  0     0    
2019/11/04  03:54:00  BASE  2.50488  138  3.35748  122  -1.6  100   -1.6  0     0     964.6    NA       0.0000   9999     1050  0     0    
2019/11/04  03:55:00  BASE  2.3226   144  3.35748  122  -1.5  100   -1.5  0     0     964.6    NA       0.0000   9999     1020  0     0    
2019/11/04  03:56:00  BASE  2.14032  143  3.35748  122  -1.5  100   -1.5  0     0     964.6    NA       0.0000   9999     1020  0     0    
2019/11/04  03:57:00  BASE  2.22852  145  3.35748  122  -1.5  100   -1.5  0     0     964.6    NA       0.0000   9999     1020  0     0    
2019/11/04  03:58:00  BASE  2.13444  148  3.35748  122  -1.5  100   -1.5  0     0     964.6    NA       0.0000   9999     1020  0     0    
2019/11/04  03:59:00  BASE  1.92276  141  3.1458   135  -1.5  100   -1.5  0     0     964.6    NA       0.0000   9999     1050  0     0    
2019/11/04  04:00:00  BASE  1.98156  135  2.87532  140  -1.5  100   -1.5  0     0     964.6    NA       0.0000   9999     1020  0     0    
2019/11/04  04:01:00  BASE  2.02272  137  2.81064  144  -1.5  100   -1.5  0     0     964.6    NA       0.0000   9999     980   0     0    
2019/11/04  04:02:00  BASE  2.06388  135  2.81064  144  -1.6  100   -1.6  0     0     964.6    NA       0.0000   9999     950   0     0    
2019/11/04  04:03:00  BASE  2.11092  136  2.81064  144  -1.6  100   -1.6  0     0     964.6    NA       0.0000   9999     1080  0     0    
2019/11/04  04:04:00  BASE  2.00508  141  2.48136  146  -1.6  100   -1.6  0     0     964.6    NA       0.0000   9999     1050  0     0    
2019/11/04  04:05:00  BASE  1.72872  145  2.48136  146  -1.6  100   -1.6  0     0     964.6    NA       0.0000   9999     1120  0     0    
2019/11/04  04:06:00  BASE  1.4994   145  2.48136  146  -1.6  100   -1.6  0     0     964.6    NA       0.0000   9999     1080  0     0    
2019/11/04  04:07:00  BASE  1.51116  137  2.35788  134  -1.6  100   -1.6  0     0     964.6    NA       0.0000   9999     1080  0     0    
2019/11/04  04:08:00  BASE  1.71108  135  2.35788  134  -1.6  100   -1.6  0     0     964.6    NA       0.0000   9999     1080  0     0    
2019/11/04  04:09:00  BASE  2.04036  134  2.38728  123  -1.6  100   -1.6  0     0     964.6    NA       0.0000   9999     1080  0     0    
2019/11/04  04:10:00  BASE  2.28732  133  2.56956  142  -1.6  100   -1.6  0     0     964.6    NA       0.0000   9999     1050  0     0    
2019/11/04  04:11:00  BASE  2.48136  135  2.72244  129  -1.6  100   -1.6  0     0     964.6    NA       0.0000   9999     1080  0     0    
2019/11/04  04:12:00  BASE  2.4402   132  2.72244  129  -1.5  100   -1.5  0     0     964.5    NA       0.0000   9999     1050  0     0    
2019/11/04  04:13:00  BASE  2.24028  135  2.72244  129  -1.5  100   -1.5  0     0     964.5    NA       0.0000   9999     1120  0     0    
2019/11/04  04:14:00  BASE  2.06976  146  2.72244  129  -1.6  100   -1.6  0     0     964.5    NA       0.0000   9999     1150  0     0    
2019/11/04  04:15:00  BASE  1.81692  151  2.72244  129  -1.6  100   -1.6  0     0     964.5    NA       0.0000   9999     1210  0     0    
2019/11/04  04:16:00  BASE  1.72872  149  2.72244  129  -1.6  100   -1.6  0     0     964.5    NA       0.0000   9999     1080  0     0    
2019/11/04  04:17:00  BASE  1.76988  148  2.72244  129  -1.6  100   -1.6  0     0     964.5    NA       0.0000   9999     7780  0     0    
2019/11/04  04:18:00  BASE  1.75812  144  2.72244  129  -1.7  100   -1.7  0     0     964.5    NA       0.0000   9999     7680  0     0    
2019/11/04  04:19:00  BASE  1.85808  138  2.72244  129  -1.7  100   -1.7  0     0     964.5    NA       0.0000   9999     1150  0     0    
2019/11/04  04:20:00  BASE  2.02272  134  2.72244  129  -1.7  100   -1.7  0     0     964.5    NA       0.0000   9999     1120  0     0    
2019/11/04  04:21:00  BASE  2.48724  139  3.1164   142  -1.7  100   -1.7  0     0     964.5    NA       0.0000   9999     1120  0     0    
2019/11/04  04:22:00  BASE  2.6754   143  3.1164   142  -1.7  100   -1.7  0     0     964.5    NA       0.0000   9999     1180  0     0    
2019/11/04  04:23:00  BASE  2.37552  144  3.1164   142  -1.7  100   -1.7  0     0     964.5    NA       0.0000   9999     1080  0     0    
2019/11/04  04:24:00  BASE  2.205    145  3.1164   142  -1.6  100   -1.6  0     0     964.5    NA       0.0000   9999     1020  0     0    
2019/11/04  04:25:00  BASE  2.14032  146  3.1164   142  -1.6  100   -1.6  0     0     964.5    NA       0.0000   9999     1120  0     0    
2019/11/04  04:26:00  BASE  2.058    144  3.1164   142  -1.6  100   -1.6  0     0     964.5    NA       0.0000   9999     1050  0     0    
2019/11/04  04:27:00  BASE  1.96392  133  3.1164   142  -1.6  100   -1.6  0     0     964.5    NA       0.0000   9999     1050  0     0    
2019/11/04  04:28:00  BASE  2.24028  127  3.32808  129  -1.6  100   -1.6  0     0     964.5    NA       0.0000   9999     1120  0     0    
2019/11/04  04:29:00  BASE  2.40492  139  3.32808  129  -1.6  100   -1.6  0     0     964.5    NA       0.0000   9999     1080  0     0    
2019/11/04  04:30:00  BASE  2.058    145  3.32808  129  -1.6  100   -1.6  0     0     964.5    NA       0.0000   9999     1280  0     0    
2019/11/04  04:31:00  BASE  1.89924  148  3.32808  129  -1.6  100   -1.6  0     0     964.5    NA       0.0000   9999     6690  0     0    
2019/11/04  04:32:00  BASE  2.06388  151  3.32808  129  -1.6  100   -1.6  0     0     964.5    NA       0.0000   9999     1120  0     0    
2019/11/04  04:33:00  BASE  2.45196  151  3.32808  129  -1.6  100   -1.6  0     0     964.5    NA       0.0000   9999     1080  0     0    
2019/11/04  04:34:00  BASE  2.44608  150  3.32808  129  -1.6  100   -1.6  0     0     964.5    NA       0.0000   9999     1050  0     0    
2019/11/04  04:35:00  BASE  2.04624  147  3.32808  129  -1.6  100   -1.6  0     0     964.5    NA       0.0000   9999     1050  0     0    
2019/11/04  04:36:00  BASE  1.97568  147  3.32808  129  -1.6  100   -1.6  0     0     964.5    NA       0.0000   9999     1210  0     0    
2019/11/04  04:37:00  BASE  1.86984  147  3.32808  129  -1.6  100   -1.6  0     0     964.5    NA       0.0000   9999     1250  0     0    
2019/11/04  04:38:00  BASE  1.9992   145  3.02232  158  -1.6  100   -1.6  0     0     964.5    NA       0.0000   9999     1250  0     0    
2019/11/04  04:39:00  BASE  2.38728  146  3.02232  158  -1.6  100   -1.6  0     0     964.5    NA       0.0000   9999     1250  0     0    
2019/11/04  04:40:00  BASE  2.45196  145  3.02232  158  -1.6  100   -1.6  0     0     964.4    NA       0.0000   9999     1180  0     0    
2019/11/04  04:41:00  BASE  2.39316  145  3.02232  158  -1.6  100   -1.6  0     0     964.3    NA       0.0000   9999     1210  0     0    
2019/11/04  04:42:00  BASE  2.34024  149  3.02232  158  -1.6  100   -1.6  0     0     964.3    NA       0.0000   9999     7380  0     0    
2019/11/04  04:43:00  BASE  2.19912  144  2.96352  146  -1.6  100   -1.6  0     0     964.3    NA       0.0000   9999     1280  0     0    
2019/11/04  04:44:00  BASE  2.13444  138  2.96352  146  -1.6  100   -1.6  0     0     964.3    NA       0.0000   9999     1250  0     0    
2019/11/04  04:45:00  BASE  2.11092  138  2.96352  146  -1.7  100   -1.7  0     0     964.3    NA       0.0000   9999     1210  0     0    
2019/11/04  04:46:00  BASE  2.22264  139  2.96352  146  -1.7  100   -1.7  0     0     964.3    NA       0.0000   9999     0     0     0    
2019/11/04  04:47:00  BASE  2.3814   143  2.96352  146  -1.7  100   -1.7  0     0     964.3    NA       0.0000   9999     0     0     0    
2019/11/04  04:48:00  BASE  2.56368  146  3.02232  143  -1.7  100   -1.7  0     0     964.3    NA       0.0000   9999     0     0     0    
2019/11/04  04:49:00  BASE  2.5872   149  3.02232  143  -1.7  100   -1.7  0     0     964.3    NA       0.0000   9999     6920  0     0    
2019/11/04  04:50:00  BASE  2.19324  145  3.02232  143  -1.6  100   -1.6  0     0     964.4    NA       0.0000   9999     7090  0     0    
2019/11/04  04:51:00  BASE  1.97568  137  3.02232  143  -1.6  100   -1.6  0     0     964.4    NA       0.0000   9999     7020  0     0    
2019/11/04  04:52:00  BASE  2.22852  136  3.02232  143  -1.6  100   -1.6  0     0     964.3    NA       0.0000   9999     6920  0     0    
2019/11/04  04:53:00  BASE  2.44608  139  3.02232  143  -1.6  100   -1.6  0     0     964.3    NA       0.0000   9999     0     0     0    
2019/11/04  04:54:00  BASE  2.32848  140  3.02232  143  -1.6  100   -1.6  0     0     964.3    NA       0.0000   9999     0     0     0    
2019/11/04  04:55:00  BASE  2.2344   142  3.02232  143  -1.6  100   -1.6  0     0     964.3    NA       0.0000   9999     0     0     0    
2019/11/04  04:56:00  BASE  2.15208  140  3.02232  143  -1.6  100   -1.6  0     0     964.3    NA       0.0000   9999     0     0     0    
2019/11/04  04:57:00  BASE  2.14032  136  3.02232  143  -1.6  100   -1.6  0     0     964.3    NA       0.0000   9999     0     0     0    
2019/11/04  04:58:00  BASE  2.28144  137  2.87532  150  -1.7  100   -1.7  0     0     964.4    NA       0.0000   9999     0     0     0    
2019/11/04  04:59:00  BASE  2.24028  138  2.69304  139  -1.7  100   -1.7  0     0     964.4    NA       0.0000   9999     0     0     0    
2019/11/04  05:00:00  BASE  2.058    140  2.69304  139  -1.7  100   -1.7  0     0     964.4    NA       0.0000   9999     0     0     0    
2019/11/04  05:01:00  BASE  1.92276  143  2.69304  139  -1.7  100   -1.7  0     0     964.5    NA       0.0000   9999     0     0     0    
2019/11/04  05:02:00  BASE  1.84044  142  2.59896  142  -1.7  100   -1.7  0     0     964.5    NA       0.0000   9999     0     0     0    
2019/11/04  05:03:00  BASE  1.71108  137  2.54016  145  -1.6  100   -1.6  0     0     964.5    NA       0.0000   9999     0     0     0    
2019/11/04  05:04:00  BASE  1.65816  138  2.54016  145  -1.6  100   -1.6  0     0     964.5    NA       0.0000   9999     5810  0     0    
2019/11/04  05:05:00  BASE  1.75224  142  2.54016  145  -1.6  100   -1.6  0     0     964.5    NA       0.0000   9999     5770  0     0    
2019/11/04  05:06:00  BASE  1.75224  140  2.54016  145  -1.6  100   -1.6  0     0     964.5    NA       0.0000   9999     5770  0     0    
2019/11/04  05:07:00  BASE  1.7052   136  2.54016  145  -1.6  100   -1.6  0     0     964.5    NA       0.0000   9999     1250  0     0    
2019/11/04  05:08:00  BASE  1.53468  133  2.45196  140  -1.6  100   -1.6  0     0     964.5    NA       0.0000   9999     5970  0     0    
2019/11/04  05:09:00  BASE  1.44648  131  2.1462   138  -1.6  100   -1.6  0     0     964.5    NA       0.0000   9999     5840  0     0    
2019/11/04  05:10:00  BASE  1.45236  131  2.1462   138  -1.6  100   -1.6  0     0     964.4    NA       0.0000   9999     5740  0     0    
2019/11/04  05:11:00  BASE  1.32888  129  2.1462   138  -1.6  100   -1.6  0     0     964.3    NA       0.0000   9999     5770  0     0    
2019/11/04  05:12:00  BASE  1.34064  128  2.1462   138  -1.6  100   -1.6  0     0     964.3    NA       0.0000   9999     5640  0     0    
2019/11/04  05:13:00  BASE  1.42884  128  2.1462   138  -1.6  100   -1.6  0     0     964.3    NA       0.0000   9999     5540  0     0    
2019/11/04  05:14:00  BASE  1.39356  128  2.1462   138  -1.7  100   -1.7  0     0     964.3    NA       0.0000   9999     5410  0     0    
2019/11/04  05:15:00  BASE  1.37592  130  2.1462   138  -1.7  100   -1.7  0     0     964.3    NA       0.0000   9999     5410  0     0    
2019/11/04  05:16:00  BASE  1.55232  132  1.87572  131  -1.7  100   -1.7  0     0     964.3    NA       0.0000   9999     5450  0     0    
2019/11/04  05:17:00  BASE  1.7934   132  2.24028  139  -1.7  100   -1.7  0     0     964.3    NA       0.0000   9999     5180  0     0    
2019/11/04  05:18:00  BASE  1.91688  138  2.24028  139  -1.7  100   -1.7  0     0     964.3    NA       0.0000   9999     0     0     0    
2019/11/04  05:19:00  BASE  1.87572  141  2.24028  139  -1.7  100   -1.7  0     0     964.3    NA       0.0000   9999     0     0     0    
2019/11/04  05:20:00  BASE  1.71108  132  2.24028  139  -1.6  100   -1.6  0     0     964.3    NA       0.0000   9999     0     0     0    
2019/11/04  05:21:00  BASE  1.58172  128  2.24028  139  -1.6  100   -1.6  0     0     964.3    NA       0.0000   9999     0     0     0    
2019/11/04  05:22:00  BASE  1.50528  133  2.24028  139  -1.6  100   -1.6  0     0     964.3    NA       0.0000   9999     0     0     0    
2019/11/04  05:23:00  BASE  1.47588  133  2.24028  139  -1.6  100   -1.6  0     0     964.3    NA       0.0000   9999     0     0     0    
2019/11/04  05:24:00  BASE  1.34652  129  2.24028  139  -1.6  100   -1.6  0     0     964.3    NA       0.0000   9999     0     0     0    
2019/11/04  05:25:00  BASE  1.43472  133  2.24028  139  -1.6  100   -1.6  0     0     964.2    NA       0.0000   9999     0     0     0    
2019/11/04  05:26:00  BASE  1.81104  142  2.24028  139  -1.6  100   -1.6  0     0     964.2    NA       0.0000   9999     0     0     0    
2019/11/04  05:27:00  BASE  2.04036  150  2.26968  155  -1.6  100   -1.6  0     0     964.2    NA       0.0000   9999     0     0     0    
2019/11/04  05:29:00  BASE  1.92276  158  2.26968  155  -1.6  100   -1.6  0     0     964.2    NA       0.0000   9999     0     0     0    
2019/11/04  05:30:00  BASE  1.71696  156  2.26968  155  -1.6  100   -1.6  0     0     964.2    NA       0.0000   9999     0     0     0    
2019/11/04  05:31:00  BASE  1.4406   150  2.26968  155  -1.6  100   -1.6  0     0     964.2    NA       0.0000   9999     0     0     0    
2019/11/04  05:32:00  BASE  1.16424  147  2.26968  155  -1.6  100   -1.6  0     0     964.2    NA       0.0000   9999     0     0     0    
2019/11/04  05:33:00  BASE  0.9996   143  2.26968  155  -1.6  100   -1.6  0     0     964.2    NA       0.0000   9999     7020  0     0    
2019/11/04  05:34:00  BASE  1.12308  137  2.26968  155  -1.6  100   -1.6  0     0     964.2    NA       0.0000   9999     6990  0     0    
2019/11/04  05:35:00  BASE  1.2054   135  2.26968  155  -1.6  100   -1.6  0     0     964.2    NA       0.0000   9999     7250  0     0    
2019/11/04  05:36:00  BASE  1.01724  136  2.26968  155  -1.6  100   -1.6  0     0     964.2    NA       0.0000   9999     7420  0     0    
2019/11/04  05:37:00  BASE  0.95844  140  2.1462   161  -1.6  100   -1.6  0     0     964.2    NA       0.0000   9999     7510  0     0    
2019/11/04  05:38:00  BASE  0.91728  149  1.93452  168  -1.6  100   -1.6  0     0     964.2    NA       0.0000   9999     7480  0     0    
2019/11/04  05:39:00  BASE  0.77616  144  1.87572  153  -1.6  100   -1.6  0     0     964.2    NA       0.0000   9999     7450  0     0    
2019/11/04  05:40:00  BASE  0.44688  134  1.42296  157  -1.6  100   -1.6  0     0     964.2    NA       0.0000   9999     7550  0     0    
2019/11/04  05:41:00  BASE  0.4116   136  1.35828  140  -1.6  100   -1.6  0     0     964.2    NA       0.0000   9999     7550  0     0    
2019/11/04  05:42:00  BASE  0.48216  149  1.35828  140  -1.6  100   -1.6  0     0     964.2    NA       0.0000   9999     7450  0     0    
2019/11/04  05:43:00  BASE  0.4116   159  1.35828  140  -1.6  100   -1.6  0     0     964.2    NA       0.0000   9999     7480  0     0    
2019/11/04  05:44:00  BASE  0.68208  166  1.35828  140  -1.6  100   -1.6  0     0     964.2    NA       0.0000   9999     7350  0     0    
2019/11/04  05:45:00  BASE  0.48804  167  1.29948  138  -1.6  100   -1.6  0     0     964.2    NA       0.0000   9999     7250  0     0    
2019/11/04  05:46:00  BASE  0.0588   157  1.29948  138  -1.6  100   -1.6  0     0     964.2    NA       0.0000   9999     7190  0     0    
2019/11/04  05:47:00  BASE  0.13524  150  0.9996   171  -1.6  100   -1.6  0     0     964.2    NA       0.0000   9999     7190  0     0    
2019/11/04  05:48:00  BASE  0.24108  148  0.9996   171  -1.6  100   -1.6  0     0     964.2    NA       0.0000   9999     7050  0     0    
2019/11/04  05:49:00  BASE  0.46452  156  0.9996   171  -1.6  100   -1.6  0     0     964.2    NA       0.0000   9999     1210  0     0    
2019/11/04  05:50:00  BASE  0.62328  168  0.9996   171  -1.6  100   -1.6  0     0     964.2    NA       0.0000   9999     1180  0     0    
2019/11/04  05:51:00  BASE  0.27048  160  0.9996   171  -1.5  100   -1.5  0     0     964.2    NA       0.0000   9999     1180  0     0    
2019/11/04  05:52:00  BASE  0        145  0.9996   171  -1.5  100   -1.5  0     0     964.2    NA       0.0000   9999     1180  0     0    
2019/11/04  05:53:00  BASE  0.53508  143  1.45236  139  -1.5  100   -1.5  0     0     964.2    NA       0.0000   9999     1180  0     0    
2019/11/04  05:54:00  BASE  1.18776  147  1.69344  146  -1.5  100   -1.5  0     0     964.2    NA       0.0000   9999     1180  0     0    
2019/11/04  05:55:00  BASE  0.9702   146  1.69344  146  -1.5  100   -1.5  0     0     964.2    NA       0.0000   9999     1150  0     0    
2019/11/04  05:56:00  BASE  0.33516  135  1.69344  146  -1.4  100   -1.4  0     0     964.3    NA       0.0000   9999     1150  0     0    
2019/11/04  05:57:00  BASE  0.05292  128  1.69344  146  -1.4  100   -1.4  0     0     964.2    NA       0.0000   9999     1150  0     0    
2019/11/04  05:58:00  BASE  0.02352  110  1.69344  146  -1.4  100   -1.4  0     0     964.2    NA       0.0000   9999     1150  0     0    
2019/11/04  05:59:00  BASE  0        96   1.69344  146  -1.4  100   -1.4  0     0     964.2    NA       0.0000   9999     0     0     0    
2019/11/04  06:00:00  BASE  0.25284  98   1.69344  146  -1.4  100   -1.4  0     0     964.2    NA       0.0000   9999     1180  0     0    
2019/11/04  06:01:00  BASE  0.30576  96   1.69344  146  -1.4  100   -1.4  0     0     964.2    NA       0.0000   9999     1210  0     0    
2019/11/04  06:02:00  BASE  0.11172  109  1.69344  146  -1.4  100   -1.4  0     0     964.2    NA       0.0000   9999     6170  0     0    
2019/11/04  06:03:00  BASE  0.12936  120  1.69344  146  -1.5  100   -1.5  0     0     964.2    NA       0.0000   9999     1210  0     0    
2019/11/04  06:04:00  BASE  0.13524  124  1.029    147  -1.5  100   -1.5  0     0     964.3    NA       0.0000   9999     6330  0     0    
2019/11/04  06:05:00  BASE  0.49392  126  1.24068  134  -1.5  100   -1.5  0     0     964.3    NA       0.0000   9999     0     0     0    
2019/11/04  06:06:00  BASE  0.89376  127  1.24068  134  -1.5  100   -1.5  0     0     964.3    NA       0.0000   9999     1150  0     0    
2019/11/04  06:07:00  BASE  0.98196  127  1.32888  133  -1.5  100   -1.5  0     0     964.3    NA       0.0000   9999     0     0     0    
2019/11/04  06:08:00  BASE  1.1466   132  1.32888  133  -1.5  100   -1.5  0     0     964.3    NA       0.0000   9999     0     0     0    
2019/11/04  06:09:00  BASE  1.1466   143  1.32888  133  -1.5  100   -1.5  0     0     964.3    NA       0.0000   9999     0     0     0    
2019/11/04  06:10:00  BASE  0.71736  143  1.32888  133  -1.4  100   -1.4  0     0     964.2    NA       0.0000   9999     0     0     0    
2019/11/04  06:11:00  BASE  0.18228  117  1.32888  133  -1.4  100   -1.4  0     0     964.2    NA       0.0000   9999     0     0     0    
2019/11/04  06:12:00  BASE  0        91   1.32888  133  -1.4  100   -1.4  0     0     964.2    NA       0.0000   9999     0     0     0    
2019/11/04  06:13:00  BASE  0        91   1.32888  133  -1.4  100   -1.4  0     0     964.2    NA       0.0000   9999     0     0     0    
2019/11/04  06:14:00  BASE  0.147    116  1.32888  133  -1.4  100   -1.4  0     0     964.2    NA       0.0000   9999     0     0     0    
2019/11/04  06:15:00  BASE  0.31164  149  1.32888  133  -1.4  100   -1.4  0     0     964.2    NA       0.0000   9999     5510  0     0    
2019/11/04  06:16:00  BASE  0.19404  184  1.32888  133  -1.4  100   -1.4  0     0     964.2    NA       0.0000   9999     0     0     0    
2019/11/04  06:17:00  BASE  0.0294   205  1.29948  145  -1.5  100   -1.5  0     0     964.2    NA       0.0000   9999     7320  0     0    
2019/11/04  06:18:00  BASE  0.12936  203  1.24068  144  -1.5  100   -1.5  0     0     964.2    NA       0.0000   9999     7320  0     0    
2019/11/04  06:19:00  BASE  0.5586   194  1.0878   150  -1.5  100   -1.5  0     0     964.2    NA       0.0000   9999     7150  0     0    
2019/11/04  06:20:00  BASE  0.588    184  0.9702   184  -1.5  100   -1.5  0     0     964.2    NA       0.0000   9999     7220  0     0    
2019/11/04  06:21:00  BASE  0.15876  178  0.9702   184  -1.5  100   -1.5  0     0     964.2    NA       0.0000   9999     7510  0     0    
2019/11/04  06:22:00  BASE  0.35868  183  0.9996   191  -1.5  100   -1.5  0     0     964.2    NA       0.0000   9999     7510  0     0    
2019/11/04  06:23:00  BASE  0.9114   191  1.24068  191  -1.5  100   -1.5  0     0     964.2    NA       0.0000   9999     6790  0     0    
2019/11/04  06:24:00  BASE  1.07604  190  1.24068  191  -1.5  100   -1.5  0     0     964.2    NA       0.0000   9999     7380  0     0    
2019/11/04  06:25:00  BASE  1.12308  193  1.35828  189  -1.5  100   -1.5  0     0     964.2    NA       0.0000   9999     7550  0     0    
2019/11/04  06:26:00  BASE  1.06428  211  1.35828  189  -1.5  100   -1.5  0     0     964.2    NA       0.0000   9999     6860  0     0    
2019/11/04  06:27:00  BASE  0.98784  213  1.35828  189  -1.5  100   -1.5  0     0     964.2    NA       0.0000   9999     6760  0     0    
2019/11/04  06:28:00  BASE  0.98196  196  1.35828  189  -1.5  100   -1.5  0     0     964.2    NA       0.0000   9999     6690  0     0    
2019/11/04  06:29:00  BASE  0.95256  194  1.35828  189  -1.5  100   -1.5  0     0     964.2    NA       0.0000   9999     6630  0     0    
2019/11/04  06:30:00  BASE  0.99372  197  1.35828  189  -1.5  100   -1.5  0     0     964.2    NA       0.0000   9999     6660  0     0    
2019/11/04  06:31:01  BASE  0.92904  201  1.35828  189  -1.5  100   -1.5  0     0     964.2    NA       0.0000   9999     6530  0     0    
2019/11/04  06:32:00  BASE  0.89964  202  1.35828  189  -1.5  100   -1.5  0     0     964.2    NA       0.0000   9999     8070  0     0    
2019/11/04  06:33:00  BASE  0.94668  199  1.35828  189  -1.5  100   -1.5  0     0     964.2    NA       0.0000   9999     8170  0     0    
2019/11/04  06:34:00  BASE  0.97608  201  1.35828  189  -1.5  100   -1.5  0     0     964.2    NA       0.0000   9999     8170  0     0    
2019/11/04  06:35:00  BASE  0.9114   204  1.24068  194  -1.5  100   -1.5  0     0     964.2    NA       0.0000   9999     8070  0     0    
2019/11/04  06:36:00  BASE  0.91728  206  1.24068  194  -1.5  100   -1.5  0     0     964.2    NA       0.0000   9999     6500  0     0    
2019/11/04  06:37:00  BASE  1.09956  206  1.35828  206  -1.5  100   -1.5  0     0     964.2    NA       0.0000   9999     6460  0     0    
2019/11/04  06:38:00  BASE  1.24068  203  1.45236  202  -1.5  100   -1.5  0     0     964.2    NA       0.0000   9999     8010  0     0    
2019/11/04  06:39:00  BASE  1.27596  206  1.45236  202  -1.5  100   -1.5  0     0     964.2    NA       0.0000   9999     7940  0     0    
2019/11/04  06:40:00  BASE  1.2936   211  1.45236  202  -1.6  100   -1.6  0     0     964.2    NA       0.0000   9999     7840  0     0    
2019/11/04  06:41:00  BASE  1.16424  212  1.45236  202  -1.6  100   -1.6  0     0     964.2    NA       0.0000   9999     7810  0     0    
2019/11/04  06:42:00  BASE  0.65856  207  1.45236  202  -1.6  100   -1.6  0     0     964.2    NA       0.0000   9999     7740  0     0    
2019/11/04  06:43:00  BASE  0.147    205  1.45236  202  -1.7  100   -1.7  0     0     964.2    NA       0.0000   9999     7640  0     0    
2019/11/04  06:44:00  BASE  0        208  1.45236  202  -1.7  100   -1.7  0     0     964.2    NA       0.0000   9999     6460  0     0    
2019/11/04  06:45:00  BASE  0        208  1.45236  202  -1.8  100   -1.8  0     0     964.2    NA       0.0000   9999     6460  0     0    
2019/11/04  06:46:00  BASE  0        207  1.45236  202  -1.8  100   -1.8  0     0     964.2    NA       0.0000   9999     7280  0     0    
2019/11/04  06:47:00  BASE  0        202  1.45236  202  -1.8  100   -1.8  0     0     964.2    NA       0.0000   9999     6460  0     0    
2019/11/04  06:48:00  BASE  0        198  1.42296  214  -1.8  100   -1.8  0     0     964.2    NA       0.0000   9999     7020  0     0    
2019/11/04  06:49:00  BASE  0.02352  201  1.42296  214  -1.8  100   -1.8  0     0     964.2    NA       0.0000   9999     6990  0     0    
2019/11/04  06:50:00  BASE  0.02352  204  1.21128  210  -1.7  100   -1.7  0     0     964.2    NA       0.0000   9999     6860  0     0    
2019/11/04  06:51:00  BASE  0        203  0.78792  210  -1.7  100   -1.7  0     0     964.2    NA       0.0000   9999     6660  0     0    
2019/11/04  06:52:00  BASE  0        203  0.60564  202  -1.7  100   -1.7  0     0     964.2    NA       0.0000   9999     6370  0     0    
2019/11/04  06:53:00  BASE  0        203  0.60564  202  -1.7  100   -1.7  0     0     964.2    NA       0.0000   9999     6000  0     0    
2019/11/04  06:54:00  BASE  0        203  0.60564  202  -1.7  100   -1.7  0     0     964.2    NA       0.0000   9999     5740  0     0    
2019/11/04  06:55:00  BASE  0        203  0.60564  202  -1.7  100   -1.7  0     0     964.2    NA       0.0000   9999     0     0     0    
2019/11/04  06:56:00  BASE  0        201  0.60564  202  -1.7  100   -1.7  0     0     964.2    NA       0.0000   9999     0     0     0    
2019/11/04  06:57:00  BASE  0        197  0.60564  202  -1.7  100   -1.7  0     0     964.2    NA       0.0000   9999     0     0     0    
2019/11/04  06:58:00  BASE  0        199  0.60564  202  -1.7  100   -1.7  0     0     964.2    NA       0.0000   9999     0     0     0    
2019/11/04  06:59:00  BASE  0.1176   11   0.75852  32   -1.7  100   -1.7  0     0     964.2    NA       0.0000   9999     0     0     0    
2019/11/04  07:00:00  BASE  0.52332  28   0.90552  46   -1.7  100   -1.7  0     0     964.2    NA       0.0000   9999     0     0     0    
2019/11/04  07:01:00  BASE  0.79968  42   0.90552  46   -1.7  100   -1.7  0     0     964.2    NA       0.0000   9999     0     0     0    
2019/11/04  07:02:00  BASE  0.78204  42   0.90552  46   -1.7  100   -1.7  0     0     964.2    NA       0.0000   9999     0     0     0    
2019/11/04  07:03:00  BASE  0.75852  38   0.90552  46   -1.8  100   -1.8  1     0     964.2    NA       0.0000   9999     0     0     0    
2019/11/04  07:04:00  BASE  0.7938   36   1.0584   35   -1.8  100   -1.8  1     0     964.2    NA       0.0000   9999     0     0     0    
2019/11/04  07:05:00  BASE  0.91728  37   1.0584   35   -1.8  100   -1.8  1     0     964.2    NA       0.0000   9999     0     0     0    
2019/11/04  07:06:00  BASE  1.1466   41   1.51116  43   -1.8  100   -1.8  1     0     964.2    NA       0.0000   9999     0     0     0    
2019/11/04  07:07:00  BASE  1.25244  47   1.51116  43   -1.8  100   -1.8  1     0     964.2    NA       0.0000   9999     0     0     0    
2019/11/04  07:08:00  BASE  1.19364  50   1.51116  43   -1.8  100   -1.8  1     0     964.2    NA       0.0000   9999     0     0     0    
2019/11/04  07:09:00  BASE  1.18188  47   1.51116  43   -1.8  100   -1.8  1     0     964.2    NA       0.0000   9999     0     0     0    
2019/11/04  07:10:00  BASE  1.25832  43   1.51116  43   -1.9  100   -1.9  1     0     964.2    NA       0.0000   9999     0     0     0    
2019/11/04  07:11:00  BASE  1.3524   39   1.54056  38   -1.9  100   -1.9  1     0     964.2    NA       0.0000   9999     0     0     0    
2019/11/04  07:12:00  BASE  1.33476  37   1.54056  38   -1.9  100   -1.9  1     0     964.2    NA       0.0000   9999     0     0     0    
2019/11/04  07:13:00  BASE  1.2642   39   1.54056  38   -2.0  100   -2.0  1     0     964.2    NA       0.0000   9999     0     0     0    
2019/11/04  07:14:00  BASE  1.07016  37   1.54056  38   -2.0  100   -2.0  1     0     964.2    NA       0.0000   9999     0     0     0    
2019/11/04  07:15:00  BASE  0.89376  30   1.54056  38   -2.0  100   -2.0  1     0     964.2    NA       0.0000   9999     0     0     0    
2019/11/04  07:16:00  BASE  0.882    25   1.54056  38   -2.0  100   -2.0  1     0     964.2    NA       0.0000   9999     0     0     0    
2019/11/04  07:17:00  BASE  0.8526   22   1.54056  38   -1.9  100   -1.9  2     0     964.2    NA       0.0000   9999     0     0     0    
2019/11/04  07:18:00  BASE  0.78204  21   1.54056  38   -1.9  100   -1.9  2     0     964.2    NA       0.0000   9999     0     0     0    
2019/11/04  07:19:01  BASE  0.44688  22   1.54056  38   -1.9  100   -1.9  2     0     964.2    NA       0.0000   9999     0     0     0    
2019/11/04  07:20:00  BASE  0.07644  25   1.54056  38   -2.0  100   -2.0  2     0     964.2    NA       0.0000   9999     0     0     0    
2019/11/04  07:21:00  BASE  0.05292  20   1.39356  35   -2.0  100   -2.0  2     0     964.2    NA       0.0000   9999     0     0     0    
2019/11/04  07:22:00  BASE  0.05292  21   1.32888  39   -2.0  100   -2.0  2     0     964.2    NA       0.0000   9999     0     0     0    
2019/11/04  07:23:00  BASE  0        33   1.029    40   -2.0  100   -2.0  2     0     964.2    NA       0.0000   9999     0     0     0    
2019/11/04  07:24:00  BASE  0.22344  34   0.9996   23   -2.0  100   -2.0  2     0     964.2    NA       0.0000   9999     0     0     0    
2019/11/04  07:25:00  BASE  0.588    26   0.9996   23   -2.0  100   -2.0  2     0     964.2    NA       0.0000   9999     0     0     0    
2019/11/04  07:26:00  BASE  0.80556  27   0.9996   31   -2.0  100   -2.0  2     0     964.2    NA       0.0000   9999     0     0     0    
2019/11/04  07:27:00  BASE  0.9114   27   1.029    25   -2.0  100   -2.0  2     0     964.2    NA       0.0000   9999     0     0     0    
2019/11/04  07:28:00  BASE  0.93492  21   1.0878   19   -2.0  100   -2.0  3     0     964.2    NA       0.0000   9999     0     0     0    
2019/11/04  07:29:00  BASE  0.99372  16   1.1172   13   -2.0  100   -2.0  3     0     964.2    NA       0.0000   9999     0     0     0    
2019/11/04  07:30:00  BASE  1.03488  13   1.1172   13   -2.0  100   -2.0  3     0     964.2    NA       0.0000   9999     0     0     0    
2019/11/04  07:31:00  BASE  0.99372  10   1.1172   13   -2.0  100   -2.0  3     0     964.2    NA       0.0000   9999     0     0     0    
2019/11/04  07:32:00  BASE  0.90552  14   1.1172   13   -2.0  100   -2.0  3     0     964.2    NA       0.0000   9999     0     0     0    
2019/11/04  07:33:00  BASE  0.87612  23   1.1172   13   -2.1  100   -2.1  3     0     964.2    NA       0.0000   9999     0     0     0    
2019/11/04  07:34:00  BASE  0.89964  28   1.1172   13   -2.1  100   -2.1  3     0     964.2    NA       0.0000   9999     0     0     0    
2019/11/04  07:35:00  BASE  0.92904  29   1.1172   13   -2.1  100   -2.1  4     0     964.2    NA       0.0000   9999     0     0     0    
2019/11/04  07:36:00  BASE  0.94668  32   1.1172   13   -2.1  100   -2.1  4     0     964.2    NA       0.0000   9999     0     0     0    
2019/11/04  07:37:00  BASE  0.90552  34   1.1172   13   -2.1  100   -2.1  4     0     964.2    NA       0.0000   9999     0     0     0    
2019/11/04  07:38:00  BASE  0.81144  32   1.1172   13   -2.1  100   -2.1  4     0     964.2    NA       0.0000   9999     0     0     0    
2019/11/04  07:39:00  BASE  0.77616  26   1.0878   11   -2.1  100   -2.1  5     0     964.2    NA       0.0000   9999     0     0     0    
2019/11/04  07:40:00  BASE  0.81144  19   1.029    33   -2.1  100   -2.1  5     0     964.2    NA       0.0000   9999     0     0     0    
2019/11/04  07:41:00  BASE  0.83496  17   1.029    33   -2.1  100   -2.1  5     0     964.2    NA       0.0000   9999     0     0     0    
2019/11/04  07:42:00  BASE  0.882    21   1.0584   23   -2.1  100   -2.1  6     0     964.2    NA       0.0000   9999     0     0     0    
2019/11/04  07:43:00  BASE  0.66444  25   1.0584   23   -2.1  100   -2.1  6     0     964.2    NA       0.0000   9999     0     0     0    
2019/11/04  07:44:00  BASE  0.2058   26   1.0584   23   -2.1  100   -2.1  7     0     964.2    NA       0.0000   9999     0     0     0    
2019/11/04  07:45:00  BASE  0.0294   92   1.0584   23   -2.2  100   -2.2  7     0     964.2    NA       0.0000   9999     0     0     0    
2019/11/04  07:46:01  BASE  0.0294   86   1.0584   23   -2.3  100   -2.3  7     0     964.2    NA       0.0000   9999     0     0     0    
2019/11/04  07:47:00  BASE  0        90   1.0584   23   -2.3  100   -2.3  8     0     964.2    NA       0.0000   9999     0     0     0    
2019/11/04  07:48:00  BASE  0        76   1.0584   23   -2.3  100   -2.3  8     0     964.2    NA       0.0000   9999     0     0     0    
2019/11/04  07:49:00  BASE  0        32   1.0584   23   -2.3  100   -2.3  9     0     964.2    NA       0.0000   9999     0     0     0    
2019/11/04  07:50:00  BASE  0        17   1.0584   23   -2.2  100   -2.2  9     0     964.2    NA       0.0000   9999     0     0     0    
2019/11/04  07:51:00  BASE  0.1176   36   1.0584   23   -2.2  100   -2.2  10    0     964.2    NA       0.0000   9999     0     0     0    
2019/11/04  07:52:00  BASE  0.54684  38   1.029    27   -2.2  100   -2.2  10    0     964.2    NA       0.0000   9999     0     0     0    
2019/11/04  07:53:00  BASE  0.85848  30   1.029    27   -2.1  100   -2.2  10    0     964.2    NA       0.0000   9999     0     0     0    
2019/11/04  07:54:00  BASE  0.8232   32   1.029    27   -2.1  100   -2.1  11    0     964.2    NA       0.0000   9999     0     0     0    
2019/11/04  07:55:00  BASE  0.86436  38   1.029    39   -2.2  100   -2.2  11    0     964.2    NA       0.0000   9999     0     0     0    
2019/11/04  07:56:01  BASE  0.98196  40   1.1172   42   -2.2  100   -2.2  12    0     964.2    NA       0.0000   9999     0     0     0    
2019/11/04  07:57:01  BASE  1.07016  35   1.21128  32   -2.2  100   -2.2  12    0     964.2    NA       0.0000   9999     0     0     0    
2019/11/04  07:58:00  BASE  1.08192  34   1.21128  32   -2.2  100   -2.2  13    0     964.1    NA       0.0000   9999     0     0     0    
2019/11/04  07:59:00  BASE  1.00548  37   1.21128  32   -2.2  100   -2.2  13    0     964.1    NA       0.0000   9999     0     0     0    
2019/11/04  08:00:00  BASE  0.67032  35   1.21128  32   -2.2  100   -2.2  14    0     964.1    NA       0.0000   9999     0     0     0    
2019/11/04  08:01:00  BASE  0.5292   36   1.21128  32   -2.2  100   -2.2  14    0     964.1    NA       0.0000   9999     0     0     0    
2019/11/04  08:02:00  BASE  0.67032  39   1.21128  32   -2.2  100   -2.2  15    0     964.1    NA       0.0000   9999     0     0     0    
2019/11/04  08:03:00  BASE  0.67032  40   1.21128  32   -2.2  100   -2.2  15    0     964.1    NA       0.0000   9999     0     0     0    
2019/11/04  08:04:00  BASE  0.77028  45   1.21128  32   -2.2  100   -2.2  16    0     964.1    NA       0.0000   9999     0     0     0    
2019/11/04  08:05:00  BASE  0.89376  50   1.21128  32   -2.2  100   -2.2  16    0     964.1    NA       0.0000   9999     0     0     0    
2019/11/04  08:06:01  BASE  0.97608  55   1.21128  32   -2.2  100   -2.2  17    0     964.1    NA       0.0000   9999     0     0     0    
2019/11/04  08:07:01  BASE  0.9408   55   1.1466   58   -2.2  100   -2.2  17    0     964.1    NA       0.0000   9999     0     0     0    
2019/11/04  08:08:01  BASE  0.68796  52   1.1466   58   -2.2  100   -2.2  18    0     964.1    NA       0.0000   9999     0     0     0    
2019/11/04  08:09:01  BASE  0.25872  49   1.1466   58   -2.2  100   -2.2  19    0     964.1    NA       0.0000   9999     0     0     0    
2019/11/04  08:10:00  BASE  0.07644  47   1.1466   58   -2.2  100   -2.2  19    0     964.1    NA       0.0000   9999     0     0     0    
2019/11/04  08:11:01  BASE  0.15288  53   1.1466   58   -2.2  100   -2.2  19    0     964.1    NA       0.0000   9999     0     0     0    
2019/11/04  08:12:00  BASE  0.07644  58   1.1466   58   -2.2  100   -2.2  20    0     964.1    NA       0.0000   9999     0     0     0    
2019/11/04  08:13:00  BASE  0.13524  56   1.1466   58   -2.2  100   -2.2  20    0     964.0    NA       0.0000   9999     0     0     0    
2019/11/04  08:14:00  BASE  0.54684  54   1.1466   58   -2.2  100   -2.2  21    0     964.0    NA       0.0000   9999     0     0     0    
2019/11/04  08:15:00  BASE  0.87612  58   1.1466   58   -2.2  100   -2.2  21    0     964.0    NA       0.0000   9999     0     0     0    
2019/11/04  08:16:00  BASE  0.93492  54   1.029    41   -2.2  100   -2.2  21    0     964.0    NA       0.0000   9999     0     0     0    
2019/11/04  08:17:00  BASE  0.91728  41   1.029    45   -2.2  100   -2.2  22    0     964.0    NA       0.0000   9999     0     0     0    
2019/11/04  08:18:00  BASE  0.93492  37   1.1172   33   -2.2  100   -2.2  22    0     964.0    NA       0.0000   9999     0     0     0    
2019/11/04  08:19:00  BASE  1.00548  43   1.1172   44   -2.2  100   -2.2  22    0     964.0    NA       0.0000   9999     0     0     0    
2019/11/04  08:20:00  BASE  1.01136  46   1.1172   45   -2.2  100   -2.2  23    0     964.0    NA       0.0000   9999     0     0     0    
2019/11/04  08:21:00  BASE  0.9702   48   1.1172   45   -2.2  100   -2.2  23    0     964.0    NA       0.0000   9999     0     0     0    
2019/11/04  08:22:00  BASE  0.882    54   1.1172   45   -2.2  100   -2.2  23    0     964.0    NA       0.0000   9999     0     0     0    
2019/11/04  08:23:00  BASE  0.7644   55   1.1172   45   -2.2  100   -2.2  24    0     964.0    NA       0.0000   9999     0     0     0    
2019/11/04  08:24:00  BASE  0.56448  53   1.1172   45   -2.2  100   -2.2  24    0     964.0    NA       0.0000   9999     0     0     0    
2019/11/04  08:25:00  BASE  0.21756  56   1.1172   45   -2.2  100   -2.2  25    0     964.0    NA       0.0000   9999     0     0     0    
2019/11/04  08:26:00  BASE  0        59   1.1172   45   -2.2  100   -2.2  25    0     963.9    NA       0.0000   9999     0     0     0    
2019/11/04  08:27:00  BASE  0        66   1.1172   45   -2.2  100   -2.2  26    0     963.9    NA       0.0000   9999     0     0     0    
2019/11/04  08:28:00  BASE  0        73   1.1172   45   -2.2  100   -2.2  26    0     963.9    NA       0.0000   9999     0     0     0    
2019/11/04  08:29:00  BASE  0        75   1.1172   45   -2.2  100   -2.2  27    0     963.9    NA       0.0000   9999     0     0     0    
2019/11/04  08:30:00  BASE  0.08232  74   0.9702   54   -2.2  100   -2.2  28    0     963.9    NA       0.0000   9999     0     0     0    
2019/11/04  08:31:00  BASE  0.22344  85   0.90552  52   -2.2  100   -2.2  28    0     963.9    NA       0.0000   9999     0     0     0    
2019/11/04  08:32:00  BASE  0.13524  94   0.75852  53   -2.2  100   -2.2  29    0     963.9    NA       0.0000   9999     0     0     0    
2019/11/04  08:33:00  BASE  0.10584  78   0.72324  81   -2.2  100   -2.2  30    0     963.9    NA       0.0000   9999     0     0     0    
2019/11/04  08:34:00  BASE  0.294    63   0.72324  81   -2.2  100   -2.2  31    0     963.9    NA       0.0000   9999     0     0     0    
2019/11/04  08:35:00  BASE  0.32928  50   0.75852  28   -2.2  100   -2.2  32    0     963.9    NA       0.0000   9999     0     0     0    
2019/11/04  08:36:00  BASE  0.55272  33   0.84672  27   -2.2  100   -2.2  33    0     963.9    NA       0.0000   9999     0     0     0    
2019/11/04  08:37:00  BASE  0.85848  27   0.9702   27   -2.2  100   -2.2  34    0     963.9    NA       0.0000   9999     0     0     0    
2019/11/04  08:38:00  BASE  0.94668  27   1.0584   27   -2.2  100   -2.2  35    0     963.9    NA       0.0000   9999     0     0     0    
2019/11/04  08:39:00  BASE  1.00548  27   1.0584   27   -2.3  100   -2.3  36    0     963.9    NA       0.0000   9999     0     0     0    
2019/11/04  08:40:00  BASE  0.9114   29   1.0584   27   -2.3  100   -2.3  37    0     963.9    NA       0.0000   9999     0     0     0    
2019/11/04  08:41:00  BASE  0.78792  37   1.0584   27   -2.3  100   -2.3  37    0     963.9    NA       0.0000   9999     0     0     0    
2019/11/04  08:42:00  BASE  0.59388  51   1.0584   27   -2.3  100   -2.3  38    0     963.9    NA       0.0000   9999     0     0     0    
2019/11/04  08:43:00  BASE  0.21756  59   1.0584   27   -2.3  100   -2.3  39    0     963.9    NA       0.0000   9999     0     0     0    
2019/11/04  08:44:00  BASE  0        58   1.0584   27   -2.3  100   -2.3  39    0     963.9    NA       0.0000   9999     0     0     0    
2019/11/04  08:45:00  BASE  0        60   1.0584   27   -2.3  100   -2.3  40    0     963.9    NA       0.0000   9999     0     0     0    
2019/11/04  08:46:00  BASE  0        69   1.0584   27   -2.3  100   -2.3  41    0     963.9    NA       0.0000   9999     0     0     0    
2019/11/04  08:47:00  BASE  0        49   1.0584   27   -2.3  100   -2.3  41    0     963.9    NA       0.0000   9999     0     0     0    
2019/11/04  08:48:00  BASE  0        9    1.0584   27   -2.3  100   -2.3  42    0     963.9    NA       0.0000   9999     0     0     0    
2019/11/04  08:49:00  BASE  0.02352  355  0.9702   27   -2.3  100   -2.3  42    0     963.9    NA       0.0000   9999     0     0     0    
2019/11/04  08:50:00  BASE  0.02352  332  0.81732  41   -2.3  100   -2.3  43    0     963.9    NA       0.0000   9999     0     0     0    
2019/11/04  08:51:01  BASE  0        318  0.69384  60   -2.3  100   -2.3  44    0     963.9    NA       0.0000   9999     0     0     0    
2019/11/04  08:52:00  BASE  0        341  0.60564  347  -2.3  100   -2.3  45    0     963.9    NA       0.0000   9999     0     0     0    
2019/11/04  08:53:00  BASE  0.15288  0    0.63504  11   -2.3  100   -2.3  46    0     963.9    NA       0.0000   9999     0     0     0    
2019/11/04  08:54:01  BASE  0.44688  8    0.75852  1    -2.3  100   -2.3  47    0     963.9    NA       0.0000   9999     0     0     0    
2019/11/04  08:55:01  BASE  0.72324  5    0.90552  14   -2.3  100   -2.3  48    0     963.9    NA       0.0000   9999     0     0     0    
2019/11/04  08:56:01  BASE  0.882    11   0.9702   17   -2.4  100   -2.4  49    0     963.9    NA       0.0000   9999     0     0     0    
2019/11/04  08:57:00  BASE  0.90552  14   0.9702   14   -2.4  100   -2.4  51    0     963.9    NA       0.0000   9999     0     0     0    
2019/11/04  08:58:00  BASE  0.94668  14   1.029    14   -2.5  100   -2.5  52    0     963.9    NA       0.0000   9999     0     0     0    
2019/11/04  08:59:00  BASE  0.92316  13   1.029    14   -2.5  100   -2.5  53    0     963.9    NA       0.0000   9999     0     0     0    
2019/11/04  09:00:00  BASE  0.87024  8    1.029    14   -2.5  100   -2.5  55    0     963.9    NA       0.0000   9999     0     0     0    
2019/11/04  09:01:00  BASE  0.88788  6    1.029    14   -2.5  100   -2.5  56    0     963.9    NA       0.0000   9999     0     0     0    
2019/11/04  09:02:00  BASE  1.01136  7    1.24068  7    -2.5  100   -2.5  57    0     963.9    NA       0.0000   9999     0     0     0    
2019/11/04  09:03:01  BASE  1.07604  4    1.24068  7    -2.5  100   -2.5  58    0     963.9    NA       0.0000   9999     0     0     0    
2019/11/04  09:04:00  BASE  0.94668  360  1.24068  7    -2.5  100   -2.5  59    0     963.9    NA       0.0000   9999     0     0     0    
2019/11/04  09:05:00  BASE  0.80556  2    1.24068  7    -2.6  100   -2.6  59    0     963.9    NA       0.0000   9999     0     0     0    
2019/11/04  09:06:00  BASE  0.77616  7    1.24068  7    -2.6  100   -2.6  60    0     963.9    NA       0.0000   9999     0     0     0    
2019/11/04  09:07:00  BASE  0.84672  12   1.24068  7    -2.6  100   -2.6  60    0     963.9    NA       0.0000   9999     0     0     0    
2019/11/04  09:08:00  BASE  0.9996   13   1.35828  12   -2.6  100   -2.6  61    0     963.9    NA       0.0000   9999     0     0     0    
2019/11/04  09:09:00  BASE  1.17012  13   1.35828  12   -2.6  100   -2.6  61    0     963.8    NA       0.0000   9999     0     0     0    
2019/11/04  09:10:00  BASE  1.21716  12   1.35828  12   -2.6  100   -2.6  61    0     963.9    NA       0.0000   9999     0     0     0    
2019/11/04  09:11:00  BASE  1.176    13   1.35828  12   -2.6  100   -2.6  62    0     963.9    NA       0.0000   9999     22020 0     0    
2019/11/04  09:12:00  BASE  1.25244  12   1.42296  7    -2.6  100   -2.6  62    0     963.9    NA       0.0000   9999     0     0     0    
2019/11/04  09:13:00  BASE  1.38768  10   1.63464  8    -2.6  100   -2.6  63    0     963.9    NA       0.0000   9999     0     0     0    
2019/11/04  09:14:00  BASE  1.28772  12   1.63464  8    -2.6  100   -2.6  64    0     963.9    NA       0.0000   9999     0     0     0    
2019/11/04  09:15:00  BASE  1.10544  15   1.63464  8    -2.6  100   -2.6  65    0     963.9    NA       0.0000   9999     0     0     0    
2019/11/04  09:16:00  BASE  0.98784  22   1.63464  8    -2.6  100   -2.6  66    0     963.9    NA       0.0000   9999     0     0     0    
2019/11/04  09:17:00  BASE  0.88788  23   1.63464  8    -2.6  100   -2.6  67    0     964.0    NA       0.0000   9999     0     0     0    
2019/11/04  09:18:00  BASE  0.92316  21   1.63464  8    -2.6  100   -2.6  68    0     964.0    NA       0.0000   9999     0     0     0    
2019/11/04  09:19:00  BASE  1.25244  19   1.63464  8    -2.7  100   -2.7  68    0     964.0    NA       0.0000   9999     0     0     0    
2019/11/04  09:20:00  BASE  1.54056  19   1.75224  28   -2.7  100   -2.7  69    0     964.0    NA       0.0000   9999     0     0     0    
2019/11/04  09:21:00  BASE  1.74048  20   2.1168   17   -2.7  100   -2.7  70    0     964.0    NA       0.0000   9999     0     0     0    
2019/11/04  09:22:00  BASE  1.95216  16   2.1756   9    -2.7  100   -2.7  71    0     963.9    NA       0.0000   9999     0     0     0    
2019/11/04  09:23:00  BASE  1.8228   11   2.1756   9    -2.7  100   -2.7  72    0     963.9    NA       0.0000   9999     0     0     0    
2019/11/04  09:24:00  BASE  1.61112  14   2.1756   9    -2.7  100   -2.7  73    0     963.9    NA       0.0000   9999     0     0     0    
2019/11/04  09:25:00  BASE  1.59348  18   2.1756   9    -2.7  100   -2.7  74    0     964.0    NA       0.0000   9999     0     0     0    
2019/11/04  09:26:00  BASE  1.5876   24   2.1756   9    -2.7  100   -2.7  75    0     964.0    NA       0.0000   9999     0     0     0    
2019/11/04  09:27:00  BASE  1.323    31   2.1756   9    -2.7  100   -2.7  77    0     964.0    NA       0.0000   9999     1180  0     0    
2019/11/04  09:28:00  BASE  0.92316  33   2.1756   9    -2.7  100   -2.7  79    0     963.9    NA       0.0000   9999     1180  0     0    
2019/11/04  09:29:00  BASE  1.029    24   2.1756   9    -2.7  100   -2.7  81    0     963.9    NA       0.0000   9999     1150  21920 0    
2019/11/04  09:30:00  BASE  1.27596  16   2.1756   9    -2.7  100   -2.7  84    0     963.9    NA       0.0000   9999     0     0     0    
2019/11/04  09:31:00  BASE  1.14072  22   2.1756   9    -2.7  100   -2.7  86    0     963.9    NA       0.0000   9999     0     0     0    
2019/11/04  09:32:00  BASE  1.01136  23   1.90512  13   -2.7  100   -2.7  89    0     963.9    NA       0.0000   9999     0     0     0    
2019/11/04  09:33:00  BASE  1.04076  21   1.90512  13   -2.7  100   -2.7  91    0     963.9    NA       0.0000   9999     1150  0     0    
2019/11/04  09:34:00  BASE  1.42296  22   2.0874   29   -2.7  100   -2.7  93    0     963.9    NA       0.0000   9999     1120  0     0    
2019/11/04  09:35:00  BASE  1.89924  23   2.21088  22   -2.7  100   -2.7  96    0     963.9    NA       0.0000   9999     17780 0     0    
2019/11/04  09:36:00  BASE  1.9404   24   2.21088  22   -2.7  100   -2.7  98    0     963.9    NA       0.0000   9999     0     0     0    
2019/11/04  09:37:00  BASE  1.78164  24   2.21088  22   -2.7  100   -2.7  100   0     963.8    NA       0.0000   9999     0     0     0    
2019/11/04  09:38:00  BASE  1.68168  19   2.21088  22   -2.7  100   -2.7  102   0     963.7    NA       0.0000   9999     0     0     0    
2019/11/04  09:39:00  BASE  1.51704  15   2.21088  22   -2.7  100   -2.7  104   0     963.7    NA       0.0000   9999     0     0     0    
2019/11/04  09:40:00  BASE  1.37592  14   2.21088  22   -2.7  100   -2.7  106   0     963.7    NA       0.0000   9999     0     0     0    
2019/11/04  09:41:00  BASE  1.34652  11   2.21088  22   -2.6  100   -2.6  108   0     963.7    NA       0.0000   9999     0     0     0    
2019/11/04  09:42:00  BASE  1.40532  6    2.21088  22   -2.6  100   -2.6  111   0     963.7    NA       0.0000   9999     0     0     0    
2019/11/04  09:43:00  BASE  1.42296  3    2.21088  22   -2.6  100   -2.6  113   0     963.7    NA       0.0000   9999     0     0     0    
2019/11/04  09:44:00  BASE  1.37592  5    2.21088  22   -2.6  100   -2.6  116   0     963.7    NA       0.0000   9999     22540 0     0    
2019/11/04  09:45:00  BASE  1.4406   4    1.9992   30   -2.6  100   -2.6  118   0     963.7    NA       0.0000   9999     0     0     0    
2019/11/04  09:46:00  BASE  1.45824  2    1.81692  22   -2.6  100   -2.6  121   0     963.7    NA       0.0000   9999     0     0     0    
2019/11/04  09:47:00  BASE  1.39944  1    1.78752  21   -2.6  100   -2.6  123   0     963.7    NA       0.0000   9999     0     0     0    
2019/11/04  09:48:00  BASE  1.33476  2    1.60524  19   -2.6  100   -2.6  126   0     963.7    NA       0.0000   9999     0     0     0    
2019/11/04  09:49:00  BASE  1.22304  4    1.54056  353  -2.6  100   -2.6  129   0     963.7    NA       0.0000   9999     20080 0     0    
2019/11/04  09:50:00  BASE  1.14072  5    1.54056  353  -2.6  100   -2.6  133   0     963.7    NA       0.0000   9999     0     0     0    
2019/11/04  09:51:00  BASE  1.1172   4    1.54056  353  -2.6  100   -2.6  137   0     963.7    NA       0.0000   9999     0     0     0    
2019/11/04  09:52:00  BASE  1.0584   2    1.54056  353  -2.6  100   -2.6  141   0     963.7    NA       0.0000   9999     6990  0     0    
2019/11/04  09:53:00  BASE  0.89376  2    1.54056  353  -2.6  100   -2.6  145   0     963.7    NA       0.0000   9999     0     0     0    
2019/11/04  09:54:00  BASE  0.57624  4    1.54056  353  -2.6  100   -2.6  150   0     963.7    NA       0.0000   9999     0     0     0    
2019/11/04  09:55:00  BASE  0.18228  5    1.54056  353  -2.6  100   -2.6  152   0     963.7    NA       0.0000   9999     0     0     0    
2019/11/04  09:56:00  BASE  0        2    1.48176  1    -2.6  100   -2.6  152   0     963.7    NA       0.0000   9999     6890  0     0    
2019/11/04  09:57:00  BASE  0        0    1.35828  360  -2.6  100   -2.6  158   0     963.7    NA       0.0000   9999     6070  0     0    
2019/11/04  09:58:00  BASE  0        0    1.21128  7    -2.6  100   -2.6  162   0     963.7    NA       0.0000   9999     6040  0     0    
2019/11/04  09:59:00  BASE  0        0    1.21128  7    -2.6  100   -2.6  165   0     963.7    NA       0.0000   9999     5840  0     0    
2019/11/04  10:00:00  BASE  0        5    1.21128  7    -2.5  100   -2.5  166   0     963.7    NA       0.0000   9999     5840  0     0    
2019/11/04  10:01:00  BASE  0        15   1.0584   360  -2.5  100   -2.5  167   0     963.7    NA       0.0000   9999     5740  0     0    
2019/11/04  10:02:00  BASE  0        23   0.90552  2    -2.5  100   -2.5  167   0     963.8    NA       0.0000   9999     5710  0     0    
2019/11/04  10:03:00  BASE  0        25   0.63504  6    -2.5  100   -2.5  169   0     963.8    NA       0.0000   9999     5680  6170  0    
2019/11/04  10:04:00  BASE  0        26   0        M    -2.4  100   -2.4  170   0     963.9    NA       0.0000   9999     5610  0     0    
2019/11/04  10:05:00  BASE  0        32   0        M    -2.4  100   -2.4  170   0     963.8    NA       0.0000   9999     5610  0     0    
2019/11/04  10:06:00  BASE  0        37   0        M    -2.4  100   -2.4  170   0     963.8    NA       0.0000   9999     5680  0     0    
2019/11/04  10:07:00  BASE  0        36   0        M    -2.4  100   -2.4  169   0     963.8    NA       0.0000   9999     5580  0     0    
2019/11/04  10:08:00  BASE  0        33   0        M    -2.5  100   -2.5  171   0     963.7    NA       0.0000   9999     6330  0     0    
2019/11/04  10:09:00  BASE  0        21   0        M    -2.5  100   -2.5  172   0     963.7    NA       0.0000   9999     6760  0     0    
2019/11/04  10:10:00  BASE  0.02352  13   0.60564  13   -2.5  100   -2.5  173   0     963.7    NA       0.0000   9999     6760  0     0    
2019/11/04  10:11:00  BASE  0.02352  13   0.60564  13   -2.5  100   -2.5  172   0     963.7    NA       0.0000   9999     6590  0     0    
2019/11/04  10:12:00  BASE  0        14   0.60564  13   -2.5  100   -2.5  173   0     963.7    NA       0.0000   9999     6690  0     0    
2019/11/04  10:13:00  BASE  0        17   0.60564  13   -2.5  100   -2.5  173   0     963.7    NA       0.0000   9999     6370  0     0    
2019/11/04  10:14:00  BASE  0        18   0.60564  13   -2.5  100   -2.5  173   0     963.7    NA       0.0000   9999     6920  0     0    
2019/11/04  10:15:00  BASE  0        18   0.60564  13   -2.4  100   -2.4  175   0     963.7    NA       0.0000   9999     6560  0     0    
2019/11/04  10:16:00  BASE  0        18   0.60564  13   -2.4  100   -2.4  175   0     963.7    NA       0.0000   9999     6690  0     0    
2019/11/04  10:17:00  BASE  0        18   0.60564  13   -2.4  100   -2.4  175   0     963.7    NA       0.0000   9999     6860  0     0    
2019/11/04  10:18:00  BASE  0        18   0.60564  13   -2.4  100   -2.4  175   0     963.7    NA       0.0000   9999     6270  0     0    
2019/11/04  10:19:00  BASE  0        18   0.60564  13   -2.4  100   -2.4  175   0     963.7    NA       0.0000   9999     6230  0     0    
2019/11/04  10:20:00  BASE  0        52   0        M    -2.4  100   -2.4  175   0     963.8    NA       0.0000   9999     6170  0     0    
2019/11/04  10:21:00  BASE  0        98   0        M    -2.5  100   -2.5  174   0     963.8    NA       0.0000   9999     0     0     0    
2019/11/04  10:22:00  BASE  0.02352  138  0.60564  203  -2.5  100   -2.5  174   0     963.8    NA       0.0000   9999     0     0     0    
2019/11/04  10:23:00  BASE  0.27048  205  0.72324  220  -2.6  100   -2.6  174   0     963.7    NA       0.0000   9999     0     0     0    
2019/11/04  10:24:00  BASE  0.27048  228  0.72324  220  -2.6  100   -2.6  174   0     963.7    NA       0.0000   9999     0     0     0    
2019/11/04  10:25:00  BASE  0.0294   241  0.72324  220  -2.7  100   -2.7  174   0     963.7    NA       0.0000   9999     0     0     0    
2019/11/04  10:26:00  BASE  0        230  0.72324  220  -2.7  100   -2.7  173   0     963.7    NA       0.0000   9999     0     0     0    
2019/11/04  10:27:00  BASE  0        208  0.72324  220  -2.7  100   -2.7  173   0     963.7    NA       0.0000   9999     0     0     0    
2019/11/04  10:28:00  BASE  0.02352  190  0.72324  220  -2.7  100   -2.7  172   0     963.7    NA       0.0000   9999     0     0     0    
2019/11/04  10:29:00  BASE  0.10584  177  0.72324  220  -2.7  100   -2.7  173   0     963.7    NA       0.0000   9999     0     0     0    
2019/11/04  10:30:00  BASE  0.43512  176  0.84672  170  -2.7  100   -2.7  173   0     963.7    NA       0.0000   9999     0     0     0    
2019/11/04  10:31:00  BASE  0.81144  171  1.029    169  -2.7  100   -2.7  173   0     963.7    NA       0.0000   9999     0     0     0    
2019/11/04  10:32:00  BASE  1.03488  169  1.27008  168  -2.7  100   -2.7  172   0     963.7    NA       0.0000   9999     0     0     0    
2019/11/04  10:33:00  BASE  1.18776  169  1.29948  170  -2.7  100   -2.7  172   0     963.7    NA       0.0000   9999     0     0     0    
2019/11/04  10:34:00  BASE  1.0878   172  1.29948  170  -2.7  100   -2.7  171   0     963.7    NA       0.0000   9999     0     0     0    
2019/11/04  10:35:00  BASE  0.94668  172  1.29948  170  -2.8  100   -2.8  170   0     963.7    NA       0.0000   9999     0     0     0    
2019/11/04  10:36:00  BASE  0.87024  170  1.29948  170  -2.8  100   -2.8  171   0     963.7    NA       0.0000   9999     0     0     0    
2019/11/04  10:37:00  BASE  0.47628  170  1.29948  170  -2.8  100   -2.8  171   0     963.7    NA       0.0000   9999     0     0     0    
2019/11/04  10:38:00  BASE  0.3528   175  1.29948  170  -2.8  100   -2.8  172   0     963.7    NA       0.0000   9999     0     0     0    
2019/11/04  10:39:00  BASE  0.65268  184  1.29948  170  -2.8  100   -2.8  173   0     963.7    NA       0.0000   9999     0     0     0    
2019/11/04  10:40:00  BASE  0.42924  189  1.29948  170  -2.8  100   -2.8  175   0     963.7    NA       0.0000   9999     0     0     0    
2019/11/04  10:41:00  BASE  0.15288  190  1.29948  170  -2.8  100   -2.8  180   0     963.7    NA       0.0000   9999     0     0     0    
2019/11/04  10:42:00  BASE  0.15288  190  1.29948  170  -2.8  100   -2.8  183   0     963.7    NA       0.0000   9999     0     0     0    
2019/11/04  10:43:00  BASE  0.05292  190  1.0584   170  -2.8  100   -2.8  190   0     963.7    NA       0.0000   9999     0     0     0    
2019/11/04  10:44:00  BASE  0.27636  190  0.9702   169  -2.8  100   -2.8  193   0     963.7    NA       0.0000   9999     0     0     0    
2019/11/04  10:45:00  BASE  0.65268  192  0.93492  169  -2.7  100   -2.7  198   0     963.7    NA       0.0000   9999     0     0     0    
2019/11/04  10:46:00  BASE  0.75852  202  0.90552  193  -2.7  100   -2.7  207   0     963.7    NA       0.0000   9999     0     0     0    
2019/11/04  10:47:00  BASE  0.67032  218  0.90552  193  -2.7  100   -2.7  216   0     963.7    NA       0.0000   9999     0     0     0    
2019/11/04  10:48:00  BASE  0.28812  232  0.90552  193  -2.7  100   -2.7  219   0     963.7    NA       0.0000   9999     0     0     0    
2019/11/04  10:49:00  BASE  0        238  0.84672  210  -2.7  100   -2.7  222   0     963.7    NA       0.0000   9999     0     0     0    
2019/11/04  10:50:00  BASE  0        233  0.84672  210  -2.7  100   -2.7  230   0     963.7    NA       0.0000   9999     0     0     0    
2019/11/04  10:51:00  BASE  0.2646   220  0.90552  220  -2.6  100   -2.6  232   0     963.7    NA       0.0000   9999     0     0     0    
2019/11/04  10:52:00  BASE  0.75852  218  1.0878   226  -2.6  100   -2.6  234   0     963.7    NA       0.0000   9999     0     0     0    
2019/11/04  10:53:00  BASE  1.08192  222  1.27008  220  -2.6  100   -2.6  232   0     963.7    NA       0.0000   9999     0     0     0    
2019/11/04  10:54:00  BASE  1.27596  220  1.57584  219  -2.7  100   -2.7  231   0     963.7    NA       0.0000   9999     0     0     0    
2019/11/04  10:55:00  BASE  1.5288   217  1.75224  213  -2.7  100   -2.7  231   0     963.7    NA       0.0000   9999     0     0     0    
2019/11/04  10:56:00  BASE  1.71108  215  1.81692  217  -2.7  100   -2.7  239   0     963.7    NA       0.0000   9999     0     0     0    
2019/11/04  10:57:00  BASE  1.72284  217  1.81692  217  -2.7  100   -2.7  243   0     963.7    NA       0.0000   9999     0     0     0    
2019/11/04  10:58:00  BASE  1.69344  218  1.81692  217  -2.7  100   -2.7  246   0     963.7    NA       0.0000   9999     0     0     0    
2019/11/04  10:59:00  BASE  1.53468  212  1.81692  217  -2.7  100   -2.7  244   0     963.7    NA       0.0000   9999     0     0     0    
2019/11/04  11:00:00  BASE  1.18776  207  1.81692  217  -2.7  100   -2.7  245   0     963.7    NA       0.0000   9999     0     0     0    
2019/11/04  11:01:00  BASE  0.77616  207  1.81692  217  -2.7  100   -2.7  248   0     963.7    NA       0.0000   9999     0     0     0    
2019/11/04  11:02:00  BASE  0.42924  199  1.81692  217  -2.7  100   -2.7  253   0     963.7    NA       0.0000   9999     0     0     0    
2019/11/04  11:03:00  BASE  0.19404  173  1.81692  217  -2.7  100   -2.7  262   0     963.7    NA       0.0000   9999     0     0     0    
2019/11/04  11:04:00  BASE  0.07644  156  1.81692  217  -2.7  100   -2.7  273   0     963.7    NA       0.0000   9999     0     0     0    
2019/11/04  11:05:00  BASE  0.45864  160  1.81692  217  -2.7  100   -2.7  287   0     963.7    NA       0.0000   9999     0     0     0    
2019/11/04  11:06:00  BASE  0.82908  164  1.75224  214  -2.7  100   -2.7  298   0     963.7    NA       0.0000   9999     0     0     0    
2019/11/04  11:07:00  BASE  0.80556  163  1.75224  214  -2.7  100   -2.7  306   0     963.7    NA       0.0000   9999     0     0     0    
2019/11/04  11:08:00  BASE  0.82908  157  1.51116  210  -2.7  100   -2.7  314   0     963.6    NA       0.0000   9999     0     0     0    
2019/11/04  11:09:00  BASE  0.90552  153  1.1466   202  -2.8  100   -2.8  320   0     963.6    NA       0.0000   9999     0     0     0    
2019/11/04  11:10:00  BASE  0.94668  152  1.1172   160  -2.8  100   -2.8  326   0     963.6    NA       0.0000   9999     0     0     0    
2019/11/04  11:11:00  BASE  0.9114   147  1.1172   160  -2.9  100   -2.9  331   0     963.6    NA       0.0000   9999     0     0     0    
2019/11/04  11:12:00  BASE  0.95256  145  1.1172   160  -3.0  100   -3.0  327   0     963.6    NA       0.0000   9999     0     0     0    
2019/11/04  11:13:00  BASE  0.98784  144  1.1172   160  -3.0  100   -3.0  324   0     963.6    NA       0.0000   9999     0     0     0    
2019/11/04  11:14:00  BASE  1.0584   139  1.29948  130  -2.9  100   -2.9  324   0     963.6    NA       0.0000   9999     0     0     0    
2019/11/04  11:15:00  BASE  1.14072  136  1.29948  130  -2.9  100   -2.9  323   0     963.6    NA       0.0000   9999     0     0     0    
2019/11/04  11:16:00  BASE  1.07604  131  1.29948  130  -2.8  100   -2.8  324   0     963.6    NA       0.0000   9999     0     0     0    
2019/11/04  11:17:00  BASE  0.9408   126  1.29948  130  -2.8  100   -2.8  318   0     963.6    NA       0.0000   9999     21160 0     0    
2019/11/04  11:18:00  BASE  1.07604  131  1.42296  133  -2.7  100   -2.7  316   0     963.7    NA       0.0000   9999     0     0     0    
2019/11/04  11:19:00  BASE  1.24656  134  1.42296  133  -2.7  100   -2.7  312   0     963.6    NA       0.0000   9999     0     0     0    
2019/11/04  11:20:00  BASE  1.18188  133  1.42296  133  -2.6  100   -2.6  311   0     963.6    NA       0.0000   9999     0     0     0    
2019/11/04  11:21:00  BASE  1.17012  142  1.42296  158  -2.7  100   -2.7  310   0     963.6    NA       0.0000   9999     0     0     0    
2019/11/04  11:22:00  BASE  1.45824  157  1.90512  168  -2.7  100   -2.7  306   0     963.6    NA       0.0000   9999     0     0     0    
2019/11/04  11:23:00  BASE  1.81692  165  1.9992   168  -2.7  100   -2.7  303   0     963.6    NA       0.0000   9999     0     0     0    
2019/11/04  11:24:00  BASE  1.79928  164  1.9992   168  -2.7  100   -2.7  306   0     963.6    NA       0.0000   9999     0     0     0    
2019/11/04  11:25:00  BASE  1.51704  161  1.9992   168  -2.7  100   -2.7  307   0     963.6    NA       0.0000   9999     0     0     0    
2019/11/04  11:26:01  BASE  1.45236  159  1.9992   168  -2.7  100   -2.7  308   0     963.6    NA       0.0000   9999     0     0     0    
2019/11/04  11:27:00  BASE  1.60524  158  1.9992   168  -2.7  100   -2.7  301   0     963.6    NA       0.0000   9999     19230 0     0    
2019/11/04  11:28:00  BASE  1.69932  155  1.9992   168  -2.6  100   -2.6  292   0     963.6    NA       0.0000   9999     0     0     0    
2019/11/04  11:29:00  BASE  1.911    152  2.38728  149  -2.6  100   -2.6  286   0     963.6    NA       0.0000   9999     0     0     0    
2019/11/04  11:30:00  BASE  2.33436  152  2.72244  152  -2.6  100   -2.6  285   0     963.6    NA       0.0000   9999     0     0     0    
2019/11/04  11:31:00  BASE  2.61072  153  2.75184  156  -2.6  100   -2.6  282   0     963.6    NA       0.0000   9999     0     0     0    
2019/11/04  11:32:00  BASE  2.54016  151  2.75184  156  -2.6  100   -2.6  278   0     963.6    NA       0.0000   9999     0     0     0    
2019/11/04  11:33:00  BASE  2.42256  150  2.75184  156  -2.6  100   -2.6  281   0     963.6    NA       0.0000   9999     0     0     0    
2019/11/04  11:34:00  BASE  2.35788  149  2.75184  156  -2.6  100   -2.6  282   0     963.6    NA       0.0000   9999     0     0     0    
2019/11/04  11:35:00  BASE  2.42844  145  2.75184  141  -2.6  100   -2.6  283   0     963.6    NA       0.0000   9999     0     0     0    
2019/11/04  11:36:00  BASE  2.58132  141  2.75184  141  -2.7  100   -2.7  283   0     963.6    NA       0.0000   9999     0     0     0    
2019/11/04  11:37:00  BASE  2.78124  142  3.2046   141  -2.7  100   -2.7  280   0     963.6    NA       0.0000   9999     17950 0     0    
2019/11/04  11:38:00  BASE  3.02232  145  3.29868  146  -2.7  100   -2.7  283   0     963.5    NA       0.0000   9999     0     0     0    
2019/11/04  11:39:00  BASE  3.32808  149  3.69264  153  -2.7  100   -2.7  282   0     963.5    NA       0.0000   9999     0     0     0    
2019/11/04  11:40:00  BASE  3.44568  152  3.69264  153  -2.7  100   -2.7  287   0     963.5    NA       0.0000   9999     0     0     0    
2019/11/04  11:41:00  BASE  3.44568  154  3.72204  159  -2.7  100   -2.7  291   0     963.5    NA       0.0000   9999     0     0     0    
2019/11/04  11:42:00  BASE  3.59856  155  3.96312  154  -2.7  100   -2.7  296   0     963.5    NA       0.0000   9999     0     0     0    
2019/11/04  11:43:00  BASE  3.35748  155  3.96312  154  -2.6  100   -2.6  300   0     963.5    NA       0.0000   9999     0     0     0    
2019/11/04  11:44:00  BASE  3.25164  154  3.96312  154  -2.6  100   -2.6  306   0     963.5    NA       0.0000   9999     0     0     0    
2019/11/04  11:45:00  BASE  3.51624  152  3.96312  154  -2.5  100   -2.5  314   0     963.5    NA       0.0000   9999     0     0     0    
2019/11/04  11:46:00  BASE  3.45156  152  3.96312  154  -2.5  100   -2.5  320   0     963.5    NA       0.0000   9999     0     0     0    
2019/11/04  11:47:00  BASE  3.1458   153  3.96312  154  -2.5  100   -2.5  329   0     963.5    NA       0.0000   9999     0     0     0    
2019/11/04  11:48:00  BASE  3.07524  149  3.96312  154  -2.5  100   -2.5  333   0     963.5    NA       0.0000   9999     0     0     0    
2019/11/04  11:49:00  BASE  3.2046   143  3.96312  154  -2.5  100   -2.5  346   0     963.5    NA       0.0000   9999     0     0     0    
2019/11/04  11:50:00  BASE  3.1164   138  3.96312  154  -2.5  100   -2.5  353   0     963.5    NA       0.0000   9999     0     0     0    
2019/11/04  11:51:00  BASE  3.02232  135  3.96312  154  -2.5  100   -2.5  361   0     963.5    NA       0.0000   9999     0     0     0    
2019/11/04  11:52:00  BASE  2.87532  141  3.78084  152  -2.5  100   -2.5  370   0     963.4    NA       0.0000   9999     0     0     0    
2019/11/04  11:53:00  BASE  2.5872   145  3.78084  152  -2.5  100   -2.5  380   0     963.4    NA       0.0000   9999     0     0     0    
2019/11/04  11:54:00  BASE  2.49312  137  3.78084  152  -2.5  100   -2.5  375   0     963.5    NA       0.0000   9999     15910 0     0    
2019/11/04  11:55:00  BASE  2.46372  131  3.56916  141  -2.5  100   -2.5  376   0     963.4    NA       0.0000   9999     16370 0     0    
2019/11/04  11:56:00  BASE  2.34024  136  3.56916  141  -2.5  100   -2.5  383   0     963.4    NA       0.0000   9999     0     0     0    
2019/11/04  11:57:00  BASE  2.39904  142  3.56916  141  -2.5  100   -2.5  396   0     963.4    NA       0.0000   9999     0     0     0    
2019/11/04  11:58:00  BASE  2.5284   139  3.56916  141  -2.5  100   -2.5  397   0     963.4    NA       0.0000   9999     0     0     0    
2019/11/04  11:59:00  BASE  2.7048   142  3.1458   152  -2.5  100   -2.5  401   0     963.4    NA       0.0000   9999     16440 0     0    
2019/11/04  12:00:00  BASE  3.03408  144  3.41628  145  -2.5  100   -2.5  406   0     963.4    NA       0.0000   9999     0     0     0    
2019/11/04  12:01:00  BASE  2.9988   141  3.41628  145  -2.5  100   -2.5  412   0     963.4    NA       0.0000   9999     14600 0     0    
2019/11/04  12:02:00  BASE  2.82828  140  3.41628  145  -2.4  100   -2.4  416   0     963.4    NA       0.0000   9999     17320 0     0    
2019/11/04  12:03:00  BASE  2.72832  133  3.41628  145  -2.4  100   -2.4  411   0     963.4    NA       0.0000   9999     0     0     0    
2019/11/04  12:04:00  BASE  2.51664  127  3.41628  145  -2.4  100   -2.4  415   0     963.3    NA       0.0000   9999     0     0     0    
2019/11/04  12:05:00  BASE  2.4402   134  3.41628  145  -2.4  100   -2.4  416   0     963.3    NA       0.0000   9999     22740 0     0    
2019/11/04  12:06:00  BASE  2.76948  145  3.48096  148  -2.3  100   -2.3  421   0     963.4    NA       0.0000   9999     0     0     0    
2019/11/04  12:07:00  BASE  3.27516  151  3.75144  157  -2.3  100   -2.3  430   0     963.3    NA       0.0000   9999     0     0     0    
2019/11/04  12:08:00  BASE  3.59268  152  3.90432  152  -2.2  100   -2.2  440   0     963.3    NA       0.0000   9999     0     0     0    
2019/11/04  12:09:00  BASE  3.50448  149  3.90432  152  -2.2  100   -2.2  449   0     963.3    NA       0.0000   9999     0     0     0    
2019/11/04  12:10:00  BASE  3.22812  142  3.90432  152  -2.1  100   -2.1  453   0     963.1    NA       0.0000   9999     21130 0     0    
2019/11/04  12:11:00  BASE  3.381    138  3.90432  152  -2.1  100   -2.1  448   0     963.3    NA       0.0000   9999     23100 0     0    
2019/11/04  12:12:00  BASE  3.6456   137  3.96312  135  -2.0  100   -2.0  448   0     963.3    NA       0.0000   9999     0     0     0    
2019/11/04  12:13:00  BASE  3.7044   140  4.02192  143  -2.0  100   -2.0  441   0     963.3    NA       0.0000   9999     0     0     0    
2019/11/04  12:14:00  BASE  3.63384  142  4.02192  143  -2.0  100   -2.0  429   0     963.3    NA       0.0000   9999     0     0     0    
2019/11/04  12:15:00  BASE  3.50448  141  4.02192  143  -2.0  100   -2.0  427   0     963.3    NA       0.0000   9999     0     0     0    
2019/11/04  12:16:00  BASE  3.48096  138  4.02192  143  -2.0  100   -2.0  426   0     963.3    NA       0.0000   9999     0     0     0    
2019/11/04  12:17:00  BASE  3.62796  136  4.02192  143  -2.0  100   -2.0  434   0     963.3    NA       0.0000   9999     0     0     0    
2019/11/04  12:18:00  BASE  3.7926   138  4.1454   137  -2.0  100   -2.0  430   0     963.3    NA       0.0000   9999     0     0     0    
2019/11/04  12:19:00  BASE  3.79848  139  4.1454   137  -2.1  100   -2.1  438   0     963.3    NA       0.0000   9999     0     0     0    
2019/11/04  12:20:00  BASE  3.56916  136  4.1454   137  -2.1  100   -2.1  447   0     963.3    NA       0.0000   9999     0     0     0    
2019/11/04  12:21:00  BASE  3.39864  131  4.1454   137  -2.1  100   -2.1  448   0     963.3    NA       0.0000   9999     0     0     0    
2019/11/04  12:22:00  BASE  3.49272  128  4.1454   137  -2.1  100   -2.1  442   0     963.3    NA       0.0000   9999     0     0     0    
2019/11/04  12:23:00  BASE  3.5574   128  4.1454   137  -2.1  100   -2.1  455   0     963.3    NA       0.0000   9999     0     0     0    
2019/11/04  12:24:00  BASE  3.53388  128  4.1454   137  -2.1  100   -2.1  457   0     963.3    NA       0.0000   9999     0     0     0    
2019/11/04  12:25:00  BASE  3.44568  128  4.1454   137  -2.0  100   -2.0  450   0     963.3    NA       0.0000   9999     0     0     0    
2019/11/04  12:26:00  BASE  3.31044  129  4.1454   137  -2.0  100   -2.0  450   0     963.3    NA       0.0000   9999     0     0     0    
2019/11/04  12:27:00  BASE  3.29868  128  4.1454   137  -2.0  100   -2.0  455   0     963.3    NA       0.0000   9999     0     0     0    
2019/11/04  12:28:00  BASE  3.50448  128  3.99252  138  -2.0  100   -2.0  451   0     963.3    NA       0.0000   9999     0     0     0    
2019/11/04  12:29:00  BASE  3.62796  131  3.93372  133  -2.0  100   -2.0  447   0     963.3    NA       0.0000   9999     0     0     0    
2019/11/04  12:30:00  BASE  3.79848  134  4.1454   136  -2.0  100   -2.0  440   0     963.2    NA       0.0000   9999     0     0     0    
2019/11/04  12:31:00  BASE  3.81612  136  4.1454   136  -1.9  100   -1.9  429   0     963.2    NA       0.0000   9999     0     0     0    
2019/11/04  12:32:00  BASE  3.675    135  4.1454   136  -1.9  100   -1.9  430   0     963.2    NA       0.0000   9999     0     0     0    
2019/11/04  12:33:00  BASE  3.80436  135  4.1748   136  -1.8  100   -1.8  432   0     963.2    NA       0.0000   9999     0     0     0    
2019/11/04  12:34:00  BASE  3.8514   134  4.1748   136  -1.8  100   -1.8  431   0     963.2    NA       0.0000   9999     0     0     0    
2019/11/04  12:35:00  BASE  3.72204  131  4.1748   136  -1.8  100   -1.8  434   0     963.2    NA       0.0000   9999     19590 0     0    
2019/11/04  12:36:00  BASE  3.75144  133  4.1748   136  -1.8  100   -1.8  425   0     963.2    NA       0.0000   9999     17850 0     0    
2019/11/04  12:37:00  BASE  3.94548  137  4.29828  142  -1.8  100   -1.8  421   0     963.2    NA       0.0000   9999     0     0     0    
2019/11/04  12:38:00  BASE  4.23948  139  4.99212  147  -1.8  100   -1.8  429   0     963.2    NA       0.0000   9999     0     0     0    
2019/11/04  12:39:00  BASE  4.59816  141  5.10972  139  -1.8  100   -1.8  435   0     963.2    NA       0.0000   9999     0     0     0    
2019/11/04  12:40:00  BASE  4.77456  142  5.35668  142  -1.8  100   -1.8  444   0     963.2    NA       0.0000   9999     0     0     0    
2019/11/04  12:41:00  BASE  4.50996  140  5.35668  142  -1.8  100   -1.8  435   0     963.1    NA       0.0000   9999     0     0     0    
2019/11/04  12:42:00  BASE  4.116    138  5.35668  142  -1.8  100   -1.8  439   0     963.1    NA       0.0000   9999     0     0     0    
2019/11/04  12:43:00  BASE  4.26888  137  5.35668  142  -1.8  100   -1.8  431   0     963.1    NA       0.0000   9999     0     0     0    
2019/11/04  12:44:00  BASE  4.26888  136  5.35668  142  -1.8  100   -1.8  430   0     963.1    NA       0.0000   9999     0     0     0    
2019/11/04  12:45:00  BASE  3.87492  134  5.35668  142  -1.8  100   -1.8  453   0     963.1    NA       0.0000   9999     0     0     0    
2019/11/04  12:46:00  BASE  3.822    129  5.35668  142  -1.8  100   -1.8  452   0     963.1    NA       0.0000   9999     0     0     0    
2019/11/04  12:47:00  BASE  4.29828  122  5.35668  142  -1.8  100   -1.8  455   0     963.1    NA       0.0000   9999     0     0     0    
2019/11/04  12:48:00  BASE  4.70988  120  5.35668  142  -1.7  100   -1.7  466   0     963.1    NA       0.0000   9999     15680 0     0    
2019/11/04  12:49:00  BASE  4.55112  124  5.35668  142  -1.6  100   -1.6  479   0     963.1    NA       0.0000   9999     0     0     0    
2019/11/04  12:50:00  BASE  4.59816  123  5.2626   118  -1.5  100   -1.5  477   0     963.1    NA       0.0000   9999     0     0     0    
2019/11/04  12:51:00  BASE  4.83336  122  5.2626   118  -1.4  100   -1.4  479   0     963.0    NA       0.0000   9999     0     0     0    
2019/11/04  12:52:00  BASE  4.52172  128  5.2626   118  -1.2  100   -1.2  470   0     963.1    NA       0.0000   9999     0     0     0    
2019/11/04  12:53:00  BASE  4.05132  130  5.2626   118  -1.1  100   -1.2  451   0     963.1    NA       0.0000   9999     0     0     0    
2019/11/04  12:54:00  BASE  3.87492  129  5.2626   118  -1.1  99    -1.2  470   0     963.1    NA       0.0000   9999     20150 0     0    
2019/11/04  12:55:00  BASE  3.98076  131  5.2626   118  -1.0  98    -1.3  485   0     963.1    NA       0.0000   9999     0     0     0    
2019/11/04  12:56:00  BASE  4.22772  131  5.2626   118  -1.0  97    -1.5  498   0     963.1    NA       0.0000   9999     21820 0     0    
2019/11/04  12:57:00  BASE  4.30416  123  5.1744   124  -1.0  95    -1.7  511   0     963.1    NA       0.0000   9999     0     0     0    
2019/11/04  12:58:00  BASE  4.21596  114  5.1744   124  -1.1  95    -1.8  515   0     963.1    NA       0.0000   9999     15620 0     0    
2019/11/04  12:59:00  BASE  4.31004  110  5.1744   124  -1.1  94    -1.9  496   0     963.0    NA       0.0000   9999     22380 0     0    
2019/11/04  13:00:00  BASE  4.6158   110  5.1744   124  -1.1  94    -1.9  506   0     962.9    NA       0.0000   9999     0     0     0    
2019/11/04  13:01:00  BASE  4.78044  109  5.02152  109  -1.0  94    -1.9  493   0     962.9    NA       0.0000   9999     0     0     0    
2019/11/04  13:02:00  BASE  4.82748  112  5.2038   117  -1.0  94    -1.9  501   0     962.9    NA       0.0000   9999     0     0     0    
2019/11/04  13:03:00  BASE  4.94508  119  5.35668  127  -0.9  93    -1.9  515   0     962.9    NA       0.0000   9999     0     0     0    
2019/11/04  13:04:00  BASE  4.88628  124  5.44488  118  -0.8  91    -2.0  525   0     962.9    NA       0.0000   9999     18930 0     0    
2019/11/04  13:05:00  BASE  4.86864  126  5.47428  133  -0.7  89    -2.3  548   0     962.9    NA       0.0000   9999     0     0     0    
2019/11/04  13:06:00  BASE  5.01564  128  5.71536  125  -0.6  86    -2.6  546   0     962.9    NA       0.0000   9999     0     0     0    
2019/11/04  13:07:00  BASE  4.88628  129  5.71536  125  -0.5  84    -2.9  556   0     962.9    NA       0.0000   9999     0     0     0    
2019/11/04  13:08:00  BASE  4.8804   130  5.71536  125  -0.4  82    -3.2  521   0     962.9    NA       0.0000   9999     0     0     0    
2019/11/04  13:09:00  BASE  5.18028  132  5.71536  125  -0.5  81    -3.4  522   0     962.9    NA       0.0000   9999     0     0     0    
2019/11/04  13:10:00  BASE  5.30376  132  5.71536  125  -0.5  80    -3.5  524   0     962.9    NA       0.0000   9999     0     0     0    
2019/11/04  13:11:00  BASE  5.26848  130  5.71536  125  -0.6  81    -3.5  527   0     962.9    NA       0.0000   9999     0     0     0    
2019/11/04  13:12:00  BASE  5.39196  130  5.80944  130  -0.6  81    -3.4  534   0     962.9    NA       0.0000   9999     0     0     0    
2019/11/04  13:13:00  BASE  5.40372  129  5.80944  130  -0.7  82    -3.3  522   0     962.9    NA       0.0000   9999     0     0     0    
2019/11/04  13:14:00  BASE  5.06856  128  5.80944  130  -0.7  82    -3.3  531   0     962.9    NA       0.0000   9999     0     0     0    
2019/11/04  13:15:00  BASE  4.83924  127  5.80944  130  -0.7  83    -3.2  523   0     962.9    NA       0.0000   9999     18010 0     0    
2019/11/04  13:16:00  BASE  4.98624  127  5.80944  130  -0.7  83    -3.2  541   0     962.9    NA       0.0000   9999     0     0     0    
2019/11/04  13:17:00  BASE  5.36256  126  6.2034   123  -0.6  82    -3.3  568   0     962.9    NA       0.0000   9999     0     0     0    
2019/11/04  13:18:00  BASE  5.70948  124  6.62676  127  -0.5  81    -3.4  577   0     962.9    NA       0.0000   9999     0     0     0    
2019/11/04  13:19:00  BASE  5.63304  124  6.62676  127  -0.4  80    -3.5  570   0     962.9    NA       0.0000   9999     13750 0     0    
2019/11/04  13:20:00  BASE  5.3214   124  6.62676  127  -0.4  78    -3.7  566   0     962.9    NA       0.0000   9999     0     0     0    
2019/11/04  13:21:00  BASE  5.21556  124  6.62676  127  -0.3  77    -3.9  555   0     962.9    NA       0.0000   9999     0     0     0    
2019/11/04  13:22:00  BASE  5.29788  125  6.62676  127  -0.3  76    -4.1  530   0     962.9    NA       0.0000   9999     0     0     0    
2019/11/04  13:23:00  BASE  5.60364  126  6.62676  127  -0.3  75    -4.2  530   0     962.9    NA       0.0000   9999     0     0     0    
2019/11/04  13:24:00  BASE  5.53308  126  6.62676  127  -0.4  75    -4.2  524   0     962.9    NA       0.0000   9999     0     0     0    
2019/11/04  13:25:00  BASE  5.18028  123  6.62676  127  -0.4  75    -4.2  542   0     962.9    NA       0.0000   9999     0     0     0    
2019/11/04  13:26:00  BASE  5.60952  117  6.68556  110  -0.3  75    -4.1  557   0     962.9    NA       0.0000   9999     0     0     0    
2019/11/04  13:27:00  BASE  6.04464  115  6.80316  118  -0.2  75    -4.1  509   0     962.9    NA       0.0000   9999     0     0     0    
2019/11/04  13:28:00  BASE  6.66204  115  7.86744  112  -0.1  75    -4.1  550   0     962.9    NA       0.0000   9999     0     0     0    
2019/11/04  13:29:00  BASE  7.1442   115  7.86744  112  0.0   74    -4.1  604   0     962.9    NA       0.0000   9999     0     0     0    
2019/11/04  13:30:00  BASE  6.63852  114  7.86744  112  0.2   72    -4.3  605   0     962.9    NA       0.0000   9999     0     0     0    
2019/11/04  13:31:00  BASE  6.00348  117  7.86744  112  0.3   70    -4.6  620   0     962.9    NA       0.0000   9999     0     0     0    
2019/11/04  13:32:00  BASE  5.57424  126  7.86744  112  0.4   68    -4.9  623   0     962.9    NA       0.0000   9999     20380 0     0    
2019/11/04  13:33:00  BASE  5.24496  133  7.86744  112  0.4   67    -5.1  576   0     962.9    NA       0.0000   9999     15130 0     0    
2019/11/04  13:34:00  BASE  4.85688  132  7.86744  112  0.3   67    -5.2  567   0     962.9    NA       0.0000   9999     0     0     0    
2019/11/04  13:35:00  BASE  4.78632  125  7.86744  112  0.1   68    -5.0  562   0     962.9    NA       0.0000   9999     0     0     0    
2019/11/04  13:36:00  BASE  5.27436  119  7.86744  112  -0.0  70    -4.8  566   0     962.9    NA       0.0000   9999     22410 0     0    
2019/11/04  13:37:00  BASE  5.32728  124  7.86744  112  -0.1  72    -4.6  538   0     962.9    NA       0.0000   9999     0     0     0    
2019/11/04  13:38:00  BASE  5.28024  131  7.2618   117  -0.1  73    -4.5  520   0     962.9    NA       0.0000   9999     0     0     0    
2019/11/04  13:39:00  BASE  5.31552  134  7.07952  118  -0.1  73    -4.4  563   0     962.9    NA       0.0000   9999     0     0     0    
2019/11/04  13:40:00  BASE  5.07444  135  6.10932  118  -0.2  73    -4.4  584   0     962.9    NA       0.0000   9999     0     0     0    
2019/11/04  13:41:00  BASE  5.21556  135  6.10932  118  -0.2  73    -4.4  563   0     962.9    NA       0.0000   9999     0     0     0    
2019/11/04  13:42:00  BASE  5.10384  133  6.10932  118  -0.3  74    -4.4  553   0     962.9    NA       0.0000   9999     0     0     0    
2019/11/04  13:43:00  BASE  4.84512  132  6.10932  118  -0.4  75    -4.3  518   0     962.9    NA       0.0000   9999     0     0     0    
2019/11/04  13:44:00  BASE  4.9098   130  6.10932  118  -0.5  76    -4.2  513   0     962.9    NA       0.0000   9999     0     0     0    
2019/11/04  13:45:00  BASE  5.05092  129  6.10932  118  -0.5  77    -4.1  539   0     962.9    NA       0.0000   9999     0     0     0    
2019/11/04  13:46:00  BASE  4.96272  127  5.78004  137  -0.6  77    -4.1  605   0     962.9    NA       0.0000   9999     0     0     0    
2019/11/04  13:47:00  BASE  5.00976  126  5.78004  137  -0.6  78    -4.0  593   0     962.9    NA       0.0000   9999     0     0     0    
2019/11/04  13:48:00  BASE  5.30964  128  5.71536  137  -0.6  78    -3.9  640   0     962.9    NA       0.0000   9999     0     0     0    
2019/11/04  13:49:00  BASE  5.23908  126  5.71536  137  -0.5  78    -4.0  667   0     962.9    NA       0.0000   9999     0     0     0    
2019/11/04  13:50:00  BASE  5.01564  125  5.71536  137  -0.4  77    -4.0  637   0     962.9    NA       0.0000   9999     0     0     0    
2019/11/04  13:51:00  BASE  4.94508  126  5.62716  132  -0.3  76    -4.1  654   0     962.9    NA       0.0000   9999     0     0     0    
2019/11/04  13:52:00  BASE  5.2626   125  5.92704  123  -0.3  74    -4.3  672   0     962.9    NA       0.0000   9999     0     0     0    
2019/11/04  13:53:00  BASE  5.59188  122  6.16812  126  -0.2  73    -4.4  657   0     962.9    NA       0.0000   9999     0     0     0    
2019/11/04  13:54:00  BASE  5.49192  122  6.16812  126  -0.1  71    -4.6  652   0     962.9    NA       0.0000   9999     0     0     0    
2019/11/04  13:55:00  BASE  5.48016  124  6.16812  126  0.1   69    -4.9  658   0     962.9    NA       0.0000   9999     0     0     0    
2019/11/04  13:56:00  BASE  5.74476  124  6.2034   126  0.2   68    -5.1  676   0     962.9    NA       0.0000   9999     18600 0     0    
2019/11/04  13:57:00  BASE  5.98584  121  6.50328  127  0.3   66    -5.2  635   0     962.9    NA       0.0000   9999     0     0     0    
2019/11/04  13:58:00  BASE  6.36804  118  7.19712  118  0.4   65    -5.4  643   0     962.9    NA       0.0000   9999     17880 0     0    
2019/11/04  13:59:00  BASE  6.53268  116  7.19712  118  0.5   64    -5.6  661   0     962.9    NA       0.0000   9999     0     0     0    
2019/11/04  14:00:00  BASE  5.98584  114  7.19712  118  0.5   63    -5.7  706   0     962.9    NA       0.0000   9999     21060 0     0    
2019/11/04  14:01:00  BASE  5.50368  115  7.19712  118  0.5   63    -5.8  686   0     962.9    NA       0.0000   9999     0     0     0    
2019/11/04  14:02:00  BASE  5.30964  115  7.19712  118  0.6   62    -5.9  683   0     962.9    NA       0.0000   9999     0     0     0    
2019/11/04  14:03:00  BASE  5.10384  114  7.19712  118  0.7   61    -6.0  704   0     962.9    NA       0.0000   9999     0     0     0    
2019/11/04  14:04:00  BASE  4.85688  115  7.19712  118  0.7   61    -6.1  727   0     962.9    NA       0.0000   9999     0     0     0    
2019/11/04  14:05:00  BASE  4.81572  115  7.19712  118  0.7   61    -6.1  767   0     962.9    NA       0.0000   9999     0     0     0    
2019/11/04  14:06:00  BASE  5.13912  115  7.19712  118  0.7   61    -6.0  807   0     962.9    NA       0.0000   9999     0     0     0    
2019/11/04  14:07:00  BASE  5.37432  117  7.19712  118  0.7   61    -5.9  807   0     962.9    NA       0.0000   9999     0     0     0    
2019/11/04  14:08:00  BASE  5.20968  118  6.92664  112  0.7   61    -5.9  803   0     962.9    NA       0.0000   9999     0     0     0    
2019/11/04  14:09:00  BASE  4.97448  116  6.02112  112  0.7   61    -5.9  801   0     962.9    NA       0.0000   9999     0     0     0    
2019/11/04  14:10:00  BASE  5.18616  117  5.86824  120  0.8   61    -5.8  799   0     962.9    NA       0.0000   9999     0     0     0    
2019/11/04  14:11:00  BASE  5.42136  120  5.86824  120  0.8   61    -5.8  796   0     962.9    NA       0.0000   9999     0     0     0    
2019/11/04  14:12:00  BASE  5.62716  121  6.02112  120  0.8   61    -5.9  796   0     962.9    NA       0.0000   9999     0     0     0    
2019/11/04  14:13:00  BASE  5.78592  120  6.07992  119  0.8   61    -5.9  799   0     962.9    NA       0.0000   9999     0     0     0    
2019/11/04  14:14:00  BASE  5.7036   121  6.07992  119  0.8   61    -5.9  797   0     962.9    NA       0.0000   9999     0     0     0    
2019/11/04  14:15:00  BASE  5.733    121  6.07992  119  0.8   60    -6.0  792   0     962.9    NA       0.0000   9999     0     0     0    
2019/11/04  14:16:00  BASE  5.88     124  6.13872  127  0.9   60    -6.1  788   0     962.9    NA       0.0000   9999     0     0     0    
2019/11/04  14:17:00  BASE  5.79768  127  6.13872  127  0.9   59    -6.3  784   0     962.9    NA       0.0000   9999     0     0     0    
2019/11/04  14:18:00  BASE  5.50368  129  6.13872  127  0.9   58    -6.4  781   0     962.9    NA       0.0000   9999     0     0     0    
2019/11/04  14:19:00  BASE  5.10384  132  6.13872  127  0.9   58    -6.4  782   0     962.9    NA       0.0000   9999     0     0     0    
2019/11/04  14:20:00  BASE  4.86276  135  6.13872  127  0.9   59    -6.3  782   0     962.9    NA       0.0000   9999     0     0     0    
2019/11/04  14:21:00  BASE  4.69224  138  6.13872  127  0.8   60    -6.1  781   0     962.9    NA       0.0000   9999     0     0     0    
2019/11/04  14:22:00  BASE  4.63932  137  6.13872  127  0.7   61    -5.9  779   0     962.9    NA       0.0000   9999     22610 0     0    
2019/11/04  14:23:00  BASE  4.9098   135  6.13872  127  0.6   63    -5.6  777   0     962.9    NA       0.0000   9999     0     0     0    
2019/11/04  14:24:00  BASE  5.01564  131  6.13872  127  0.5   64    -5.4  775   0     962.9    NA       0.0000   9999     0     0     0    
2019/11/04  14:25:00  BASE  5.15088  129  6.13872  127  0.5   65    -5.3  772   0     962.9    NA       0.0000   9999     0     0     0    
2019/11/04  14:26:00  BASE  5.3214   130  5.92704  130  0.5   65    -5.3  770   0     962.9    NA       0.0000   9999     0     0     0    
2019/11/04  14:27:00  BASE  5.56248  129  6.59148  125  0.6   65    -5.3  766   0     962.9    NA       0.0000   9999     0     0     0    
2019/11/04  14:28:00  BASE  5.98584  123  7.19712  114  0.6   64    -5.4  764   0     962.9    NA       0.0000   9999     0     0     0    
2019/11/04  14:29:00  BASE  6.37392  117  7.19712  114  0.7   63    -5.5  760   0     962.9    NA       0.0000   9999     18470 0     0    
2019/11/04  14:30:00  BASE  6.33864  115  7.19712  114  0.9   62    -5.7  756   0     962.9    NA       0.0000   9999     0     0     0    
2019/11/04  14:31:00  BASE  6.33864  118  7.19712  114  1.0   60    -5.9  750   0     962.9    NA       0.0000   9999     0     0     0    
2019/11/04  14:32:00  BASE  6.42684  125  7.19712  114  1.1   58    -6.2  747   0     962.9    NA       0.0000   9999     0     0     0    
2019/11/04  14:33:00  BASE  6.10932  129  7.19712  114  1.2   57    -6.5  745   0     962.9    NA       0.0000   9999     0     0     0    
2019/11/04  14:34:00  BASE  5.56836  131  7.19712  114  1.3   55    -6.7  743   0     962.9    NA       0.0000   9999     0     0     0    
2019/11/04  14:35:00  BASE  5.13324  132  7.19712  114  1.2   55    -6.8  741   0     962.9    NA       0.0000   9999     0     0     0    
2019/11/04  14:36:00  BASE  5.15088  132  7.19712  114  1.2   55    -6.8  738   0     962.9    NA       0.0000   9999     0     0     0    
2019/11/04  14:37:00  BASE  5.18616  131  7.19712  114  1.2   55    -6.9  735   0     962.9    NA       0.0000   9999     0     0     0    
2019/11/04  14:38:00  BASE  5.19204  128  7.05012  114  1.2   55    -7.0  737   0     962.9    NA       0.0000   9999     0     0     0    
2019/11/04  14:39:00  BASE  5.20968  128  6.95604  116  1.2   54    -7.0  736   0     962.9    NA       0.0000   9999     0     0     0    
2019/11/04  14:40:00  BASE  5.15676  130  6.92664  127  1.2   54    -7.2  735   0     962.9    NA       0.0000   9999     0     0     0    
2019/11/04  14:41:00  BASE  5.145    130  6.83844  135  1.3   53    -7.2  736   0     962.9    NA       0.0000   9999     0     0     0    
2019/11/04  14:42:00  BASE  5.09208  130  6.3798   133  1.3   53    -7.2  735   0     962.9    NA       0.0000   9999     0     0     0    
2019/11/04  14:43:00  BASE  5.10972  130  5.80944  135  1.2   54    -7.1  734   0     962.9    NA       0.0000   9999     0     0     0    
2019/11/04  14:44:00  BASE  5.5272   129  6.321    128  1.2   55    -7.0  734   0     962.9    NA       0.0000   9999     0     0     0    
2019/11/04  14:45:00  BASE  6.06816  126  6.53268  130  1.1   55    -6.8  735   0     962.9    NA       0.0000   9999     0     0     0    
2019/11/04  14:46:00  BASE  6.34452  126  6.86784  126  1.1   56    -6.7  735   0     962.9    NA       0.0000   9999     0     0     0    
2019/11/04  14:47:00  BASE  6.22104  126  6.86784  126  1.1   56    -6.7  734   0     962.9    NA       0.0000   9999     0     0     0    
2019/11/04  14:48:00  BASE  6.10344  124  6.86784  126  1.1   56    -6.7  732   0     962.9    NA       0.0000   9999     0     0     0    
2019/11/04  14:49:00  BASE  6.22692  123  6.86784  126  1.1   55    -6.9  732   0     962.9    NA       0.0000   9999     0     0     0    
2019/11/04  14:50:00  BASE  6.23868  124  6.86784  126  1.2   55    -7.0  731   0     962.9    NA       0.0000   9999     0     0     0    
2019/11/04  14:51:00  BASE  6.10932  124  6.86784  126  1.2   54    -7.1  732   0     962.9    NA       0.0000   9999     0     0     0    
2019/11/04  14:52:00  BASE  5.9682   123  6.86784  126  1.2   54    -7.1  732   0     962.9    NA       0.0000   9999     0     0     0    
2019/11/04  14:53:00  BASE  6.07404  123  6.86784  126  1.2   54    -7.1  733   0     962.9    NA       0.0000   9999     0     0     0    
2019/11/04  14:54:00  BASE  6.33864  124  7.05012  126  1.2   54    -7.2  735   0     962.9    NA       0.0000   9999     0     0     0    
2019/11/04  14:55:00  BASE  6.56208  126  7.3206   128  1.2   53    -7.2  735   0     962.9    NA       0.0000   9999     0     0     0    
2019/11/04  14:56:00  BASE  6.51504  127  7.3206   128  1.2   53    -7.3  735   0     962.9    NA       0.0000   9999     0     0     0    
2019/11/04  14:57:00  BASE  6.30924  127  7.3206   128  1.2   53    -7.3  735   0     962.9    NA       0.0000   9999     0     0     0    
2019/11/04  14:58:00  BASE  6.00936  127  7.3206   128  1.2   53    -7.3  735   0     962.9    NA       0.0000   9999     0     0     0    
2019/11/04  14:59:00  BASE  5.8506   128  7.3206   128  1.3   53    -7.3  735   0     962.9    NA       0.0000   9999     0     0     0    
2019/11/04  15:00:00  BASE  5.9388   130  7.3206   128  1.3   53    -7.3  735   0     962.9    NA       0.0000   9999     0     0     0    
2019/11/04  15:01:00  BASE  6.03876  132  7.3206   128  1.3   53    -7.2  735   0     962.9    NA       0.0000   9999     0     0     0    
2019/11/04  15:02:00  BASE  6.19164  132  7.3206   128  1.2   54    -7.1  734   0     962.9    NA       0.0000   9999     0     0     0    
2019/11/04  15:03:00  BASE  6.16224  133  7.3206   128  1.2   54    -7.1  734   0     962.9    NA       0.0000   9999     0     0     0    
2019/11/04  15:04:00  BASE  6.20928  132  7.3206   128  1.2   54    -7.0  734   0     962.9    NA       0.0000   9999     0     0     0    
2019/11/04  15:05:00  BASE  6.39156  131  6.98544  129  1.2   54    -7.0  734   0     962.9    NA       0.0000   9999     0     0     0    
2019/11/04  15:06:00  BASE  6.33864  131  6.98544  129  1.2   54    -7.1  734   0     962.9    NA       0.0000   9999     0     0     0    
2019/11/04  15:07:00  BASE  6.23868  131  6.98544  129  1.2   54    -7.2  735   0     962.9    NA       0.0000   9999     0     0     0    
2019/11/04  15:08:00  BASE  6.2916   129  7.05012  125  1.2   54    -7.2  734   0     962.9    NA       0.0000   9999     0     0     0    
2019/11/04  15:09:00  BASE  6.4092   129  7.05012  125  1.2   54    -7.2  734   0     962.9    NA       0.0000   9999     0     0     0    
2019/11/04  15:10:00  BASE  6.47388  127  7.05012  125  1.1   54    -7.2  734   0     962.9    NA       0.0000   9999     0     0     0    
2019/11/04  15:11:00  BASE  6.1446   127  7.05012  125  1.1   54    -7.2  734   0     962.9    NA       0.0000   9999     0     0     0    
2019/11/04  15:12:00  BASE  6.0858   129  7.05012  130  1.1   54    -7.1  734   0     962.9    NA       0.0000   9999     0     0     0    
2019/11/04  15:13:00  BASE  6.40332  131  7.05012  130  1.1   54    -7.1  735   0     962.9    NA       0.0000   9999     0     0     0    
2019/11/04  15:14:00  BASE  6.3504   134  7.05012  130  1.1   54    -7.2  735   0     962.9    NA       0.0000   9999     0     0     0    
2019/11/04  15:15:00  BASE  6.45624  132  7.3206   132  1.1   54    -7.2  734   0     962.9    NA       0.0000   9999     0     0     0    
2019/11/04  15:16:00  BASE  6.26808  132  7.3206   132  1.1   54    -7.1  735   0     962.9    NA       0.0000   9999     0     0     0    
2019/11/04  15:17:00  BASE  6.27984  130  7.3206   132  1.1   54    -7.1  735   0     962.9    NA       0.0000   9999     0     0     0    
2019/11/04  15:18:00  BASE  6.615    122  7.3206   132  1.1   55    -7.1  735   0     962.9    NA       0.0000   9999     0     0     0    
2019/11/04  15:19:00  BASE  6.51504  118  7.3206   132  1.1   55    -7.0  735   0     962.9    NA       0.0000   9999     0     0     0    
2019/11/04  15:20:00  BASE  6.7326   122  7.89684  133  1.1   55    -7.0  735   0     962.9    NA       0.0000   9999     0     0     0    
2019/11/04  15:21:00  BASE  6.91488  127  7.89684  133  1.1   55    -7.1  735   0     962.9    NA       0.0000   9999     0     0     0    
2019/11/04  15:22:00  BASE  6.615    128  7.89684  133  1.1   54    -7.2  735   0     962.9    NA       0.0000   9999     0     0     0    
2019/11/04  15:23:00  BASE  6.35628  129  7.89684  133  1.1   54    -7.2  736   0     962.9    NA       0.0000   9999     0     0     0    
2019/11/04  15:24:00  BASE  6.25044  131  7.89684  133  1.0   55    -7.1  736   0     962.9    NA       0.0000   9999     0     0     0    
2019/11/04  15:25:00  BASE  6.29748  129  7.89684  133  1.0   55    -7.1  737   0     962.9    NA       0.0000   9999     0     0     0    
2019/11/04  15:26:00  BASE  6.4974   124  7.89684  133  1.0   55    -7.1  737   0     962.9    NA       0.0000   9999     0     0     0    
2019/11/04  15:27:00  BASE  6.51504  119  7.89684  133  1.0   54    -7.2  736   0     962.9    NA       0.0000   9999     0     0     0    
2019/11/04  15:28:00  BASE  6.25044  118  7.89684  133  1.0   54    -7.2  736   0     962.9    NA       0.0000   9999     0     0     0    
2019/11/04  15:29:00  BASE  6.0858   120  7.89684  133  1.0   54    -7.1  737   0     962.9    NA       0.0000   9999     0     0     0    
2019/11/04  15:30:00  BASE  6.38568  123  7.47348  121  1.1   54    -7.2  737   0     962.9    NA       0.0000   9999     0     0     0    
2019/11/04  15:31:00  BASE  6.47976  124  7.47348  121  1.1   54    -7.2  737   0     962.9    NA       0.0000   9999     0     0     0    
2019/11/04  15:32:00  BASE  6.32688  123  7.47348  121  1.1   54    -7.2  738   0     962.8    NA       0.0000   9999     0     0     0    
2019/11/04  15:33:00  BASE  6.321    121  7.47348  121  1.1   54    -7.3  738   0     962.8    NA       0.0000   9999     0     0     0    
2019/11/04  15:34:00  BASE  6.00348  117  7.47348  121  1.1   53    -7.3  738   0     962.9    NA       0.0000   9999     0     0     0    
2019/11/04  15:35:00  BASE  5.65656  115  7.47348  121  1.1   53    -7.3  738   0     962.9    NA       0.0000   9999     0     0     0    
2019/11/04  15:36:00  BASE  5.63304  112  7.2912   124  1.1   54    -7.2  738   0     962.9    NA       0.0000   9999     0     0     0    
2019/11/04  15:37:00  BASE  5.31552  108  7.2912   124  1.1   54    -7.1  738   0     962.9    NA       0.0000   9999     0     0     0    
2019/11/04  15:38:00  BASE  4.9392   107  7.2912   124  1.1   55    -6.9  739   0     962.9    NA       0.0000   9999     0     0     0    
2019/11/04  15:39:00  BASE  4.9098   112  7.2912   124  1.1   56    -6.6  739   0     962.9    NA       0.0000   9999     0     0     0    
2019/11/04  15:40:00  BASE  5.13912  116  6.89724  120  1.1   57    -6.5  740   0     962.9    NA       0.0000   9999     0     0     0    
2019/11/04  15:41:00  BASE  5.145    116  6.80316  124  1.1   57    -6.5  739   0     962.9    NA       0.0000   9999     0     0     0    
2019/11/04  15:42:00  BASE  5.2626   119  6.59148  121  1.1   57    -6.5  740   0     962.9    NA       0.0000   9999     0     0     0    
2019/11/04  15:43:00  BASE  5.8506   125  6.59148  130  1.2   55    -6.8  740   0     962.9    NA       0.0000   9999     0     0     0    
2019/11/04  15:44:00  BASE  5.95644  127  6.59148  130  1.3   54    -7.1  740   0     962.9    NA       0.0000   9999     0     0     0    
2019/11/04  15:45:00  BASE  6.10932  127  6.74436  130  1.3   53    -7.2  740   0     962.9    NA       0.0000   9999     0     0     0    
2019/11/04  15:46:00  BASE  6.45624  124  7.07952  127  1.3   53    -7.3  740   0     962.9    NA       0.0000   9999     0     0     0    
2019/11/04  15:47:00  BASE  6.62676  122  7.16772  119  1.3   53    -7.3  740   0     962.9    NA       0.0000   9999     0     0     0    
2019/11/04  15:48:00  BASE  6.72084  122  7.16772  119  1.3   53    -7.3  680   0     962.9    NA       0.0000   9999     0     0     0    
2019/11/04  15:49:00  BASE  6.4974   121  7.16772  119  1.3   53    -7.3  523   0     962.9    NA       0.0000   9999     0     0     0    
2019/11/04  15:50:00  BASE  6.16812  120  7.16772  119  1.4   52    -7.5  674   0     962.9    NA       0.0000   9999     0     0     0    
2019/11/04  15:51:00  BASE  5.78004  120  7.16772  119  1.5   51    -7.6  741   0     962.9    NA       0.0000   9999     0     0     0    
2019/11/04  15:52:00  BASE  5.49192  122  7.16772  119  1.5   50    -7.8  741   0     962.9    NA       0.0000   9999     0     0     0    
2019/11/04  15:53:00  BASE  5.56248  120  7.16772  119  1.5   50    -7.9  741   0     962.9    NA       0.0000   9999     0     0     0    
2019/11/04  15:54:00  BASE  5.78592  118  7.16772  119  1.5   49    -8.0  741   0     962.9    NA       0.0000   9999     0     0     0    
2019/11/04  15:55:00  BASE  5.92704  119  7.16772  119  1.5   49    -8.0  741   0     962.9    NA       0.0000   9999     0     0     0    
2019/11/04  15:56:00  BASE  5.93292  122  7.16772  119  1.5   50    -8.0  741   0     962.9    NA       0.0000   9999     0     0     0    
2019/11/04  15:57:00  BASE  5.66244  121  7.07952  119  1.4   50    -8.0  741   0     962.9    NA       0.0000   9999     0     0     0    
2019/11/04  15:58:00  BASE  5.49192  122  6.80316  122  1.4   49    -8.0  741   0     962.9    NA       0.0000   9999     0     0     0    
2019/11/04  15:59:00  BASE  5.586    125  6.80316  122  1.5   49    -8.1  740   0     962.9    NA       0.0000   9999     0     0     0    
2019/11/04  16:00:00  BASE  5.55072  125  6.2622   124  1.5   49    -8.1  741   0     962.9    NA       0.0000   9999     0     0     0    
2019/11/04  16:01:00  BASE  5.5566   124  6.2622   124  1.5   48    -8.2  741   0     962.9    NA       0.0000   9999     0     0     0    
2019/11/04  16:02:00  BASE  5.28612  123  6.2622   124  1.6   48    -8.3  741   0     962.9    NA       0.0000   9999     0     0     0    
2019/11/04  16:03:00  BASE  5.20968  121  6.56208  109  1.6   47    -8.4  741   0     962.9    NA       0.0000   9999     0     0     0    
2019/11/04  16:04:00  BASE  5.69184  120  6.56208  109  1.6   47    -8.5  741   0     962.9    NA       0.0000   9999     0     0     0    
2019/11/04  16:05:00  BASE  6.3504   120  7.4088   124  1.7   46    -8.7  740   0     962.9    NA       0.0000   9999     0     0     0    
2019/11/04  16:06:00  BASE  6.45624  121  7.4088   124  1.7   46    -8.8  740   0     962.9    NA       0.0000   9999     0     0     0    
2019/11/04  16:07:00  BASE  6.28572  120  7.4088   124  1.8   45    -8.8  741   0     962.9    NA       0.0000   9999     0     0     0    
2019/11/04  16:08:00  BASE  6.5268   118  7.4088   124  1.7   46    -8.8  741   0     962.9    NA       0.0000   9999     0     0     0    
2019/11/04  16:09:00  BASE  6.70908  120  7.4088   124  1.7   46    -8.7  740   0     962.9    NA       0.0000   9999     0     0     0    
2019/11/04  16:10:00  BASE  6.53856  124  7.4088   124  1.7   46    -8.7  741   0     962.9    NA       0.0000   9999     0     0     0    
2019/11/04  16:11:00  BASE  6.18576  123  7.4088   124  1.7   46    -8.7  739   0     962.5    NA       0.0000   9999     0     0     0    
2019/11/04  16:12:00  BASE  5.86824  121  7.4088   124  1.7   46    -8.6  740   0     962.9    NA       0.0000   9999     0     0     0    
2019/11/04  16:13:00  BASE  5.72712  121  7.4088   124  1.7   46    -8.6  740   0     962.9    NA       0.0000   9999     0     0     0    
2019/11/04  16:14:00  BASE  6.01524  123  7.4088   124  1.7   46    -8.7  739   0     962.9    NA       0.0000   9999     0     0     0    
2019/11/04  16:15:00  BASE  6.1446   123  7.2912   127  1.7   46    -8.7  740   0     962.9    NA       0.0000   9999     0     0     0    
2019/11/04  16:16:00  BASE  6.37392  119  7.2912   127  1.7   46    -8.7  739   0     962.9    NA       0.0000   9999     0     0     0    
2019/11/04  16:17:00  BASE  6.43272  118  7.2912   127  1.8   46    -8.7  739   0     962.9    NA       0.0000   9999     0     0     0    
2019/11/04  16:18:00  BASE  6.12108  116  7.2912   127  1.8   46    -8.6  739   0     962.9    NA       0.0000   9999     0     0     0    
2019/11/04  16:19:00  BASE  6.48564  116  7.07952  117  1.8   46    -8.6  739   0     962.9    NA       0.0000   9999     0     0     0    
2019/11/04  16:20:00  BASE  6.73848  117  7.07952  117  1.7   46    -8.6  739   0     962.9    NA       0.0000   9999     0     0     0    
2019/11/04  16:21:00  BASE  6.65028  119  7.07952  124  1.8   46    -8.6  739   0     962.9    NA       0.0000   9999     0     0     0    
2019/11/04  16:22:00  BASE  6.68556  122  7.07952  124  1.7   46    -8.5  739   0     962.9    NA       0.0000   9999     0     0     0    
2019/11/04  16:23:00  BASE  6.69144  123  7.13832  123  1.7   46    -8.7  738   0     962.9    NA       0.0000   9999     0     0     0    
2019/11/04  16:24:00  BASE  6.76788  121  7.13832  123  1.8   46    -8.8  738   0     962.9    NA       0.0000   9999     0     0     0    
2019/11/04  16:25:00  BASE  6.8502   119  7.2912   117  1.7   46    -8.8  738   0     962.9    NA       0.0000   9999     0     0     0    
2019/11/04  16:26:00  BASE  6.65028  117  7.2912   117  1.7   45    -8.8  737   0     962.9    NA       0.0000   9999     0     0     0    
2019/11/04  16:27:00  BASE  6.43272  118  7.2912   117  1.8   45    -8.9  737   0     962.9    NA       0.0000   9999     0     0     0    
2019/11/04  16:28:00  BASE  6.027    117  7.2912   117  1.8   45    -8.9  738   0     962.9    NA       0.0000   9999     0     0     0    
2019/11/04  16:29:00  BASE  5.40372  114  7.2912   117  1.8   45    -9.0  737   0     962.9    NA       0.0000   9999     0     0     0    
2019/11/04  16:30:00  BASE  5.33316  114  7.2912   117  1.8   44    -9.0  737   0     962.9    NA       0.0000   9999     0     0     0    
2019/11/04  16:31:00  BASE  5.56836  113  7.2912   117  1.8   44    -9.0  736   0     962.9    NA       0.0000   9999     0     0     0    
2019/11/04  16:32:00  BASE  5.78004  113  7.2912   117  1.8   44    -9.1  736   0     962.9    NA       0.0000   9999     0     0     0    
2019/11/04  16:33:00  BASE  5.95056  117  7.2912   117  1.9   44    -9.0  736   0     962.9    NA       0.0000   9999     0     0     0    
2019/11/04  16:34:00  BASE  5.91528  118  7.2912   117  1.9   44    -9.1  735   0     962.9    NA       0.0000   9999     0     0     0    
2019/11/04  16:35:00  BASE  5.439    121  7.05012  121  1.9   43    -9.3  735   0     962.5    NA       0.0000   9999     0     0     0    
2019/11/04  16:36:00  BASE  4.93332  123  7.05012  121  2.0   43    -9.4  735   0     962.6    NA       0.0000   9999     0     0     0    
2019/11/04  16:37:00  BASE  4.65696  121  6.3504   118  2.0   43    -9.4  734   0     962.5    NA       0.0000   9999     0     0     0    
2019/11/04  16:38:00  BASE  4.47468  121  6.3504   118  2.0   42    -9.5  734   0     962.9    NA       0.0000   9999     0     0     0    
2019/11/04  16:39:00  BASE  4.56288  121  6.3504   118  1.9   43    -9.4  734   0     962.9    NA       0.0000   9999     0     0     0    
2019/11/04  16:40:00  BASE  4.88628  121  6.3504   118  1.9   44    -9.1  733   0     962.9    NA       0.0000   9999     0     0     0    
2019/11/04  16:41:00  BASE  5.03328  124  6.3504   118  1.8   45    -9.0  732   0     962.8    NA       0.0000   9999     0     0     0    
2019/11/04  16:42:00  BASE  4.75104  125  6.3504   118  1.8   45    -8.8  731   0     962.9    NA       0.0000   9999     0     0     0    
2019/11/04  16:43:00  BASE  4.51584  124  6.13872  117  1.8   46    -8.7  731   0     962.9    NA       0.0000   9999     0     0     0    
2019/11/04  16:44:00  BASE  4.8804   124  5.53308  125  1.7   46    -8.7  731   0     962.9    NA       0.0000   9999     0     0     0    
2019/11/04  16:45:00  BASE  4.92156  124  5.53308  125  1.8   46    -8.8  731   0     962.9    NA       0.0000   9999     0     0     0    
2019/11/04  16:46:00  BASE  4.9098   125  5.62716  128  1.7   46    -8.8  730   0     962.9    NA       0.0000   9999     0     0     0    
2019/11/04  16:47:00  BASE  5.13912  122  5.92704  116  1.7   45    -8.8  730   0     962.6    NA       0.0000   9999     0     0     0    
2019/11/04  16:48:00  BASE  5.28612  118  6.05052  119  1.8   45    -9.0  729   0     962.9    NA       0.0000   9999     0     0     0    
2019/11/04  16:49:00  BASE  5.39784  119  6.05052  119  1.8   44    -9.2  729   0     962.9    NA       0.0000   9999     0     0     0    
2019/11/04  16:50:00  BASE  5.22144  121  6.05052  119  1.9   43    -9.3  728   0     962.9    NA       0.0000   9999     0     0     0    
2019/11/04  16:51:00  BASE  5.05092  120  6.05052  119  1.9   43    -9.4  728   0     962.9    NA       0.0000   9999     0     0     0    
2019/11/04  16:52:00  BASE  4.9686   122  6.05052  119  1.9   43    -9.5  727   0     962.9    NA       0.0000   9999     0     0     0    
2019/11/04  16:53:00  BASE  5.02152  124  6.05052  119  1.9   43    -9.5  727   0     962.9    NA       0.0000   9999     0     0     0    
2019/11/04  16:54:00  BASE  4.9686   125  6.05052  119  1.9   43    -9.4  726   0     962.9    NA       0.0000   9999     0     0     0    
2019/11/04  16:55:00  BASE  4.7334   126  6.05052  119  1.9   43    -9.4  726   0     962.9    NA       0.0000   9999     0     0     0    
2019/11/04  16:56:00  BASE  4.42764  124  6.05052  119  1.8   43    -9.3  725   0     962.9    NA       0.0000   9999     0     0     0    
2019/11/04  16:57:00  BASE  4.28064  122  6.05052  119  1.8   43    -9.4  725   0     962.9    NA       0.0000   9999     0     0     0    
2019/11/04  16:58:00  BASE  4.06308  122  5.68596  125  1.8   44    -9.3  724   0     962.9    NA       0.0000   9999     0     0     0    
2019/11/04  16:59:00  BASE  3.71028  122  5.68596  125  1.7   44    -9.1  723   0     962.9    NA       0.0000   9999     0     0     0    
2019/11/04  17:00:00  BASE  3.6456   120  5.41548  121  1.7   45    -9.0  723   0     962.9    NA       0.0000   9999     0     0     0    
2019/11/04  17:01:00  BASE  3.57504  120  5.41548  121  1.7   45    -9.0  722   0     962.9    NA       0.0000   9999     0     0     0    
2019/11/04  17:02:00  BASE  3.4398   123  5.292    126  1.6   46    -8.9  721   0     962.9    NA       0.0000   9999     0     0     0    
2019/11/04  17:03:00  BASE  3.38688  123  5.145    127  1.6   46    -8.8  720   0     962.6    NA       0.0000   9999     0     0     0    
2019/11/04  17:04:00  BASE  3.28692  122  4.83924  125  1.6   46    -8.7  720   0     962.9    NA       0.0000   9999     0     0     0    
2019/11/04  17:05:00  BASE  3.528    120  4.53936  120  1.6   46    -8.7  720   0     962.9    NA       0.0000   9999     0     0     0    
2019/11/04  17:06:00  BASE  4.02192  117  4.53936  120  1.6   46    -8.7  719   0     962.9    NA       0.0000   9999     0     0     0    
2019/11/04  17:07:00  BASE  4.18656  115  4.41588  119  1.7   46    -8.7  718   0     962.8    NA       0.0000   9999     0     0     0    
2019/11/04  17:08:00  BASE  3.98664  113  4.41588  119  1.7   45    -8.9  717   0     962.8    NA       0.0000   9999     0     0     0    
2019/11/04  17:09:00  BASE  3.75732  112  4.41588  119  1.8   45    -9.0  717   0     962.8    NA       0.0000   9999     0     0     0    
2019/11/04  17:10:00  BASE  3.72204  112  4.41588  119  1.8   44    -9.2  716   0     962.8    NA       0.0000   9999     0     0     0    
2019/11/04  17:11:00  BASE  3.7044   112  4.41588  119  1.9   43    -9.3  715   0     962.8    NA       0.0000   9999     0     0     0    
2019/11/04  17:12:00  BASE  3.7044   113  4.41588  119  2.0   43    -9.4  715   0     962.8    NA       0.0000   9999     0     0     0    
2019/11/04  17:13:00  BASE  3.83376  114  4.41588  119  2.0   43    -9.4  714   0     962.8    NA       0.0000   9999     0     0     0    
2019/11/04  17:14:00  BASE  3.89844  113  4.41588  119  2.1   42    -9.5  713   0     962.8    NA       0.0000   9999     0     0     0    
2019/11/04  17:15:00  BASE  3.7632   113  4.38648  114  2.1   42    -9.5  713   0     962.8    NA       0.0000   9999     0     0     0    
2019/11/04  17:16:00  BASE  3.61032  113  4.38648  114  2.2   42    -9.6  712   0     962.8    NA       0.0000   9999     0     0     0    
2019/11/04  17:17:00  BASE  3.47508  112  4.116    112  2.2   41    -9.7  711   0     962.8    NA       0.0000   9999     0     0     0    
2019/11/04  17:18:00  BASE  3.28104  114  4.116    112  2.3   41    -9.8  710   0     962.8    NA       0.0000   9999     0     0     0    
2019/11/04  17:19:00  BASE  3.12228  114  4.116    112  2.3   41    -9.8  710   0     962.8    NA       0.0000   9999     0     0     0    
2019/11/04  17:20:00  BASE  3.31044  115  4.116    112  2.3   41    -9.7  709   0     962.7    NA       0.0000   9999     0     0     0    
2019/11/04  17:21:00  BASE  3.65736  114  4.116    112  2.3   40    -9.8  708   0     962.4    NA       0.0000   9999     0     0     0    
2019/11/04  17:22:00  BASE  3.59268  112  4.116    112  2.3   41    -9.7  707   0     962.8    NA       0.0000   9999     0     0     0    
2019/11/04  17:23:00  BASE  3.27516  110  3.96312  113  2.3   41    -9.5  706   0     962.8    NA       0.0000   9999     0     0     0    
2019/11/04  17:24:00  BASE  2.92236  106  3.93372  114  2.2   42    -9.5  706   0     962.8    NA       0.0000   9999     0     0     0    
2019/11/04  17:25:00  BASE  2.52252  102  3.90432  115  2.2   42    -9.5  705   0     962.8    NA       0.0000   9999     0     0     0    
2019/11/04  17:26:00  BASE  2.06976  99   3.90432  115  2.3   42    -9.2  705   0     962.8    NA       0.0000   9999     0     0     0    
2019/11/04  17:27:00  BASE  1.74048  87   3.90432  115  2.3   43    -8.9  703   0     962.8    NA       0.0000   9999     0     0     0    
2019/11/04  17:28:00  BASE  1.19952  32   3.90432  115  2.4   44    -8.6  703   0     962.8    NA       0.0000   9999     0     0     0    
2019/11/04  17:29:00  BASE  1.12308  334  3.90432  115  2.5   46    -8.0  702   0     962.8    NA       0.0000   9999     0     0     0    
2019/11/04  17:30:00  BASE  1.61112  325  3.90432  115  2.4   49    -7.4  702   0     962.7    NA       0.0000   9999     0     0     0    
2019/11/04  17:31:00  BASE  1.64052  327  3.59856  112  2.3   51    -6.8  701   0     962.8    NA       0.0000   9999     0     0     0    
2019/11/04  17:32:00  BASE  1.911    331  3.26928  109  2.2   53    -6.4  700   0     962.8    NA       0.0000   9999     0     0     0    
2019/11/04  17:33:00  BASE  2.1756   331  3.1752   337  2.1   55    -6.0  699   0     962.8    NA       0.0000   9999     0     0     0    
2019/11/04  17:34:00  BASE  2.12268  329  3.1752   337  2.1   55    -6.0  698   0     962.8    NA       0.0000   9999     0     0     0    
2019/11/04  17:35:00  BASE  1.94628  326  3.1752   337  2.2   53    -6.4  698   0     962.8    NA       0.0000   9999     0     0     0    
2019/11/04  17:36:00  BASE  1.84632  324  3.1752   337  2.3   51    -6.9  697   0     962.8    NA       0.0000   9999     0     0     0    
2019/11/04  17:37:00  BASE  1.80516  327  3.1752   337  2.4   48    -7.5  696   0     962.8    NA       0.0000   9999     0     0     0    
2019/11/04  17:38:00  BASE  1.82868  331  3.1752   337  2.5   47    -7.8  695   0     962.8    NA       0.0000   9999     0     0     0    
2019/11/04  17:39:00  BASE  1.911    328  3.1752   337  2.5   47    -7.7  694   0     962.8    NA       0.0000   9999     0     0     0    
2019/11/04  17:40:00  BASE  1.71696  333  3.1752   337  2.5   48    -7.4  693   0     962.8    NA       0.0000   9999     0     0     0    
2019/11/04  17:41:00  BASE  1.44648  327  3.1752   337  2.4   50    -7.1  692   0     962.8    NA       0.0000   9999     0     0     0    
2019/11/04  17:42:00  BASE  1.43472  308  2.72244  326  2.2   52    -6.6  691   0     962.8    NA       0.0000   9999     0     0     0    
2019/11/04  17:43:00  BASE  1.65816  308  2.72244  326  2.1   54    -6.3  690   0     962.8    NA       0.0000   9999     0     0     0    
2019/11/04  17:44:00  BASE  1.86396  319  2.38728  314  2.0   55    -6.1  689   0     962.6    NA       0.0000   9999     0     0     0    
2019/11/04  17:45:00  BASE  1.96392  318  2.59896  320  2.0   56    -6.0  688   0     962.8    NA       0.0000   9999     0     0     0    
2019/11/04  17:46:00  BASE  2.25792  316  2.90472  319  2.0   57    -5.7  687   0     962.8    NA       0.0000   9999     0     0     0    
2019/11/04  17:47:00  BASE  2.52252  320  2.90472  319  2.0   57    -5.6  686   0     962.8    NA       0.0000   9999     0     0     0    
2019/11/04  17:48:00  BASE  2.25204  318  2.90472  319  2.0   57    -5.6  685   0     962.8    NA       0.0000   9999     0     0     0    
2019/11/04  17:49:00  BASE  1.9992   316  2.90472  319  1.9   58    -5.4  683   0     962.8    NA       0.0000   9999     0     0     0    
2019/11/04  17:50:00  BASE  1.98744  320  2.90472  319  1.9   59    -5.2  682   0     962.8    NA       0.0000   9999     0     0     0    
2019/11/04  17:51:00  BASE  2.05212  328  2.90472  319  1.9   60    -4.9  681   0     962.8    NA       0.0000   9999     0     0     0    
2019/11/04  17:52:00  BASE  2.1756   326  3.2046   328  2.0   61    -4.7  680   0     962.7    NA       0.0000   9999     0     0     0    
2019/11/04  17:53:00  BASE  2.95176  327  3.90432  333  2.0   62    -4.6  679   0     962.7    NA       0.0000   9999     0     0     0    
2019/11/04  17:54:00  BASE  3.66912  334  3.90432  333  1.9   62    -4.7  677   0     962.7    NA       0.0000   9999     0     0     0    
2019/11/04  17:55:00  BASE  3.66912  335  3.96312  333  1.9   61    -4.8  676   0     962.7    NA       0.0000   9999     0     0     0    
2019/11/04  17:56:00  BASE  3.4692   335  3.96312  333  1.8   61    -4.9  675   0     962.7    NA       0.0000   9999     0     0     0    
2019/11/04  17:57:00  BASE  3.2046   337  3.96312  333  1.7   61    -5.0  674   0     962.7    NA       0.0000   9999     0     0     0    
2019/11/04  17:58:00  BASE  3.02232  337  3.96312  333  1.6   61    -5.0  673   0     962.7    NA       0.0000   9999     0     0     0    
2019/11/04  17:59:00  BASE  2.74008  337  3.96312  333  1.6   62    -5.0  671   0     962.7    NA       0.0000   9999     0     0     0    
2019/11/04  18:00:00  BASE  2.47548  336  3.96312  333  1.6   62    -4.9  670   0     962.7    NA       0.0000   9999     0     0     0    
2019/11/04  18:01:00  BASE  2.44608  333  3.96312  333  1.5   63    -4.8  669   0     962.7    NA       0.0000   9999     0     0     0    
2019/11/04  18:02:00  BASE  2.43432  330  3.96312  333  1.5   63    -4.8  668   0     962.7    NA       0.0000   9999     0     0     0    
2019/11/04  18:03:00  BASE  2.25204  334  3.96312  333  1.5   63    -4.7  667   0     962.7    NA       0.0000   9999     0     0     0    
2019/11/04  18:04:00  BASE  2.33436  336  3.96312  333  1.6   63    -4.7  666   0     962.7    NA       0.0000   9999     0     0     0    
2019/11/04  18:05:00  BASE  2.44608  334  3.51036  335  1.6   63    -4.7  665   0     962.7    NA       0.0000   9999     0     0     0    
2019/11/04  18:06:00  BASE  2.16972  331  3.38688  339  1.6   63    -4.7  664   0     962.8    NA       0.0000   9999     0     0     0    
2019/11/04  18:07:00  BASE  1.74048  317  3.1458   341  1.6   63    -4.7  663   0     962.8    NA       0.0000   9999     0     0     0    
2019/11/04  18:08:00  BASE  1.71108  295  2.81064  328  1.6   64    -4.6  661   0     962.8    NA       0.0000   9999     0     0     0    
2019/11/04  18:09:00  BASE  1.95804  293  2.81064  328  1.5   64    -4.6  660   0     962.7    NA       0.0000   9999     0     0     0    
2019/11/04  18:10:00  BASE  1.92864  301  2.81064  328  1.4   65    -4.5  659   0     962.6    NA       0.0000   9999     0     0     0    
2019/11/04  18:11:00  BASE  1.79928  306  2.81064  328  1.5   65    -4.4  657   0     962.8    NA       0.0000   9999     0     0     0    
2019/11/04  18:12:00  BASE  1.6464   311  2.81064  328  1.6   64    -4.4  656   0     962.8    NA       0.0000   9999     0     0     0    
2019/11/04  18:13:00  BASE  1.60524  313  2.81064  328  1.7   63    -4.5  655   0     962.8    NA       0.0000   9999     0     0     0    
2019/11/04  18:14:00  BASE  1.63464  311  2.63424  332  1.8   63    -4.6  654   0     962.8    NA       0.0000   9999     0     0     0    
2019/11/04  18:15:00  BASE  1.54056  306  2.35788  289  1.8   62    -4.6  652   0     962.8    NA       0.0000   9999     0     0     0    
2019/11/04  18:16:00  BASE  1.6464   303  2.35788  289  1.8   62    -4.7  651   0     962.8    NA       0.0000   9999     0     0     0    
2019/11/04  18:17:00  BASE  1.91688  303  2.35788  289  1.7   63    -4.7  649   0     962.8    NA       0.0000   9999     0     0     0    
2019/11/04  18:18:00  BASE  1.91688  298  2.21088  300  1.7   64    -4.5  649   0     962.8    NA       0.0000   9999     0     0     0    
2019/11/04  18:19:00  BASE  1.65816  292  2.21088  300  1.6   65    -4.3  647   0     962.8    NA       0.0000   9999     0     0     0    
2019/11/04  18:20:00  BASE  1.2642   293  2.21088  300  1.5   66    -4.2  646   0     962.8    NA       0.0000   9999     0     0     0    
2019/11/04  18:21:00  BASE  0.9702   297  2.21088  300  1.5   67    -4.1  645   0     962.8    NA       0.0000   9999     0     0     0    
2019/11/04  18:22:00  BASE  0.882    302  2.21088  300  1.5   67    -3.9  643   0     962.8    NA       0.0000   9999     0     0     0    
2019/11/04  18:23:00  BASE  0.78792  305  2.21088  300  1.5   68    -3.8  642   0     962.8    NA       0.0000   9999     0     0     0    
2019/11/04  18:24:00  BASE  0.95844  303  2.21088  300  1.5   68    -3.8  641   0     962.8    NA       0.0000   9999     0     0     0    
2019/11/04  18:25:00  BASE  1.31712  302  2.21088  300  1.5   68    -3.8  639   0     962.8    NA       0.0000   9999     0     0     0    
2019/11/04  18:26:00  BASE  1.37592  306  2.1168   300  1.5   68    -3.8  639   0     962.8    NA       0.0000   9999     0     0     0    
2019/11/04  18:27:00  BASE  1.2054   313  2.0286   291  1.5   68    -3.9  637   0     962.8    NA       0.0000   9999     0     0     0    
2019/11/04  18:28:00  BASE  1.176    317  1.69344  291  1.4   68    -4.0  635   0     962.9    NA       0.0000   9999     0     0     0    
2019/11/04  18:29:00  BASE  1.31124  313  1.54056  318  1.4   68    -3.9  634   0     962.9    NA       0.0000   9999     0     0     0    
2019/11/04  18:30:00  BASE  1.47     309  1.81692  302  1.5   68    -3.8  632   0     962.9    NA       0.0000   9999     0     0     0    
2019/11/04  18:31:00  BASE  1.53468  312  1.81692  302  1.5   68    -3.8  632   0     962.9    NA       0.0000   9999     0     0     0    
2019/11/04  18:32:00  BASE  1.3524   319  1.81692  302  1.4   68    -3.8  630   0     962.9    NA       0.0000   9999     0     0     0    
2019/11/04  18:33:00  BASE  1.24656  314  1.81692  302  1.3   69    -3.8  629   0     962.9    NA       0.0000   9999     0     0     0    
2019/11/04  18:34:00  BASE  1.21128  306  1.81692  302  1.2   70    -3.7  628   0     962.9    NA       0.0000   9999     0     0     0    
2019/11/04  18:35:00  BASE  1.12308  305  1.81692  302  1.1   70    -3.8  626   0     962.9    NA       0.0000   9999     0     0     0    
2019/11/04  18:36:00  BASE  1.14072  303  1.81692  302  1.1   70    -3.8  625   0     962.9    NA       0.0000   9999     0     0     0    
2019/11/04  18:37:00  BASE  1.12896  296  1.81692  302  1.1   70    -3.7  623   0     962.3    NA       0.0000   9999     0     0     0    
2019/11/04  18:38:00  BASE  0.94668  290  1.81692  302  1.2   70    -3.6  621   0     962.5    NA       0.0000   9999     0     0     0    
2019/11/04  18:39:00  BASE  0.86436  297  1.81692  302  1.2   70    -3.6  621   0     962.9    NA       0.0000   9999     0     0     0    
2019/11/04  18:40:00  BASE  1.27008  313  1.87572  319  1.3   70    -3.6  620   0     962.9    NA       0.0000   9999     0     0     0    
2019/11/04  18:41:00  BASE  1.54056  316  1.87572  319  1.3   71    -3.5  617   0     962.8    NA       0.0000   9999     0     0     0    
2019/11/04  18:42:00  BASE  1.39944  310  1.87572  319  1.3   71    -3.4  615   0     962.8    NA       0.0000   9999     0     0     0    
2019/11/04  18:43:00  BASE  1.29948  307  1.87572  319  1.3   72    -3.2  614   0     962.6    NA       0.0000   9999     0     0     0    
2019/11/04  18:44:00  BASE  1.19364  301  1.87572  319  1.3   73    -3.0  613   0     962.4    NA       0.0000   9999     0     0     0    
2019/11/04  18:45:00  BASE  1.03488  293  1.87572  319  1.3   74    -2.8  612   0     962.4    NA       0.0000   9999     0     0     0    
2019/11/04  18:46:00  BASE  0.92316  293  1.87572  319  1.3   75    -2.7  610   0     962.8    NA       0.0000   9999     0     0     0    
2019/11/04  18:47:00  BASE  0.6762   301  1.87572  319  1.3   75    -2.6  607   0     962.8    NA       0.0000   9999     0     0     0    
2019/11/04  18:48:00  BASE  0.49392  306  1.87572  319  1.2   76    -2.6  606   0     962.8    NA       0.0000   9999     0     0     0    
2019/11/04  18:49:00  BASE  0.42336  315  1.87572  319  1.2   76    -2.6  606   0     962.8    NA       0.0000   9999     0     0     0    
2019/11/04  18:50:00  BASE  0.17052  320  1.78752  323  1.2   76    -2.6  602   0     962.8    NA       0.0000   9999     0     0     0    
2019/11/04  18:51:00  BASE  0.19404  305  1.60524  300  1.1   76    -2.5  602   0     962.7    NA       0.0000   9999     0     0     0    
2019/11/04  18:52:00  BASE  0.48216  286  1.51116  306  1.2   77    -2.5  600   0     962.5    NA       0.0000   9999     0     0     0    
2019/11/04  18:53:00  BASE  0.61152  262  1.29948  297  1.1   76    -2.6  599   0     962.7    NA       0.0000   9999     0     0     0    
2019/11/04  18:54:00  BASE  0.6762   245  1.18188  296  0.9   77    -2.7  597   0     962.8    NA       0.0000   9999     0     0     0    
2019/11/04  18:55:00  BASE  0.51156  237  1.18188  296  0.8   77    -2.8  595   0     962.8    NA       0.0000   9999     0     0     0    
2019/11/04  18:56:00  BASE  0.28224  233  0.90552  243  0.7   77    -2.9  594   0     962.8    NA       0.0000   9999     0     0     0    
2019/11/04  18:57:00  BASE  0.21756  237  0.90552  243  0.5   77    -3.0  593   0     962.8    NA       0.0000   9999     0     0     0    
2019/11/04  18:58:00  BASE  0.35868  241  0.90552  243  0.5   78    -3.0  590   0     962.8    NA       0.0000   9999     0     0     0    
2019/11/04  18:59:00  BASE  0.6762   245  0.9702   246  0.5   78    -3.0  590   0     962.8    NA       0.0000   9999     0     0     0    
2019/11/04  19:00:00  BASE  0.93492  251  1.27008  260  0.4   78    -3.0  589   0     962.8    NA       0.0000   9999     0     0     0    
2019/11/04  19:01:00  BASE  1.029    255  1.27008  260  0.3   78    -3.0  587   0     962.8    NA       0.0000   9999     0     0     0    
2019/11/04  19:02:00  BASE  1.05252  256  1.32888  254  0.3   78    -3.0  586   0     962.7    NA       0.0000   9999     0     0     0    
2019/11/04  19:03:00  BASE  1.12896  255  1.32888  254  0.3   78    -3.0  584   0     962.8    NA       0.0000   9999     0     0     0    
2019/11/04  19:04:00  BASE  0.84672  257  1.32888  254  0.3   79    -3.0  582   0     962.8    NA       0.0000   9999     0     0     0    
2019/11/04  19:05:00  BASE  0.54096  261  1.32888  254  0.3   79    -2.9  580   0     962.8    NA       0.0000   9999     0     0     0    
2019/11/04  19:06:00  BASE  0.71148  256  1.32888  254  0.3   79    -2.9  578   0     962.8    NA       0.0000   9999     0     0     0    
2019/11/04  19:07:00  BASE  1.01136  252  1.32888  254  0.3   79    -2.9  576   0     962.7    NA       0.0000   9999     0     0     0    
2019/11/04  19:08:00  BASE  1.1172   260  1.32888  254  0.3   79    -2.9  574   0     962.8    NA       0.0000   9999     0     0     0    
2019/11/04  19:09:00  BASE  1.2054   261  1.39356  260  0.3   79    -2.9  575   0     962.8    NA       0.0000   9999     0     0     0    
2019/11/04  19:10:00  BASE  1.2936   255  1.54056  258  0.3   79    -2.8  573   0     962.8    NA       0.0000   9999     0     0     0    
2019/11/04  19:11:00  BASE  1.38768  253  1.69344  261  0.3   80    -2.8  569   0     962.8    NA       0.0000   9999     0     0     0    
2019/11/04  19:12:00  BASE  1.323    251  1.69344  261  0.3   80    -2.8  568   0     962.8    NA       0.0000   9999     0     0     0    
2019/11/04  19:13:00  BASE  1.09368  249  1.69344  261  0.3   80    -2.8  568   0     962.8    NA       0.0000   9999     0     0     0    
2019/11/04  19:14:00  BASE  1.10544  247  1.69344  261  0.3   80    -2.8  564   0     962.7    NA       0.0000   9999     0     0     0    
2019/11/04  19:15:00  BASE  1.13484  252  1.69344  261  0.2   80    -2.8  560   0     962.7    NA       0.0000   9999     0     0     0    
2019/11/04  19:16:00  BASE  0.99372  258  1.69344  261  0.2   80    -2.8  560   0     962.8    NA       0.0000   9999     0     0     0    
2019/11/04  19:17:00  BASE  0.99372  267  1.69344  261  0.2   81    -2.7  560   0     962.8    NA       0.0000   9999     0     0     0    
2019/11/04  19:18:00  BASE  1.0584   271  1.69344  261  0.3   81    -2.6  557   0     962.8    NA       0.0000   9999     0     0     0    
2019/11/04  19:19:00  BASE  1.13484  272  1.69344  261  0.3   81    -2.5  557   0     962.5    NA       0.0000   9999     0     0     0    
2019/11/04  19:20:00  BASE  1.15836  277  1.69344  261  0.3   81    -2.5  555   0     962.8    NA       0.0000   9999     0     0     0    
2019/11/04  19:21:00  BASE  1.22304  281  1.54056  246  0.3   82    -2.4  555   0     962.8    NA       0.0000   9999     0     0     0    
2019/11/04  19:22:00  BASE  1.34652  281  1.66404  266  0.3   82    -2.4  552   0     962.8    NA       0.0000   9999     0     0     0    
2019/11/04  19:23:00  BASE  1.44648  280  1.78752  277  0.3   82    -2.3  551   0     962.8    NA       0.0000   9999     0     0     0    
2019/11/04  19:24:00  BASE  1.39356  288  1.78752  277  0.4   83    -2.2  549   0     962.8    NA       0.0000   9999     0     0     0    
2019/11/04  19:25:00  BASE  1.2936   292  1.78752  277  0.4   84    -2.0  547   0     962.6    NA       0.0000   9999     0     0     0    
2019/11/04  19:26:00  BASE  1.33476  280  1.78752  277  0.4   84    -2.0  546   0     962.8    NA       0.0000   9999     0     0     0    
2019/11/04  19:27:00  BASE  1.35828  266  1.78752  277  0.3   85    -1.9  544   0     962.8    NA       0.0000   9999     0     0     0    
2019/11/04  19:28:00  BASE  1.43472  263  1.78752  277  0.2   86    -1.9  541   0     962.8    NA       0.0000   9999     0     0     0    
2019/11/04  19:29:00  BASE  1.44648  265  1.78752  253  0.1   86    -1.9  539   0     962.8    NA       0.0000   9999     0     0     0    
2019/11/04  19:30:00  BASE  1.4112   265  1.78752  253  -0.0  87    -1.9  538   0     962.8    NA       0.0000   9999     0     0     0    
2019/11/04  19:31:00  BASE  1.47     263  1.78752  260  -0.0  88    -1.8  536   0     962.8    NA       0.0000   9999     0     0     0    
2019/11/04  19:32:00  BASE  1.52292  262  1.87572  256  -0.1  89    -1.7  535   0     962.8    NA       0.0000   9999     0     0     0    
2019/11/04  19:33:00  BASE  1.50528  263  1.87572  259  -0.1  90    -1.5  532   0     962.8    NA       0.0000   9999     0     0     0    
2019/11/04  19:34:00  BASE  1.61112  265  2.0286   255  -0.1  91    -1.4  531   0     962.8    NA       0.0000   9999     0     0     0    
2019/11/04  19:35:00  BASE  1.74636  266  2.0874   268  -0.1  92    -1.3  529   0     962.8    NA       0.0000   9999     0     0     0    
2019/11/04  19:36:00  BASE  1.78752  262  2.0874   268  -0.2  93    -1.2  527   0     962.8    NA       0.0000   9999     0     0     0    
2019/11/04  19:37:00  BASE  1.81104  258  2.0874   268  -0.2  94    -1.0  526   0     962.8    NA       0.0000   9999     0     0     0    
2019/11/04  19:38:00  BASE  1.72284  258  2.0874   268  -0.2  94    -1.0  524   0     962.8    NA       0.0000   9999     0     0     0    
2019/11/04  19:39:00  BASE  1.69932  257  2.0874   268  -0.2  95    -0.9  522   0     962.8    NA       0.0000   9999     0     0     0    
2019/11/04  19:40:00  BASE  1.59348  252  2.0874   268  -0.3  95    -0.9  520   0     962.8    NA       0.0000   9999     0     0     0    
2019/11/04  19:41:00  BASE  1.35828  252  2.0874   268  -0.3  96    -0.9  517   0     962.8    NA       0.0000   9999     0     0     0    
2019/11/04  19:42:00  BASE  1.2936   254  2.0874   268  -0.4  96    -0.9  516   0     962.8    NA       0.0000   9999     0     0     0    
2019/11/04  19:43:00  BASE  1.16424  254  2.0874   268  -0.4  96    -0.9  514   0     962.8    NA       0.0000   9999     0     0     0    
2019/11/04  19:44:00  BASE  1.029    252  2.0874   268  -0.4  97    -0.8  513   0     962.5    NA       0.0000   9999     0     0     0    
2019/11/04  19:45:00  BASE  1.00548  251  2.058    261  -0.4  97    -0.7  510   0     962.8    NA       0.0000   9999     0     0     0    
2019/11/04  19:46:00  BASE  1.00548  258  1.9992   266  -0.3  97    -0.7  509   0     962.8    NA       0.0000   9999     0     0     0    
2019/11/04  19:47:00  BASE  1.1172   260  1.9992   266  -0.3  97    -0.7  508   0     962.7    NA       0.0000   9999     0     0     0    
2019/11/04  19:48:00  BASE  1.27596  258  1.9992   266  -0.2  97    -0.6  505   0     962.8    NA       0.0000   9999     0     0     0    
2019/11/04  19:49:00  BASE  1.37004  258  1.57584  260  -0.2  97    -0.6  502   0     962.8    NA       0.0000   9999     0     0     0    
2019/11/04  19:50:00  BASE  1.54056  261  1.87572  263  -0.2  97    -0.7  502   0     962.8    NA       0.0000   9999     0     0     0    
2019/11/04  19:51:00  BASE  1.7052   262  1.9992   274  -0.2  96    -0.7  501   0     962.8    NA       0.0000   9999     0     0     0    
2019/11/04  19:52:00  BASE  1.764    265  2.26968  267  -0.2  96    -0.7  496   0     962.8    NA       0.0000   9999     0     0     0    
2019/11/04  19:53:00  BASE  1.95804  268  2.42256  264  -0.3  96    -0.8  494   0     962.8    NA       0.0000   9999     0     0     0    
2019/11/04  19:54:00  BASE  1.9404   273  2.42256  264  -0.3  96    -0.8  494   0     962.8    NA       0.0000   9999     0     0     0    
2019/11/04  19:55:00  BASE  1.8228   273  2.42256  264  -0.3  96    -0.8  492   0     962.8    NA       0.0000   9999     0     0     0    
2019/11/04  19:56:00  BASE  1.66992  263  2.42256  264  -0.3  96    -0.8  492   0     962.8    NA       0.0000   9999     0     0     0    
2019/11/04  19:57:00  BASE  1.38768  262  2.42256  264  -0.3  97    -0.8  488   0     962.8    NA       0.0000   9999     0     0     0    
2019/11/04  19:58:00  BASE  1.39944  265  2.42256  264  -0.3  97    -0.8  486   0     962.1    NA       0.0000   9999     0     0     0    
2019/11/04  19:59:00  BASE  1.40532  269  2.42256  264  -0.4  97    -0.8  484   0     962.8    NA       0.0000   9999     0     0     0    
2019/11/04  20:00:00  BASE  1.29948  276  2.42256  264  -0.3  97    -0.7  482   0     962.8    NA       0.0000   9999     0     0     0    
2019/11/04  20:01:00  BASE  1.49352  277  2.42256  264  -0.3  98    -0.6  480   0     962.7    NA       0.0000   9999     0     0     0    
2019/11/04  20:02:00  BASE  1.42884  278  2.42256  264  -0.3  98    -0.6  479   0     962.7    NA       0.0000   9999     0     0     0    
2019/11/04  20:03:00  BASE  1.45236  278  2.26968  284  -0.2  98    -0.5  478   0     962.7    NA       0.0000   9999     0     0     0    
2019/11/04  20:04:00  BASE  1.68756  279  2.26968  284  -0.2  98    -0.5  474   0     962.7    NA       0.0000   9999     0     0     0    
2019/11/04  20:05:00  BASE  1.42296  286  2.0286   268  -0.2  97    -0.5  473   0     962.7    NA       0.0000   9999     0     0     0    
2019/11/04  20:06:00  BASE  1.27596  291  2.0286   268  -0.1  97    -0.5  473   0     962.7    NA       0.0000   9999     0     0     0    
2019/11/04  20:07:00  BASE  1.27008  306  2.0286   268  -0.0  97    -0.5  469   0     962.7    NA       0.0000   9999     0     0     0    
2019/11/04  20:08:00  BASE  1.18776  309  2.0286   268  0.1   96    -0.5  468   0     962.7    NA       0.0000   9999     0     0     0    
2019/11/04  20:09:00  BASE  1.18776  298  2.0286   268  0.2   96    -0.4  467   0     962.7    NA       0.0000   9999     0     0     0    
2019/11/04  20:10:00  BASE  1.29948  297  2.0286   268  0.4   95    -0.3  464   0     962.7    NA       0.0000   9999     0     0     0    
2019/11/04  20:11:00  BASE  1.34652  308  2.0286   268  0.4   94    -0.4  464   0     962.7    NA       0.0000   9999     0     0     0    
2019/11/04  20:12:00  BASE  1.21716  308  2.0286   268  0.4   93    -0.6  462   0     962.7    NA       0.0000   9999     0     0     0    
2019/11/04  20:13:00  BASE  1.05252  305  1.96392  278  0.4   93    -0.7  458   0     962.7    NA       0.0000   9999     0     0     0    
2019/11/04  20:14:00  BASE  0.98784  315  1.69344  284  0.3   92    -0.8  456   0     962.7    NA       0.0000   9999     0     0     0    
2019/11/04  20:15:00  BASE  1.14072  321  1.66404  287  0.2   92    -1.0  456   0     962.7    NA       0.0000   9999     0     0     0    
2019/11/04  20:16:00  BASE  1.31124  325  1.57584  303  0.1   92    -1.1  453   0     962.5    NA       0.0000   9999     0     0     0    
2019/11/04  20:17:00  BASE  1.2348   325  1.57584  303  0.1   92    -1.0  451   0     962.7    NA       0.0000   9999     0     0     0    
2019/11/04  20:18:00  BASE  1.12896  317  1.57584  303  0.1   92    -1.0  437   0     962.7    NA       0.0000   9999     0     0     0    
2019/11/04  20:19:00  BASE  1.07016  314  1.57584  303  0.1   93    -1.0  440   0     962.7    NA       0.0000   9999     0     0     0    
2019/11/04  20:20:00  BASE  0.92316  316  1.57584  303  0.1   93    -0.8  444   0     962.7    NA       0.0000   9999     0     0     0    
2019/11/04  20:21:00  BASE  0.94668  324  1.48176  332  0.2   93    -0.7  444   0     962.7    NA       0.0000   9999     0     0     0    
2019/11/04  20:22:00  BASE  1.0584   337  1.48176  332  0.3   93    -0.7  441   0     962.7    NA       0.0000   9999     0     0     0    
2019/11/04  20:23:00  BASE  0.92904  337  1.48176  332  0.3   93    -0.8  440   0     962.7    NA       0.0000   9999     0     0     0    
2019/11/04  20:24:00  BASE  0.65268  326  1.48176  332  0.3   92    -0.9  438   0     962.4    NA       0.0000   9999     0     0     0    
2019/11/04  20:25:00  BASE  0.25872  329  1.48176  332  0.3   92    -1.0  435   0     962.6    NA       0.0000   9999     0     0     0    
2019/11/04  20:26:00  BASE  0.36456  345  1.29948  313  0.2   91    -1.0  432   0     962.6    NA       0.0000   9999     0     0     0    
2019/11/04  20:27:00  BASE  0.6762   356  1.24068  306  0.2   91    -1.1  412   0     962.6    NA       0.0000   9999     0     0     0    
2019/11/04  20:28:00  BASE  0.7938   7    1.24068  24   0.3   91    -1.0  409   0     962.6    NA       0.0000   9999     0     0     0    
2019/11/04  20:29:00  BASE  0.68208  10   1.24068  24   0.2   91    -1.1  357   0     962.6    NA       0.0000   9999     0     0     0    
2019/11/04  20:30:00  BASE  0.37632  1    1.24068  24   0.2   91    -1.1  324   0     962.6    NA       0.0000   9999     0     0     0    
2019/11/04  20:31:00  BASE  0.57036  2    1.24068  24   0.1   91    -1.2  308   0     962.1    NA       0.0000   9999     0     0     0    
2019/11/04  20:32:00  BASE  0.44688  357  1.24068  24   0.1   92    -1.1  337   0     962.4    NA       0.0000   9999     0     0     0    
2019/11/04  20:33:00  BASE  0.05292  1    1.24068  24   0.0   92    -1.1  418   0     962.6    NA       0.0000   9999     0     0     0    
2019/11/04  20:34:00  BASE  0        8    1.24068  24   0.0   92    -1.0  419   0     962.5    NA       0.0000   9999     0     0     0    
2019/11/04  20:35:00  BASE  0        359  1.24068  24   0.1   93    -1.0  418   0     962.6    NA       0.0000   9999     0     0     0    
2019/11/04  20:36:00  BASE  0        323  1.24068  24   0.2   93    -0.8  415   0     962.6    NA       0.0000   9999     0     0     0    
2019/11/04  20:37:00  BASE  0        298  1.24068  24   0.3   92    -0.8  404   0     962.6    NA       0.0000   9999     0     0     0    
2019/11/04  20:38:00  BASE  0        321  0.90552  16   0.4   92    -0.8  400   0     962.6    NA       0.0000   9999     0     0     0    
2019/11/04  20:39:00  BASE  0.12348  339  0.90552  16   0.6   91    -0.8  405   0     962.6    NA       0.0000   9999     0     0     0    
2019/11/04  20:40:00  BASE  0.21756  336  0.90552  16   0.7   89    -0.9  406   0     962.5    NA       0.0000   9999     0     0     0    
2019/11/04  20:41:00  BASE  0.294    337  0.81732  337  0.7   88    -1.1  405   0     962.5    NA       0.0000   9999     0     0     0    
2019/11/04  20:42:00  BASE  0.49392  338  0.81732  337  0.8   87    -1.1  403   0     962.5    NA       0.0000   9999     0     0     0    
2019/11/04  20:43:00  BASE  0.57624  325  0.90552  311  0.8   86    -1.3  401   0     962.5    NA       0.0000   9999     0     0     0    
2019/11/04  20:44:00  BASE  0.69972  316  0.93492  319  0.8   87    -1.2  400   0     962.5    NA       0.0000   9999     0     0     0    
2019/11/04  20:45:00  BASE  0.94668  312  1.51116  308  0.9   87    -1.1  397   0     962.5    NA       0.0000   9999     0     0     0    
2019/11/04  20:46:00  BASE  1.22892  306  1.69344  301  0.9   87    -1.0  395   0     962.5    NA       0.0000   9999     0     0     0    
2019/11/04  20:47:00  BASE  1.31712  304  1.69344  301  0.9   87    -1.0  393   0     962.5    NA       0.0000   9999     0     0     0    
2019/11/04  20:48:00  BASE  1.176    303  1.69344  301  0.9   87    -1.1  390   0     962.5    NA       0.0000   9999     0     0     0    
2019/11/04  20:49:00  BASE  1.176    303  1.69344  301  0.8   86    -1.2  387   0     962.5    NA       0.0000   9999     0     0     0    
2019/11/04  20:50:00  BASE  1.37004  300  1.69344  301  0.7   86    -1.3  385   0     962.5    NA       0.0000   9999     0     0     0    
2019/11/04  20:51:00  BASE  1.55232  292  1.93452  283  0.7   87    -1.3  384   0     962.5    NA       0.0000   9999     0     0     0    
2019/11/04  20:52:00  BASE  1.54056  283  1.93452  283  0.7   87    -1.2  381   0     962.5    NA       0.0000   9999     0     0     0    
2019/11/04  20:53:00  BASE  1.54644  279  1.93452  283  0.6   88    -1.2  379   0     962.5    NA       0.0000   9999     0     0     0    
2019/11/04  20:54:00  BASE  1.4994   274  1.93452  283  0.5   88    -1.3  366   0     962.5    NA       0.0000   9999     0     0     0    
2019/11/04  20:55:00  BASE  1.53468  268  1.93452  283  0.3   89    -1.4  354   0     962.5    NA       0.0000   9999     0     0     0    
2019/11/04  20:56:00  BASE  1.59936  269  1.93452  283  0.0   90    -1.5  336   0     962.5    NA       0.0000   9999     0     0     0    
2019/11/04  20:57:00  BASE  1.53468  264  1.93452  283  -0.1  91    -1.5  340   0     962.5    NA       0.0000   9999     0     0     0    
2019/11/04  20:58:00  BASE  1.68168  258  2.0874   259  -0.3  92    -1.5  366   0     962.5    NA       0.0000   9999     0     0     0    
2019/11/04  20:59:00  BASE  1.84044  263  2.1462   262  -0.3  93    -1.3  367   0     962.5    NA       0.0000   9999     0     0     0    
2019/11/04  21:00:00  BASE  1.82868  264  2.1462   262  -0.4  94    -1.3  365   0     962.5    NA       0.0000   9999     0     0     0    
2019/11/04  21:01:00  BASE  1.55232  262  2.1462   262  -0.5  95    -1.2  363   0     962.4    NA       0.0000   9999     0     0     0    
2019/11/04  21:02:00  BASE  1.24656  269  2.1462   262  -0.5  95    -1.2  361   0     962.4    NA       0.0000   9999     0     0     0    
2019/11/04  21:03:00  BASE  1.06428  277  2.1462   262  -0.5  96    -1.1  359   0     962.5    NA       0.0000   9999     0     0     0    
2019/11/04  21:04:00  BASE  0.88788  281  2.1462   262  -0.5  96    -1.1  357   0     962.5    NA       0.0000   9999     0     0     0    
2019/11/04  21:05:00  BASE  0.63504  295  2.1462   262  -0.5  97    -0.9  355   0     962.4    NA       0.0000   9999     0     0     0    
2019/11/04  21:06:00  BASE  0.31752  301  2.1462   262  -0.4  97    -0.8  354   0     962.4    NA       0.0000   9999     0     0     0    
2019/11/04  21:07:00  BASE  0.24108  284  2.1462   262  -0.3  97    -0.7  351   0     962.3    NA       0.0000   9999     0     0     0    
2019/11/04  21:08:00  BASE  0.49392  254  2.1462   262  -0.3  97    -0.6  349   0     962.3    NA       0.0000   9999     0     0     0    
2019/11/04  21:09:00  BASE  0.81144  236  1.96392  260  -0.3  97    -0.7  346   0     962.3    NA       0.0000   9999     0     0     0    
2019/11/04  21:10:00  BASE  0.91728  236  1.69344  254  -0.4  97    -0.8  344   0     962.3    NA       0.0000   9999     0     0     0    
2019/11/04  21:11:00  BASE  0.91728  233  1.29948  272  -0.5  97    -0.9  342   0     962.3    NA       0.0000   9999     0     0     0    
2019/11/04  21:12:00  BASE  0.80556  225  1.18188  233  -0.6  98    -0.9  340   0     962.3    NA       0.0000   9999     0     0     0    
2019/11/04  21:13:00  BASE  0.74676  203  1.18188  233  -0.6  98    -0.8  338   0     962.3    NA       0.0000   9999     0     0     0    
2019/11/04  21:14:00  BASE  0.9114   186  1.18188  233  -0.6  99    -0.7  336   0     962.3    NA       0.0000   9999     0     0     0    
2019/11/04  21:15:00  BASE  0.89964  192  1.18188  233  -0.6  99    -0.7  333   0     962.3    NA       0.0000   9999     0     0     0    
2019/11/04  21:16:00  BASE  0.45276  200  1.18188  233  -0.6  100   -0.6  331   0     962.3    NA       0.0000   9999     0     0     0    
2019/11/04  21:17:00  BASE  0.05292  205  1.18188  233  -0.6  100   -0.6  327   0     962.3    NA       0.0000   9999     0     0     0    
2019/11/04  21:18:00  BASE  0        208  1.18188  233  -0.5  100   -0.5  325   0     962.3    NA       0.0000   9999     0     0     0    
2019/11/04  21:19:00  BASE  0        218  1.0584   184  -0.5  100   -0.5  324   0     962.3    NA       0.0000   9999     0     0     0    
2019/11/04  21:20:00  BASE  0        228  1.0584   184  -0.5  100   -0.5  323   0     962.3    NA       0.0000   9999     0     0     0    
2019/11/04  21:21:00  BASE  0        225  1.0584   184  -0.4  100   -0.4  321   0     962.3    NA       0.0000   9999     0     0     0    
2019/11/04  21:22:00  BASE  0        220  1.0584   184  -0.3  100   -0.3  319   0     962.3    NA       0.0000   9999     0     0     0    
2019/11/04  21:23:00  BASE  0        223  1.0584   184  -0.3  100   -0.3  316   0     962.3    NA       0.0000   9999     0     0     0    
2019/11/04  21:24:00  BASE  0        238  0.93492  196  -0.3  100   -0.3  314   0     962.3    NA       0.0000   9999     0     0     0    
2019/11/04  21:25:00  BASE  0        254  0.63504  197  -0.3  100   -0.3  311   0     962.3    NA       0.0000   9999     0     0     0    
2019/11/04  21:26:00  BASE  0.0294   279  0.63504  306  -0.4  100   -0.4  310   0     962.3    NA       0.0000   9999     0     0     0    
2019/11/04  21:27:00  BASE  0.14112  295  0.72324  295  -0.5  100   -0.5  309   0     962.3    NA       0.0000   9999     0     0     0    
2019/11/04  21:28:00  BASE  0.43512  291  1.0584   293  -0.5  100   -0.5  306   0     962.3    NA       0.0000   9999     0     0     0    
2019/11/04  21:29:00  BASE  0.74088  288  1.0584   293  -0.5  100   -0.5  304   0     962.3    NA       0.0000   9999     0     0     0    
2019/11/04  21:30:00  BASE  0.8232   279  1.0584   293  -0.4  100   -0.4  302   0     962.3    NA       0.0000   9999     0     0     0    
2019/11/04  21:31:00  BASE  0.74676  270  1.0584   293  -0.4  100   -0.4  300   0     962.3    NA       0.0000   9999     0     0     0    
2019/11/04  21:32:00  BASE  0.7938   266  1.0584   293  -0.4  100   -0.4  299   0     962.3    NA       0.0000   9999     0     0     0    
2019/11/04  21:33:00  BASE  0.95844  265  1.1466   269  -0.4  100   -0.4  296   0     962.3    NA       0.0000   9999     0     0     0    
2019/11/04  21:34:00  BASE  1.04664  268  1.21128  268  -0.4  100   -0.4  295   0     962.3    NA       0.0000   9999     0     0     0    
2019/11/04  21:35:00  BASE  0.89964  269  1.21128  268  -0.4  100   -0.4  293   0     962.3    NA       0.0000   9999     0     0     0    
2019/11/04  21:36:00  BASE  0.72324  271  1.21128  268  -0.4  100   -0.4  290   0     962.3    NA       0.0000   9999     0     0     0    
2019/11/04  21:37:00  BASE  0.44688  278  1.21128  268  -0.3  100   -0.3  288   0     962.3    NA       0.0000   9999     0     0     0    
2019/11/04  21:38:00  BASE  0.27636  282  1.21128  268  -0.3  100   -0.4  287   0     962.3    NA       0.0000   9999     0     0     0    
2019/11/04  21:39:00  BASE  0.6174   291  1.21128  268  -0.3  100   -0.4  285   0     962.3    NA       0.0000   9999     0     0     0    
2019/11/04  21:40:00  BASE  0.54096  314  1.21128  268  -0.3  99    -0.4  283   0     962.3    NA       0.0000   9999     0     0     0    
2019/11/04  21:41:00  BASE  0.53508  331  1.54056  352  -0.2  99    -0.3  281   0     962.2    NA       0.0000   9999     0     0     0    
2019/11/04  21:42:00  BASE  1.13484  349  2.21088  10   -0.1  98    -0.3  279   0     962.3    NA       0.0000   9999     0     0     0    
2019/11/04  21:43:00  BASE  1.72284  8    2.48136  19   0.0   98    -0.2  277   0     962.2    NA       0.0000   9999     0     0     0    
2019/11/04  21:44:00  BASE  2.16384  9    2.63424  350  0.2   97    -0.3  274   0     962.2    NA       0.0000   9999     0     0     0    
2019/11/04  21:45:00  BASE  1.8228   346  2.63424  350  0.3   95    -0.4  273   0     962.3    NA       0.0000   9999     0     0     0    
2019/11/04  21:46:00  BASE  1.32888  342  2.63424  350  0.3   93    -0.7  271   0     962.2    NA       0.0000   9999     0     0     0    
2019/11/04  21:47:00  BASE  1.27008  348  2.63424  350  0.4   91    -1.0  269   0     962.3    NA       0.0000   9999     0     0     0    
2019/11/04  21:48:00  BASE  1.07016  334  2.63424  350  0.4   89    -1.3  267   0     962.3    NA       0.0000   9999     0     0     0    
2019/11/04  21:49:00  BASE  0.9702   337  2.63424  350  0.4   87    -1.5  265   0     962.3    NA       0.0000   9999     0     0     0    
2019/11/04  21:50:00  BASE  1.16424  337  2.63424  350  0.3   86    -1.7  263   0     962.3    NA       0.0000   9999     0     0     0    
2019/11/04  21:51:00  BASE  1.58172  340  2.63424  350  0.3   86    -1.8  261   0     962.3    NA       0.0000   9999     0     0     0    
2019/11/04  21:52:00  BASE  1.56408  330  2.63424  350  0.4   85    -1.8  259   0     962.3    NA       0.0000   9999     0     0     0    
2019/11/04  21:53:00  BASE  1.27596  311  2.63424  350  0.5   84    -2.0  257   0     962.3    NA       0.0000   9999     0     0     0    
2019/11/04  21:54:00  BASE  1.34652  322  2.32848  219  0.5   82    -2.2  255   0     962.3    NA       0.0000   9999     0     0     0    
2019/11/04  21:55:00  BASE  1.36416  327  2.32848  219  0.6   81    -2.4  253   0     962.3    NA       0.0000   9999     0     0     0    
2019/11/04  21:56:00  BASE  1.31124  316  2.32848  219  0.7   79    -2.6  251   0     962.3    NA       0.0000   9999     0     0     0    
2019/11/04  21:57:00  BASE  0.75264  301  2.32848  219  0.7   77    -2.9  248   0     962.3    NA       0.0000   9999     0     0     0    
2019/11/04  21:58:00  BASE  0.09408  273  2.32848  219  0.6   77    -3.0  247   0     962.3    NA       0.0000   9999     0     0     0    
2019/11/04  21:59:00  BASE  0.07644  265  2.32848  219  0.6   77    -2.9  245   0     962.3    NA       0.0000   9999     0     0     0    
2019/11/04  22:00:00  BASE  0.47628  267  2.26968  360  0.6   79    -2.7  243   0     962.3    NA       0.0000   9999     0     0     0    
2019/11/04  22:01:00  BASE  0.53508  279  1.75224  353  0.4   80    -2.6  241   0     962.3    NA       0.0000   9999     0     0     0    
2019/11/04  22:02:00  BASE  0.22344  254  1.75224  353  0.3   83    -2.3  239   0     962.3    NA       0.0000   9999     0     0     0    
2019/11/04  22:03:00  BASE  0.12348  222  1.75224  353  0.1   85    -2.1  237   0     962.3    NA       0.0000   9999     0     0     0    
2019/11/04  22:04:00  BASE  0.05292  225  1.69344  320  0.0   87    -2.0  235   0     962.3    NA       0.0000   9999     0     0     0    
2019/11/04  22:05:00  BASE  0.0294   140  1.69344  320  -0.1  88    -1.8  233   0     962.3    NA       0.0000   9999     0     0     0    
2019/11/04  22:06:00  BASE  0.08232  143  1.48176  305  -0.1  90    -1.5  231   0     962.3    NA       0.0000   9999     0     0     0    
2019/11/04  22:07:00  BASE  0.08232  300  1.48176  305  -0.1  92    -1.3  229   0     962.3    NA       0.0000   9999     0     0     0    
2019/11/04  22:08:00  BASE  0        24   1.48176  305  -0.0  93    -1.0  228   0     962.3    NA       0.0000   9999     0     0     0    
2019/11/04  22:09:00  BASE  0.0294   133  1.48176  305  -0.0  93    -1.0  225   0     962.3    NA       0.0000   9999     0     0     0    
2019/11/04  22:10:00  BASE  0.22344  190  1.1172   215  -0.1  94    -0.9  224   0     962.3    NA       0.0000   9999     0     0     0    
2019/11/04  22:11:00  BASE  0.68208  206  1.27008  212  -0.1  94    -0.9  221   0     962.2    NA       0.0000   9999     0     0     0    
2019/11/04  22:12:00  BASE  1.2642   200  1.75224  188  -0.1  94    -1.0  220   0     962.3    NA       0.0000   9999     0     0     0    
2019/11/04  22:13:00  BASE  1.5876   193  1.78752  189  -0.2  94    -1.1  217   0     962.3    NA       0.0000   9999     0     0     0    
2019/11/04  22:14:00  BASE  1.69344  189  2.21088  185  -0.2  93    -1.2  215   0     962.3    NA       0.0000   9999     0     0     0    
2019/11/04  22:15:00  BASE  1.75812  186  2.21088  185  -0.3  93    -1.2  213   0     962.3    NA       0.0000   9999     0     0     0    
2019/11/04  22:16:00  BASE  1.78752  178  2.42256  168  -0.3  93    -1.3  211   0     962.3    NA       0.0000   9999     0     0     0    
2019/11/04  22:17:00  BASE  2.10504  165  2.81064  154  -0.4  94    -1.3  208   0     962.3    NA       0.0000   9999     0     0     0    
2019/11/04  22:18:00  BASE  2.53428  157  2.96352  158  -0.4  94    -1.3  207   0     962.3    NA       0.0000   9999     0     0     0    
2019/11/04  22:19:00  BASE  2.44608  154  2.96352  158  -0.4  94    -1.2  205   0     962.3    NA       0.0000   9999     0     0     0    
2019/11/04  22:20:00  BASE  2.03448  161  2.96352  158  -0.5  95    -1.2  203   0     962.3    NA       0.0000   9999     0     0     0    
2019/11/04  22:21:00  BASE  1.85808  163  2.96352  158  -0.5  95    -1.2  201   0     962.3    NA       0.0000   9999     0     0     0    
2019/11/04  22:22:00  BASE  1.75224  160  2.96352  158  -0.6  95    -1.2  199   0     962.3    NA       0.0000   9999     0     0     0    
2019/11/04  22:23:00  BASE  1.32888  169  2.96352  158  -0.6  96    -1.2  197   0     962.3    NA       0.0000   9999     0     0     0    
2019/11/04  22:24:00  BASE  0.9996   166  2.96352  158  -0.6  96    -1.2  195   0     962.3    NA       0.0000   9999     0     0     0    
2019/11/04  22:25:00  BASE  0.77028  179  2.96352  158  -0.6  96    -1.2  194   0     962.3    NA       0.0000   9999     0     0     0    
2019/11/04  22:26:00  BASE  0.28224  194  2.96352  158  -0.6  95    -1.3  191   0     962.3    NA       0.0000   9999     0     0     0    
2019/11/04  22:27:00  BASE  0        206  2.96352  158  -0.5  94    -1.3  190   0     962.3    NA       0.0000   9999     0     0     0    
2019/11/04  22:28:00  BASE  0.18816  261  2.59896  156  -0.3  93    -1.4  188   0     962.2    NA       0.0000   9999     0     0     0    
2019/11/04  22:29:00  BASE  0.63504  298  2.0874   169  -0.2  90    -1.6  187   0     962.3    NA       0.0000   9999     0     0     0    
2019/11/04  22:30:00  BASE  0.62328  308  2.0286   160  0.0   88    -1.8  184   0     962.2    NA       0.0000   9999     0     0     0    
2019/11/04  22:31:00  BASE  0.29988  309  1.87572  165  0.2   85    -2.0  183   0     962.2    NA       0.0000   9999     0     0     0    
2019/11/04  22:32:00  BASE  0.40572  307  1.35828  176  0.4   82    -2.4  181   0     962.2    NA       0.0000   9999     0     0     0    
2019/11/04  22:33:00  BASE  0.89376  315  1.48176  336  0.5   79    -2.8  180   0     962.2    NA       0.0000   9999     0     0     0    
2019/11/04  22:34:00  BASE  1.34652  324  1.69344  328  0.5   77    -3.1  177   0     962.2    NA       0.0000   9999     0     0     0    
2019/11/04  22:35:00  BASE  1.3818   320  1.69344  328  0.6   75    -3.3  175   0     962.2    NA       0.0000   9999     0     0     0    
2019/11/04  22:36:00  BASE  1.04076  312  1.69344  328  0.6   74    -3.5  173   0     962.2    NA       0.0000   9999     0     0     0    
2019/11/04  22:37:00  BASE  0.6468   292  1.69344  328  0.5   74    -3.6  172   0     962.2    NA       0.0000   9999     0     0     0    
2019/11/04  22:38:00  BASE  0.38808  268  1.69344  328  0.5   74    -3.6  170   0     962.2    NA       0.0000   9999     0     0     0    
2019/11/04  22:39:00  BASE  0.2058   280  1.69344  328  0.4   75    -3.6  168   0     962.2    NA       0.0000   9999     0     0     0    
2019/11/04  22:40:00  BASE  0.25872  300  1.69344  328  0.2   75    -3.6  167   0     962.2    NA       0.0000   9999     0     0     0    
2019/11/04  22:41:00  BASE  0.6174   263  1.69344  328  0.1   77    -3.5  165   0     962.2    NA       0.0000   9999     0     0     0    
2019/11/04  22:42:00  BASE  0.84672  235  1.69344  328  0.1   78    -3.4  163   0     962.2    NA       0.0000   9999     0     0     0    
2019/11/04  22:43:00  BASE  0.65268  231  1.69344  328  -0.0  79    -3.3  161   0     962.2    NA       0.0000   9999     0     0     0    
2019/11/04  22:44:00  BASE  0.27636  201  1.63464  330  -0.1  80    -3.2  159   0     962.2    NA       0.0000   9999     0     0     0    
2019/11/04  22:45:00  BASE  0.27636  180  1.29948  298  -0.2  81    -3.1  157   0     962.2    NA       0.0000   9999     0     0     0    
2019/11/04  22:46:00  BASE  0.37632  180  0.9702   241  -0.3  82    -3.0  155   0     962.2    NA       0.0000   9999     0     0     0    
2019/11/04  22:47:00  BASE  0.147    176  0.9702   241  -0.4  83    -2.9  154   0     962.2    NA       0.0000   9999     0     0     0    
2019/11/04  22:48:00  BASE  0        167  0.9702   241  -0.4  84    -2.8  152   0     962.2    NA       0.0000   9999     0     0     0    
2019/11/04  22:49:00  BASE  0        169  0.9702   241  -0.5  85    -2.6  150   0     962.2    NA       0.0000   9999     0     0     0    
2019/11/04  22:50:00  BASE  0.0294   219  0.9702   241  -0.5  86    -2.5  149   0     962.2    NA       0.0000   9999     0     0     0    
2019/11/04  22:51:00  BASE  0.24696  272  1.1466   308  -0.5  87    -2.4  147   0     962.1    NA       0.0000   9999     0     0     0    
2019/11/04  22:52:00  BASE  0.21756  282  1.1466   308  -0.4  87    -2.3  146   0     962.1    NA       0.0000   9999     0     0     0    
2019/11/04  22:53:00  BASE  0.0588   131  1.1466   308  -0.4  87    -2.3  144   0     962.1    NA       0.0000   9999     0     0     0    
2019/11/04  22:54:00  BASE  0.0588   131  1.1466   308  -0.4  87    -2.3  142   0     962.1    NA       0.0000   9999     0     0     0    
2019/11/04  22:55:00  BASE  0.32928  309  1.27008  317  -0.4  87    -2.2  140   0     962.1    NA       0.0000   9999     0     0     0    
2019/11/04  22:56:00  BASE  0.96432  327  1.45236  338  -0.3  87    -2.1  138   0     962.1    NA       0.0000   9999     0     0     0    
2019/11/04  22:57:00  BASE  1.24656  337  1.45236  338  -0.1  86    -2.3  136   0     962.1    NA       0.0000   9999     0     0     0    
2019/11/04  22:58:00  BASE  1.25832  344  1.54056  347  -0.0  83    -2.5  134   0     962.1    NA       0.0000   9999     0     0     0    
2019/11/04  22:59:00  BASE  1.42884  342  1.63464  330  0.1   81    -2.8  131   0     962.1    NA       0.0000   9999     0     0     0    
2019/11/04  23:00:00  BASE  1.56996  339  1.96392  345  0.1   78    -3.3  129   0     962.1    NA       0.0000   9999     0     0     0    
2019/11/04  23:01:00  BASE  1.65816  339  1.96392  343  0.2   75    -3.8  127   0     962.1    NA       0.0000   9999     0     0     0    
2019/11/04  23:02:00  BASE  1.87572  340  2.1462   346  0.1   73    -4.1  125   0     962.0    NA       0.0000   9999     0     0     0    
2019/11/04  23:03:00  BASE  1.9404   340  2.1462   346  0.1   72    -4.3  123   0     962.0    NA       0.0000   9999     0     0     0    
2019/11/04  23:04:00  BASE  2.00508  335  2.93412  347  0.2   71    -4.5  120   0     962.0    NA       0.0000   9999     0     0     0    
2019/11/04  23:05:00  BASE  2.24028  333  2.93412  341  0.2   69    -4.8  118   0     962.0    NA       0.0000   9999     0     0     0    
2019/11/04  23:06:00  BASE  2.11092  331  2.93412  341  0.3   67    -5.1  116   0     962.0    NA       0.0000   9999     0     0     0    
2019/11/04  23:07:00  BASE  1.78752  323  2.93412  341  0.3   65    -5.5  114   0     962.0    NA       0.0000   9999     0     0     0    
2019/11/04  23:08:00  BASE  1.63464  323  2.93412  341  0.4   63    -5.9  112   0     962.0    NA       0.0000   9999     0     0     0    
2019/11/04  23:09:00  BASE  1.53468  327  2.93412  341  0.4   61    -6.2  109   0     962.0    NA       0.0000   9999     0     0     0    
2019/11/04  23:10:00  BASE  1.03488  327  2.93412  341  0.5   60    -6.4  107   0     962.0    NA       0.0000   9999     0     0     0    
2019/11/04  23:11:00  BASE  0.81144  325  2.93412  341  0.5   59    -6.5  105   0     962.0    NA       0.0000   9999     0     0     0    
2019/11/04  23:12:00  BASE  0.92316  324  2.93412  341  0.5   59    -6.5  103   0     962.0    NA       0.0000   9999     0     0     0    
2019/11/04  23:13:00  BASE  0.59388  323  2.93412  341  0.6   60    -6.4  100   0     962.0    NA       0.0000   9999     0     0     0    
2019/11/04  23:14:00  BASE  0.74676  319  2.93412  341  0.6   60    -6.3  98    0     962.0    NA       0.0000   9999     0     0     0    
2019/11/04  23:15:00  BASE  1.09368  316  2.1168   337  0.6   61    -6.1  96    0     962.0    NA       0.0000   9999     0     0     0    
2019/11/04  23:16:00  BASE  1.14072  323  1.87572  329  0.6   61    -6.1  94    0     962.0    NA       0.0000   9999     0     0     0    
2019/11/04  23:17:00  BASE  1.18188  322  1.81692  315  0.5   62    -6.0  92    0     962.0    NA       0.0000   9999     0     0     0    
2019/11/04  23:18:00  BASE  1.28772  317  1.75224  316  0.5   62    -6.0  90    0     962.0    NA       0.0000   9999     0     0     0    
2019/11/04  23:19:00  BASE  1.37004  317  1.66404  324  0.5   62    -6.0  88    0     962.0    NA       0.0000   9999     0     0     0    
2019/11/04  23:20:00  BASE  1.28772  315  1.66404  324  0.5   62    -6.0  86    0     962.0    NA       0.0000   9999     0     0     0    
2019/11/04  23:21:00  BASE  1.42884  321  1.75224  332  0.5   61    -6.1  84    0     962.0    NA       0.0000   9999     0     0     0    
2019/11/04  23:22:00  BASE  1.62876  324  1.93452  314  0.4   61    -6.2  82    0     962.0    NA       0.0000   9999     0     0     0    
2019/11/04  23:23:00  BASE  1.7052   324  1.96392  316  0.4   61    -6.3  80    0     962.0    NA       0.0000   9999     0     0     0    
2019/11/04  23:24:00  BASE  1.74636  325  1.96392  316  0.3   61    -6.4  78    0     961.9    NA       0.0000   9999     0     0     0    
2019/11/04  23:25:00  BASE  1.74636  332  2.35788  337  0.2   61    -6.5  76    0     962.0    NA       0.0000   9999     0     0     0    
2019/11/04  23:26:00  BASE  1.84632  338  2.35788  337  0.2   60    -6.6  74    0     962.0    NA       0.0000   9999     0     0     0    
2019/11/04  23:27:00  BASE  1.62288  330  2.35788  337  0.1   60    -6.7  72    0     962.0    NA       0.0000   9999     0     0     0    
2019/11/04  23:28:00  BASE  1.41708  323  2.35788  337  0.1   60    -6.7  70    0     962.0    NA       0.0000   9999     0     0     0    
2019/11/04  23:29:00  BASE  1.5582   328  2.35788  337  0.1   60    -6.6  68    0     962.0    NA       0.0000   9999     0     0     0    
2019/11/04  23:30:00  BASE  1.75224  329  2.35788  337  0.1   61    -6.6  66    0     962.0    NA       0.0000   9999     0     0     0    
2019/11/04  23:31:00  BASE  1.8816   331  2.35788  337  0.2   61    -6.5  65    0     962.0    NA       0.0000   9999     0     0     0    
2019/11/04  23:32:00  BASE  1.51116  325  2.35788  337  0.2   61    -6.5  63    0     962.0    NA       0.0000   9999     0     0     0    
2019/11/04  23:33:00  BASE  1.2642   320  2.35788  337  0.2   61    -6.5  61    0     962.0    NA       0.0000   9999     0     0     0    
2019/11/04  23:34:00  BASE  1.59348  325  2.35788  337  0.2   61    -6.5  59    0     962.0    NA       0.0000   9999     0     0     0    
2019/11/04  23:35:00  BASE  1.68168  330  2.26968  336  0.2   60    -6.6  58    0     962.0    NA       0.0000   9999     0     0     0    
2019/11/04  23:36:00  BASE  1.34064  329  2.26968  336  0.2   60    -6.8  56    0     962.0    NA       0.0000   9999     0     0     0    
2019/11/04  23:37:00  BASE  1.19952  336  2.26968  336  0.2   59    -6.8  55    0     962.0    NA       0.0000   9999     0     0     0    
2019/11/04  23:38:00  BASE  1.0584   359  2.26968  336  0.1   59    -7.0  53    0     962.0    NA       0.0000   9999     0     0     0    
2019/11/04  23:39:00  BASE  0.4998   350  2.26968  336  0.1   59    -7.0  51    0     962.0    NA       0.0000   9999     0     0     0    
2019/11/04  23:40:00  BASE  0.4116   327  2.26968  336  0.1   59    -7.0  50    0     962.0    NA       0.0000   9999     0     0     0    
2019/11/04  23:41:00  BASE  0.46452  331  2.1756   317  0.1   59    -6.9  48    0     962.0    NA       0.0000   9999     0     0     0    
2019/11/04  23:42:00  BASE  0.41748  350  2.1756   317  0.1   59    -7.0  47    0     962.0    NA       0.0000   9999     0     0     0    
2019/11/04  23:43:00  BASE  0.51156  2    2.1756   317  0.2   58    -7.1  46    0     962.0    NA       0.0000   9999     0     0     0    
2019/11/04  23:44:00  BASE  0.21168  13   1.75224  325  0.2   58    -7.2  44    0     962.0    NA       0.0000   9999     0     0     0    
2019/11/04  23:45:00  BASE  0        17   1.54056  338  0.2   57    -7.4  43    0     962.0    NA       0.0000   9999     0     0     0    
2019/11/04  23:46:00  BASE  0.1176   46   1.45236  337  0.1   56    -7.6  41    0     962.0    NA       0.0000   9999     0     0     0    
2019/11/04  23:47:00  BASE  0.14112  101  1.21128  20   0.0   56    -7.6  40    0     962.0    NA       0.0000   9999     0     0     0    
2019/11/04  23:48:00  BASE  0.08232  109  1.0878   328  -0.1  57    -7.6  39    0     962.0    NA       0.0000   9999     0     0     0    
2019/11/04  23:49:00  BASE  0.27636  90   1.1466   49   -0.2  58    -7.5  37    0     962.0    NA       0.0000   9999     0     0     0    
2019/11/04  23:50:00  BASE  0.71736  47   1.1466   49   -0.2  58    -7.4  36    0     962.0    NA       0.0000   9999     0     0     0    
2019/11/04  23:51:00  BASE  0.69384  30   1.1466   49   -0.2  58    -7.4  35    0     962.0    NA       0.0000   9999     0     0     0    
2019/11/04  23:52:00  BASE  0.57624  27   1.1466   49   -0.1  58    -7.4  34    0     962.0    NA       0.0000   9999     0     0     0    
2019/11/04  23:53:00  BASE  0.6174   21   1.1466   49   -0.0  57    -7.5  33    0     962.0    NA       0.0000   9999     0     0     0    
2019/11/04  23:54:00  BASE  0.67032  21   1.1466   49   0.1   56    -7.7  31    0     962.0    NA       0.0000   9999     0     0     0    
2019/11/04  23:55:00  BASE  0.87024  25   1.35828  8    0.1   55    -7.9  30    0     961.9    NA       0.0000   9999     0     0     0    
2019/11/04  23:56:00  BASE  0.98196  27   1.48176  25   0.1   54    -8.0  29    0     961.8    NA       0.0000   9999     0     0     0    
2019/11/04  23:57:00  BASE  1.04076  32   1.48176  25   0.2   54    -8.1  28    0     961.8    NA       0.0000   9999     0     0     0    
2019/11/04  23:58:00  BASE  0.63504  31   1.48176  25   0.2   53    -8.2  27    0     961.8    NA       0.0000   9999     0     0     0    
2019/11/04  23:59:00  BASE  0.54684  31   1.48176  25   0.3   54    -8.1  26    0     961.8    NA       0.0000   9999     0     0     0